<?xml version="1.0" encoding="UTF-8"?>
<gpx version="1.1" creator="https://www.youtrack.es" xsi:schemaLocation="http://www.topografix.com/GPX/1/1 http://www.topografix.com/GPX/1/1/gpx.xsd http://www.garmin.com/xmlschemas/GpxExtensions/v3 http://www.garmin.com/xmlschemas/GpxExtensionsv3.xsd http://www.garmin.com/xmlschemas/TrackPointExtension/v1 http://www.garmin.com/xmlschemas/TrackPointExtensionv1.xsd" xmlns:gpxtpx="http://www.garmin.com/xmlschemas/TrackPointExtension/v1" xmlns:gpxx="http://www.garmin.com/xmlschemas/GpxExtensions/v3" xmlns:xsi="http://www.w3.org/2001/XMLSchema-instance">
  <metadata>
    <link href="https://www.youtrack.es">
      <text>YouTrack.es</text>
    </link>
    <time>2026-05-08T06:17:57Z</time>
  </metadata>
  <trk>
    <src>https://www.youtrack.es</src>
    <link href="https://www.youtrack.es/ruta/9848-cerro-portugues-001">
      <text>YouTrack.es</text>
    </link>
    <trkseg>
      <trkpt lat="40.07699" lon="-2.14943">
        <ele>929.2554931640625</ele>
        <time>2019-12-09T16:41:42.000Z</time>
      </trkpt>
      <trkpt lat="40.07691" lon="-2.1494">
        <ele>929.4474487304688</ele>
        <time>2019-12-09T16:41:42.002Z</time>
      </trkpt>
      <trkpt lat="40.07686" lon="-2.14936">
        <ele>929.5674438476562</ele>
        <time>2019-12-09T16:41:42.005Z</time>
      </trkpt>
      <trkpt lat="40.0768" lon="-2.14925">
        <ele>929.3416748046875</ele>
        <time>2019-12-09T16:41:42.010Z</time>
      </trkpt>
      <trkpt lat="40.0768" lon="-2.14915">
        <ele>929.1016845703125</ele>
        <time>2019-12-09T16:41:42.016Z</time>
      </trkpt>
      <trkpt lat="40.07685" lon="-2.14902">
        <ele>929.3153686523438</ele>
        <time>2019-12-09T16:41:42.025Z</time>
      </trkpt>
      <trkpt lat="40.0769" lon="-2.14898">
        <ele>929.4593505859375</ele>
        <time>2019-12-09T16:41:42.035Z</time>
      </trkpt>
      <trkpt lat="40.07701" lon="-2.14899">
        <ele>929.42333984375</ele>
        <time>2019-12-09T16:41:42.047Z</time>
      </trkpt>
      <trkpt lat="40.07709" lon="-2.14903">
        <ele>929.2793579101562</ele>
        <time>2019-12-09T16:41:42.061Z</time>
      </trkpt>
      <trkpt lat="40.07714" lon="-2.14921">
        <ele>929.0</ele>
        <time>2019-12-09T16:41:42.078Z</time>
      </trkpt>
      <trkpt lat="40.07726" lon="-2.14954">
        <ele>929.0</ele>
        <time>2019-12-09T16:41:42.100Z</time>
      </trkpt>
      <trkpt lat="40.07753" lon="-2.14976">
        <ele>928.3942260742188</ele>
        <time>2019-12-09T16:41:42.129Z</time>
      </trkpt>
      <trkpt lat="40.07824" lon="-2.15021">
        <ele>928.488037109375</ele>
        <time>2019-12-09T16:41:42.173Z</time>
      </trkpt>
      <trkpt lat="40.07844" lon="-2.15021">
        <ele>929.4478759765625</ele>
        <time>2019-12-09T16:41:42.221Z</time>
      </trkpt>
      <trkpt lat="40.07855" lon="-2.15022">
        <ele>929.9757690429688</ele>
        <time>2019-12-09T16:41:42.272Z</time>
      </trkpt>
      <trkpt lat="40.07865" lon="-2.15035">
        <ele>930.4556884765625</ele>
        <time>2019-12-09T16:41:42.325Z</time>
      </trkpt>
      <trkpt lat="40.07864" lon="-2.15054">
        <ele>930.40771484375</ele>
        <time>2019-12-09T16:41:42.381Z</time>
      </trkpt>
      <trkpt lat="40.07908500056" lon="-2.15080499842">
        <ele>931.42236328125</ele>
        <time>2019-12-09T16:41:42.447Z</time>
      </trkpt>
      <trkpt lat="40.07953" lon="-2.15107">
        <ele>932.2742309570312</ele>
        <time>2019-12-09T16:41:42.523Z</time>
      </trkpt>
      <trkpt lat="40.0796" lon="-2.15123">
        <ele>932.5614013671875</ele>
        <time>2019-12-09T16:41:42.602Z</time>
      </trkpt>
      <trkpt lat="40.07969" lon="-2.15132">
        <ele>933.101318359375</ele>
        <time>2019-12-09T16:41:42.683Z</time>
      </trkpt>
      <trkpt lat="40.08018" lon="-2.15166">
        <ele>934.0114135742188</ele>
        <time>2019-12-09T16:41:42.775Z</time>
      </trkpt>
      <trkpt lat="40.08043" lon="-2.15182">
        <ele>935.0172729492188</ele>
        <time>2019-12-09T16:41:42.873Z</time>
      </trkpt>
      <trkpt lat="40.08069" lon="-2.15191">
        <ele>937.0068359375</ele>
        <time>2019-12-09T16:41:42.976Z</time>
      </trkpt>
      <trkpt lat="40.08082" lon="-2.15205">
        <ele>938.4585571289062</ele>
        <time>2019-12-09T16:41:43.082Z</time>
      </trkpt>
      <trkpt lat="40.08121" lon="-2.15259">
        <ele>939.728271484375</ele>
        <time>2019-12-09T16:41:43.200Z</time>
      </trkpt>
      <trkpt lat="40.08151" lon="-2.15318">
        <ele>941.818603515625</ele>
        <time>2019-12-09T16:41:43.329Z</time>
      </trkpt>
      <trkpt lat="40.08165" lon="-2.15333">
        <ele>941.9328002929688</ele>
        <time>2019-12-09T16:41:43.461Z</time>
      </trkpt>
      <trkpt lat="40.08195000133" lon="-2.15387499769">
        <ele>943.323486328125</ele>
        <time>2019-12-09T16:41:43.604Z</time>
      </trkpt>
      <trkpt lat="40.08225" lon="-2.15442">
        <ele>943.7476196289062</ele>
        <time>2019-12-09T16:41:43.757Z</time>
      </trkpt>
      <trkpt lat="40.08245" lon="-2.15471">
        <ele>944.4434814453125</ele>
        <time>2019-12-09T16:41:43.916Z</time>
      </trkpt>
      <trkpt lat="40.08259" lon="-2.15505">
        <ele>945.2593383789062</ele>
        <time>2019-12-09T16:41:44.081Z</time>
      </trkpt>
      <trkpt lat="40.08273" lon="-2.15552">
        <ele>947.2925415039062</ele>
        <time>2019-12-09T16:41:44.254Z</time>
      </trkpt>
      <trkpt lat="40.08286" lon="-2.15601">
        <ele>949.9293823242188</ele>
        <time>2019-12-09T16:41:44.435Z</time>
      </trkpt>
      <trkpt lat="40.083" lon="-2.1568">
        <ele>952.624755859375</ele>
        <time>2019-12-09T16:41:44.628Z</time>
      </trkpt>
      <trkpt lat="40.08309" lon="-2.15705">
        <ele>953.4406127929688</ele>
        <time>2019-12-09T16:41:44.825Z</time>
      </trkpt>
      <trkpt lat="40.08329" lon="-2.15738">
        <ele>955.068603515625</ele>
        <time>2019-12-09T16:41:45.029Z</time>
      </trkpt>
      <trkpt lat="40.08348" lon="-2.15774">
        <ele>955.2947998046875</ele>
        <time>2019-12-09T16:41:45.239Z</time>
      </trkpt>
      <trkpt lat="40.08364" lon="-2.15795">
        <ele>956.254638671875</ele>
        <time>2019-12-09T16:41:45.454Z</time>
      </trkpt>
      <trkpt lat="40.08399" lon="-2.15837">
        <ele>956.9318237304688</ele>
        <time>2019-12-09T16:41:45.678Z</time>
      </trkpt>
      <trkpt lat="40.08426" lon="-2.15863">
        <ele>956.3792114257812</ele>
        <time>2019-12-09T16:41:45.909Z</time>
      </trkpt>
      <trkpt lat="40.08438" lon="-2.15869">
        <ele>956.9551391601562</ele>
        <time>2019-12-09T16:41:46.143Z</time>
      </trkpt>
      <trkpt lat="40.0847" lon="-2.15865">
        <ele>958.3681640625</ele>
        <time>2019-12-09T16:41:46.383Z</time>
      </trkpt>
      <trkpt lat="40.08525" lon="-2.15849">
        <ele>960.427001953125</ele>
        <time>2019-12-09T16:41:46.634Z</time>
      </trkpt>
      <trkpt lat="40.08539" lon="-2.1585">
        <ele>961.2908935546875</ele>
        <time>2019-12-09T16:41:46.888Z</time>
      </trkpt>
      <trkpt lat="40.08562" lon="-2.15857">
        <ele>961.9324951171875</ele>
        <time>2019-12-09T16:41:47.147Z</time>
      </trkpt>
      <trkpt lat="40.08635" lon="-2.15888">
        <ele>961.7952270507812</ele>
        <time>2019-12-09T16:41:47.421Z</time>
      </trkpt>
      <trkpt lat="40.0865" lon="-2.15889">
        <ele>961.5509033203125</ele>
        <time>2019-12-09T16:41:47.698Z</time>
      </trkpt>
      <trkpt lat="40.08672" lon="-2.1589">
        <ele>962.6787109375</ele>
        <time>2019-12-09T16:41:47.980Z</time>
      </trkpt>
      <trkpt lat="40.08735333335" lon="-2.15889666673">
        <ele>966.7145385742188</ele>
        <time>2019-12-09T16:41:48.274Z</time>
      </trkpt>
      <trkpt lat="40.08798666671" lon="-2.1588933334">
        <ele>969.6139526367188</ele>
        <time>2019-12-09T16:41:48.581Z</time>
      </trkpt>
      <trkpt lat="40.08862" lon="-2.15889">
        <ele>970.0</ele>
        <time>2019-12-09T16:41:48.901Z</time>
      </trkpt>
      <trkpt lat="40.08876" lon="-2.15882">
        <ele>970.0</ele>
        <time>2019-12-09T16:41:49.224Z</time>
      </trkpt>
      <trkpt lat="40.08887" lon="-2.15875">
        <ele>970.1258544921875</ele>
        <time>2019-12-09T16:41:49.549Z</time>
      </trkpt>
      <trkpt lat="40.08922" lon="-2.15833">
        <ele>970.5458374023438</ele>
        <time>2019-12-09T16:41:49.884Z</time>
      </trkpt>
      <trkpt lat="40.08936" lon="-2.1582">
        <ele>971.0775756835938</ele>
        <time>2019-12-09T16:41:50.222Z</time>
      </trkpt>
      <trkpt lat="40.08948" lon="-2.15816">
        <ele>971.41357421875</ele>
        <time>2019-12-09T16:41:50.563Z</time>
      </trkpt>
      <trkpt lat="40.08987" lon="-2.15821">
        <ele>972.5297241210938</ele>
        <time>2019-12-09T16:41:50.911Z</time>
      </trkpt>
      <trkpt lat="40.09019" lon="-2.15828">
        <ele>973.1238403320312</ele>
        <time>2019-12-09T16:41:51.266Z</time>
      </trkpt>
      <trkpt lat="40.09031" lon="-2.15828">
        <ele>973.5557861328125</ele>
        <time>2019-12-09T16:41:51.623Z</time>
      </trkpt>
      <trkpt lat="40.09046" lon="-2.15815">
        <ele>975.2915649414062</ele>
        <time>2019-12-09T16:41:51.984Z</time>
      </trkpt>
      <trkpt lat="40.09055" lon="-2.15788">
        <ele>978.3150634765625</ele>
        <time>2019-12-09T16:41:52.349Z</time>
      </trkpt>
      <trkpt lat="40.09054" lon="-2.15788">
        <ele>978.2310791015625</ele>
        <time>2019-12-09T16:41:52.715Z</time>
      </trkpt>
      <trkpt lat="40.09058" lon="-2.15777">
        <ele>979.4908447265625</ele>
        <time>2019-12-09T16:41:53.082Z</time>
      </trkpt>
      <trkpt lat="40.09058" lon="-2.1576">
        <ele>980.9186401367188</ele>
        <time>2019-12-09T16:41:53.452Z</time>
      </trkpt>
      <trkpt lat="40.09052" lon="-2.15747">
        <ele>981.5065307617188</ele>
        <time>2019-12-09T16:41:53.824Z</time>
      </trkpt>
      <trkpt lat="40.09013" lon="-2.15713">
        <ele>979.9500122070312</ele>
        <time>2019-12-09T16:41:54.206Z</time>
      </trkpt>
      <trkpt lat="40.09003" lon="-2.15699">
        <ele>979.708984375</ele>
        <time>2019-12-09T16:41:54.591Z</time>
      </trkpt>
      <trkpt lat="40.08998" lon="-2.15681">
        <ele>979.7210083007812</ele>
        <time>2019-12-09T16:41:54.979Z</time>
      </trkpt>
      <trkpt lat="40.09001" lon="-2.15611">
        <ele>980.1716918945312</ele>
        <time>2019-12-09T16:41:55.377Z</time>
      </trkpt>
      <trkpt lat="40.09012" lon="-2.15577">
        <ele>981.5348510742188</ele>
        <time>2019-12-09T16:41:55.781Z</time>
      </trkpt>
      <trkpt lat="40.09051000055" lon="-2.15546500163">
        <ele>985.329833984375</ele>
        <time>2019-12-09T16:41:56.194Z</time>
      </trkpt>
      <trkpt lat="40.0909" lon="-2.15516">
        <ele>989.4991455078125</ele>
        <time>2019-12-09T16:41:56.616Z</time>
      </trkpt>
      <trkpt lat="40.09098" lon="-2.15504">
        <ele>990.6989135742188</ele>
        <time>2019-12-09T16:41:57.041Z</time>
      </trkpt>
      <trkpt lat="40.09099" lon="-2.15484">
        <ele>992.5701293945312</ele>
        <time>2019-12-09T16:41:57.469Z</time>
      </trkpt>
      <trkpt lat="40.09149" lon="-2.15503">
        <ele>995.7039184570312</ele>
        <time>2019-12-09T16:41:57.907Z</time>
      </trkpt>
      <trkpt lat="40.09167" lon="-2.15497">
        <ele>998.6554565429688</ele>
        <time>2019-12-09T16:41:58.349Z</time>
      </trkpt>
      <trkpt lat="40.09185" lon="-2.15503">
        <ele>1000.8870849609375</ele>
        <time>2019-12-09T16:41:58.795Z</time>
      </trkpt>
      <trkpt lat="40.09197" lon="-2.15515">
        <ele>1001.4202880859375</ele>
        <time>2019-12-09T16:41:59.244Z</time>
      </trkpt>
      <trkpt lat="40.09206" lon="-2.15523">
        <ele>1001.21630859375</ele>
        <time>2019-12-09T16:41:59.695Z</time>
      </trkpt>
      <trkpt lat="40.09216" lon="-2.15537">
        <ele>1000.1567993164062</ele>
        <time>2019-12-09T16:42:00.149Z</time>
      </trkpt>
      <trkpt lat="40.09238" lon="-2.15552">
        <ele>999.5051879882812</ele>
        <time>2019-12-09T16:42:00.608Z</time>
      </trkpt>
      <trkpt lat="40.09292" lon="-2.15564">
        <ele>1003.0325927734375</ele>
        <time>2019-12-09T16:42:01.078Z</time>
      </trkpt>
      <trkpt lat="40.09301" lon="-2.15563">
        <ele>1003.500244140625</ele>
        <time>2019-12-09T16:42:01.549Z</time>
      </trkpt>
      <trkpt lat="40.09325" lon="-2.15537">
        <ele>1006.5477294921875</ele>
        <time>2019-12-09T16:42:02.027Z</time>
      </trkpt>
      <trkpt lat="40.09348" lon="-2.15503">
        <ele>1010.2311401367188</ele>
        <time>2019-12-09T16:42:02.512Z</time>
      </trkpt>
      <trkpt lat="40.09364" lon="-2.15471">
        <ele>1012.1033325195312</ele>
        <time>2019-12-09T16:42:03.002Z</time>
      </trkpt>
      <trkpt lat="40.09383" lon="-2.15429">
        <ele>1014.6408081054688</ele>
        <time>2019-12-09T16:42:03.500Z</time>
      </trkpt>
      <trkpt lat="40.09392" lon="-2.15415">
        <ele>1016.488525390625</ele>
        <time>2019-12-09T16:42:04.001Z</time>
      </trkpt>
      <trkpt lat="40.09405" lon="-2.15402">
        <ele>1019.7269287109375</ele>
        <time>2019-12-09T16:42:04.505Z</time>
      </trkpt>
      <trkpt lat="40.0941" lon="-2.15394">
        <ele>1021.4306640625</ele>
        <time>2019-12-09T16:42:05.011Z</time>
      </trkpt>
      <trkpt lat="40.09412" lon="-2.15383">
        <ele>1022.9544067382812</ele>
        <time>2019-12-09T16:42:05.518Z</time>
      </trkpt>
      <trkpt lat="40.09404" lon="-2.15334">
        <ele>1026.30859375</ele>
        <time>2019-12-09T16:42:06.033Z</time>
      </trkpt>
      <trkpt lat="40.09405" lon="-2.15291">
        <ele>1030.8099365234375</ele>
        <time>2019-12-09T16:42:06.555Z</time>
      </trkpt>
      <trkpt lat="40.0942" lon="-2.15266">
        <ele>1036.1490478515625</ele>
        <time>2019-12-09T16:42:07.082Z</time>
      </trkpt>
      <trkpt lat="40.09424" lon="-2.15246">
        <ele>1039.172607421875</ele>
        <time>2019-12-09T16:42:07.612Z</time>
      </trkpt>
      <trkpt lat="40.09436" lon="-2.15225">
        <ele>1041.0364990234375</ele>
        <time>2019-12-09T16:42:08.146Z</time>
      </trkpt>
      <trkpt lat="40.09439" lon="-2.15216">
        <ele>1041.3963623046875</ele>
        <time>2019-12-09T16:42:08.681Z</time>
      </trkpt>
      <trkpt lat="40.09468" lon="-2.15193">
        <ele>1045.5469970703125</ele>
        <time>2019-12-09T16:42:09.223Z</time>
      </trkpt>
      <trkpt lat="40.09483" lon="-2.15177">
        <ele>1047.5146484375</ele>
        <time>2019-12-09T16:42:09.769Z</time>
      </trkpt>
      <trkpt lat="40.09496" lon="-2.15157">
        <ele>1049.0550537109375</ele>
        <time>2019-12-09T16:42:10.319Z</time>
      </trkpt>
      <trkpt lat="40.09508" lon="-2.1513">
        <ele>1049.81103515625</ele>
        <time>2019-12-09T16:42:10.874Z</time>
      </trkpt>
      <trkpt lat="40.09538" lon="-2.15111">
        <ele>1053.4464111328125</ele>
        <time>2019-12-09T16:42:11.435Z</time>
      </trkpt>
      <trkpt lat="40.09561" lon="-2.1511">
        <ele>1056.2967529296875</ele>
        <time>2019-12-09T16:42:12.001Z</time>
      </trkpt>
      <trkpt lat="40.09579" lon="-2.15101">
        <ele>1058.1324462890625</ele>
        <time>2019-12-09T16:42:12.571Z</time>
      </trkpt>
      <trkpt lat="40.09585" lon="-2.15089">
        <ele>1058.42041015625</ele>
        <time>2019-12-09T16:42:13.143Z</time>
      </trkpt>
      <trkpt lat="40.09611" lon="-2.15062">
        <ele>1061.1243896484375</ele>
        <time>2019-12-09T16:42:13.722Z</time>
      </trkpt>
      <trkpt lat="40.09619" lon="-2.15057">
        <ele>1062.084228515625</ele>
        <time>2019-12-09T16:42:14.302Z</time>
      </trkpt>
      <trkpt lat="40.09652" lon="-2.15049">
        <ele>1064.826171875</ele>
        <time>2019-12-09T16:42:14.889Z</time>
      </trkpt>
      <trkpt lat="40.09673" lon="-2.15037">
        <ele>1066.62158203125</ele>
        <time>2019-12-09T16:42:15.481Z</time>
      </trkpt>
      <trkpt lat="40.09682" lon="-2.15029">
        <ele>1067.3175048828125</ele>
        <time>2019-12-09T16:42:16.075Z</time>
      </trkpt>
      <trkpt lat="40.09707" lon="-2.14989">
        <ele>1068.662841796875</ele>
        <time>2019-12-09T16:42:16.677Z</time>
      </trkpt>
      <trkpt lat="40.09726" lon="-2.14947">
        <ele>1069.5994873046875</ele>
        <time>2019-12-09T16:42:17.286Z</time>
      </trkpt>
      <trkpt lat="40.09734" lon="-2.14921">
        <ele>1069.83935546875</ele>
        <time>2019-12-09T16:42:17.900Z</time>
      </trkpt>
      <trkpt lat="40.09739" lon="-2.14914">
        <ele>1070.2113037109375</ele>
        <time>2019-12-09T16:42:18.515Z</time>
      </trkpt>
      <trkpt lat="40.09755" lon="-2.14899">
        <ele>1071.5791015625</ele>
        <time>2019-12-09T16:42:19.134Z</time>
      </trkpt>
      <trkpt lat="40.09797" lon="-2.14847">
        <ele>1074.8665771484375</ele>
        <time>2019-12-09T16:42:19.765Z</time>
      </trkpt>
      <trkpt lat="40.09822" lon="-2.14779">
        <ele>1079.656494140625</ele>
        <time>2019-12-09T16:42:20.407Z</time>
      </trkpt>
      <trkpt lat="40.09824" lon="-2.14757">
        <ele>1081.168212890625</ele>
        <time>2019-12-09T16:42:21.053Z</time>
      </trkpt>
      <trkpt lat="40.0981" lon="-2.14711">
        <ele>1082.787353515625</ele>
        <time>2019-12-09T16:42:21.706Z</time>
      </trkpt>
      <trkpt lat="40.09809" lon="-2.14701">
        <ele>1083.13525390625</ele>
        <time>2019-12-09T16:42:22.361Z</time>
      </trkpt>
      <trkpt lat="40.09816" lon="-2.14635">
        <ele>1086.7557373046875</ele>
        <time>2019-12-09T16:42:23.026Z</time>
      </trkpt>
      <trkpt lat="40.09814" lon="-2.14616">
        <ele>1087.9554443359375</ele>
        <time>2019-12-09T16:42:23.694Z</time>
      </trkpt>
      <trkpt lat="40.09803" lon="-2.14579">
        <ele>1089.6951904296875</ele>
        <time>2019-12-09T16:42:24.368Z</time>
      </trkpt>
      <trkpt lat="40.09802" lon="-2.14561">
        <ele>1090.3634033203125</ele>
        <time>2019-12-09T16:42:25.045Z</time>
      </trkpt>
      <trkpt lat="40.09804" lon="-2.14552">
        <ele>1091.17919921875</ele>
        <time>2019-12-09T16:42:25.723Z</time>
      </trkpt>
      <trkpt lat="40.09816" lon="-2.14525">
        <ele>1093.48291015625</ele>
        <time>2019-12-09T16:42:26.406Z</time>
      </trkpt>
      <trkpt lat="40.09828" lon="-2.14484">
        <ele>1095.3260498046875</ele>
        <time>2019-12-09T16:42:27.096Z</time>
      </trkpt>
      <trkpt lat="40.09839" lon="-2.14467">
        <ele>1093.63427734375</ele>
        <time>2019-12-09T16:42:27.789Z</time>
      </trkpt>
      <trkpt lat="40.09836" lon="-2.14444">
        <ele>1092.568603515625</ele>
        <time>2019-12-09T16:42:28.486Z</time>
      </trkpt>
      <trkpt lat="40.09837" lon="-2.14411">
        <ele>1093.2283935546875</ele>
        <time>2019-12-09T16:42:29.188Z</time>
      </trkpt>
      <trkpt lat="40.09842" lon="-2.14398">
        <ele>1092.7283935546875</ele>
        <time>2019-12-09T16:42:29.892Z</time>
      </trkpt>
      <trkpt lat="40.09856" lon="-2.14379">
        <ele>1091.108642578125</ele>
        <time>2019-12-09T16:42:30.600Z</time>
      </trkpt>
      <trkpt lat="40.09863" lon="-2.14358">
        <ele>1090.436767578125</ele>
        <time>2019-12-09T16:42:31.312Z</time>
      </trkpt>
      <trkpt lat="40.09866" lon="-2.14337">
        <ele>1090.2686767578125</ele>
        <time>2019-12-09T16:42:32.027Z</time>
      </trkpt>
      <trkpt lat="40.09871" lon="-2.14332">
        <ele>1089.6688232421875</ele>
        <time>2019-12-09T16:42:32.743Z</time>
      </trkpt>
      <trkpt lat="40.09911" lon="-2.14321">
        <ele>1086.7568359375</ele>
        <time>2019-12-09T16:42:33.467Z</time>
      </trkpt>
      <trkpt lat="40.09927" lon="-2.1429">
        <ele>1086.7208251953125</ele>
        <time>2019-12-09T16:42:34.197Z</time>
      </trkpt>
      <trkpt lat="40.09947" lon="-2.14273">
        <ele>1085.8929443359375</ele>
        <time>2019-12-09T16:42:34.932Z</time>
      </trkpt>
      <trkpt lat="40.09956" lon="-2.1428">
        <ele>1084.9931640625</ele>
        <time>2019-12-09T16:42:35.669Z</time>
      </trkpt>
      <trkpt lat="40.09984" lon="-2.14303">
        <ele>1082.149658203125</ele>
        <time>2019-12-09T16:42:36.412Z</time>
      </trkpt>
      <trkpt lat="40.09988" lon="-2.14308">
        <ele>1081.3704833984375</ele>
        <time>2019-12-09T16:42:37.157Z</time>
      </trkpt>
      <trkpt lat="40.09999" lon="-2.14315">
        <ele>1079.6787109375</ele>
        <time>2019-12-09T16:42:37.904Z</time>
      </trkpt>
      <trkpt lat="40.10031" lon="-2.14344">
        <ele>1075.1356201171875</ele>
        <time>2019-12-09T16:42:38.659Z</time>
      </trkpt>
      <trkpt lat="40.10064" lon="-2.14358">
        <ele>1072.3944091796875</ele>
        <time>2019-12-09T16:42:39.421Z</time>
      </trkpt>
      <trkpt lat="40.10073" lon="-2.14365">
        <ele>1071.7705078125</ele>
        <time>2019-12-09T16:42:40.185Z</time>
      </trkpt>
      <trkpt lat="40.1008" lon="-2.14377">
        <ele>1071.419189453125</ele>
        <time>2019-12-09T16:42:40.951Z</time>
      </trkpt>
      <trkpt lat="40.10093" lon="-2.14386">
        <ele>1072.114990234375</ele>
        <time>2019-12-09T16:42:41.720Z</time>
      </trkpt>
      <trkpt lat="40.10107" lon="-2.14384">
        <ele>1072.1630859375</ele>
        <time>2019-12-09T16:42:42.492Z</time>
      </trkpt>
      <trkpt lat="40.10117" lon="-2.14377">
        <ele>1071.863037109375</ele>
        <time>2019-12-09T16:42:43.266Z</time>
      </trkpt>
      <trkpt lat="40.10129" lon="-2.14377">
        <ele>1071.9796142578125</ele>
        <time>2019-12-09T16:42:44.043Z</time>
      </trkpt>
      <trkpt lat="40.10138" lon="-2.14373">
        <ele>1071.73974609375</ele>
        <time>2019-12-09T16:42:44.822Z</time>
      </trkpt>
      <trkpt lat="40.10146" lon="-2.14364">
        <ele>1071.1998291015625</ele>
        <time>2019-12-09T16:42:45.603Z</time>
      </trkpt>
      <trkpt lat="40.10149" lon="-2.14351">
        <ele>1070.419921875</ele>
        <time>2019-12-09T16:42:46.386Z</time>
      </trkpt>
      <trkpt lat="40.10157" lon="-2.14337">
        <ele>1069.580078125</ele>
        <time>2019-12-09T16:42:47.171Z</time>
      </trkpt>
      <trkpt lat="40.10174" lon="-2.14315">
        <ele>1067.66845703125</ele>
        <time>2019-12-09T16:42:47.961Z</time>
      </trkpt>
      <trkpt lat="40.10218" lon="-2.14264">
        <ele>1061.780517578125</ele>
        <time>2019-12-09T16:42:48.763Z</time>
      </trkpt>
      <trkpt lat="40.10237" lon="-2.14251">
        <ele>1059.4649658203125</ele>
        <time>2019-12-09T16:42:49.569Z</time>
      </trkpt>
      <trkpt lat="40.10251" lon="-2.14237">
        <ele>1058.454345703125</ele>
        <time>2019-12-09T16:42:50.379Z</time>
      </trkpt>
      <trkpt lat="40.10277" lon="-2.1422">
        <ele>1058.226318359375</ele>
        <time>2019-12-09T16:42:51.195Z</time>
      </trkpt>
      <trkpt lat="40.10287" lon="-2.14216">
        <ele>1057.9864501953125</ele>
        <time>2019-12-09T16:42:52.013Z</time>
      </trkpt>
      <trkpt lat="40.10336" lon="-2.14228">
        <ele>1052.9984130859375</ele>
        <time>2019-12-09T16:42:52.841Z</time>
      </trkpt>
      <trkpt lat="40.10361" lon="-2.14228">
        <ele>1050.8988037109375</ele>
        <time>2019-12-09T16:42:53.674Z</time>
      </trkpt>
      <trkpt lat="40.10423" lon="-2.14213">
        <ele>1046.2147216796875</ele>
        <time>2019-12-09T16:42:54.519Z</time>
      </trkpt>
      <trkpt lat="40.10461" lon="-2.14206">
        <ele>1045.30859375</ele>
        <time>2019-12-09T16:42:55.372Z</time>
      </trkpt>
      <trkpt lat="40.10493" lon="-2.14161">
        <ele>1043.6048583984375</ele>
        <time>2019-12-09T16:42:56.234Z</time>
      </trkpt>
      <trkpt lat="40.10503" lon="-2.14141">
        <ele>1040.76025390625</ele>
        <time>2019-12-09T16:42:57.100Z</time>
      </trkpt>
      <trkpt lat="40.10512" lon="-2.14128">
        <ele>1039.008544921875</ele>
        <time>2019-12-09T16:42:57.969Z</time>
      </trkpt>
      <trkpt lat="40.10522" lon="-2.14093">
        <ele>1034.6427001953125</ele>
        <time>2019-12-09T16:42:58.843Z</time>
      </trkpt>
      <trkpt lat="40.10538" lon="-2.14079">
        <ele>1032.6990966796875</ele>
        <time>2019-12-09T16:42:59.721Z</time>
      </trkpt>
      <trkpt lat="40.10556" lon="-2.14066">
        <ele>1031.428466796875</ele>
        <time>2019-12-09T16:43:00.603Z</time>
      </trkpt>
      <trkpt lat="40.10572" lon="-2.14071">
        <ele>1033.4920654296875</ele>
        <time>2019-12-09T16:43:01.489Z</time>
      </trkpt>
      <trkpt lat="40.106" lon="-2.14065">
        <ele>1034.9798583984375</ele>
        <time>2019-12-09T16:43:02.380Z</time>
      </trkpt>
      <trkpt lat="40.10609" lon="-2.14052">
        <ele>1033.864013671875</ele>
        <time>2019-12-09T16:43:03.274Z</time>
      </trkpt>
      <trkpt lat="40.10614" lon="-2.14031">
        <ele>1031.260498046875</ele>
        <time>2019-12-09T16:43:04.171Z</time>
      </trkpt>
      <trkpt lat="40.1062" lon="-2.14018">
        <ele>1029.8927001953125</ele>
        <time>2019-12-09T16:43:05.071Z</time>
      </trkpt>
      <trkpt lat="40.10628" lon="-2.14005">
        <ele>1028.63525390625</ele>
        <time>2019-12-09T16:43:05.973Z</time>
      </trkpt>
      <trkpt lat="40.10641" lon="-2.13996">
        <ele>1027.8074951171875</ele>
        <time>2019-12-09T16:43:06.878Z</time>
      </trkpt>
      <trkpt lat="40.10651" lon="-2.13979">
        <ele>1027.6917724609375</ele>
        <time>2019-12-09T16:43:07.786Z</time>
      </trkpt>
      <trkpt lat="40.10653" lon="-2.13966">
        <ele>1027.5242919921875</ele>
        <time>2019-12-09T16:43:08.697Z</time>
      </trkpt>
      <trkpt lat="40.10645" lon="-2.13925">
        <ele>1024.3927001953125</ele>
        <time>2019-12-09T16:43:09.614Z</time>
      </trkpt>
      <trkpt lat="40.10645" lon="-2.13915">
        <ele>1023.7928466796875</ele>
        <time>2019-12-09T16:43:10.533Z</time>
      </trkpt>
      <trkpt lat="40.10649" lon="-2.13904">
        <ele>1022.9942016601562</ele>
        <time>2019-12-09T16:43:11.453Z</time>
      </trkpt>
      <trkpt lat="40.1068" lon="-2.13854">
        <ele>1019.2431640625</ele>
        <time>2019-12-09T16:43:12.383Z</time>
      </trkpt>
      <trkpt lat="40.10686" lon="-2.1384">
        <ele>1018.475341796875</ele>
        <time>2019-12-09T16:43:13.316Z</time>
      </trkpt>
      <trkpt lat="40.10691" lon="-2.13814">
        <ele>1016.3397827148438</ele>
        <time>2019-12-09T16:43:14.253Z</time>
      </trkpt>
      <trkpt lat="40.10691" lon="-2.13796">
        <ele>1014.3961181640625</ele>
        <time>2019-12-09T16:43:15.193Z</time>
      </trkpt>
      <trkpt lat="40.10693" lon="-2.13783">
        <ele>1013.016357421875</ele>
        <time>2019-12-09T16:43:16.135Z</time>
      </trkpt>
      <trkpt lat="40.10697" lon="-2.13774">
        <ele>1012.092529296875</ele>
        <time>2019-12-09T16:43:17.078Z</time>
      </trkpt>
      <trkpt lat="40.10714" lon="-2.13762">
        <ele>1010.908203125</ele>
        <time>2019-12-09T16:43:18.025Z</time>
      </trkpt>
      <trkpt lat="40.10735" lon="-2.13767">
        <ele>1011.1961669921875</ele>
        <time>2019-12-09T16:43:18.976Z</time>
      </trkpt>
      <trkpt lat="40.1076" lon="-2.13763">
        <ele>1010.4642944335938</ele>
        <time>2019-12-09T16:43:19.932Z</time>
      </trkpt>
      <trkpt lat="40.10781" lon="-2.13767">
        <ele>1009.2445068359375</ele>
        <time>2019-12-09T16:43:20.893Z</time>
      </trkpt>
      <trkpt lat="40.108" lon="-2.13776">
        <ele>1006.4491577148438</ele>
        <time>2019-12-09T16:43:21.858Z</time>
      </trkpt>
      <trkpt lat="40.10834" lon="-2.13788">
        <ele>1002.323486328125</ele>
        <time>2019-12-09T16:43:22.830Z</time>
      </trkpt>
      <trkpt lat="40.10843" lon="-2.13788">
        <ele>1002.9713745117188</ele>
        <time>2019-12-09T16:43:23.804Z</time>
      </trkpt>
      <trkpt lat="40.10848" lon="-2.13788">
        <ele>1003.331298828125</ele>
        <time>2019-12-09T16:43:24.779Z</time>
      </trkpt>
      <trkpt lat="40.10851" lon="-2.13787">
        <ele>1003.3792724609375</ele>
        <time>2019-12-09T16:43:25.754Z</time>
      </trkpt>
      <trkpt lat="40.10854" lon="-2.13788">
        <ele>1003.7632446289062</ele>
        <time>2019-12-09T16:43:26.730Z</time>
      </trkpt>
      <trkpt lat="40.10856" lon="-2.13813">
        <ele>1008.1065063476562</ele>
        <time>2019-12-09T16:43:27.710Z</time>
      </trkpt>
      <trkpt lat="40.10853" lon="-2.13828">
        <ele>1010.35595703125</ele>
        <time>2019-12-09T16:43:28.692Z</time>
      </trkpt>
      <trkpt lat="40.10853" lon="-2.13849">
        <ele>1012.3716430664062</ele>
        <time>2019-12-09T16:43:29.677Z</time>
      </trkpt>
      <trkpt lat="40.10862" lon="-2.13876">
        <ele>1013.9835815429688</ele>
        <time>2019-12-09T16:43:30.667Z</time>
      </trkpt>
      <trkpt lat="40.10865" lon="-2.13896">
        <ele>1015.0154418945312</ele>
        <time>2019-12-09T16:43:31.660Z</time>
      </trkpt>
      <trkpt lat="40.10859" lon="-2.13932">
        <ele>1016.0</ele>
        <time>2019-12-09T16:43:32.659Z</time>
      </trkpt>
      <trkpt lat="40.1086" lon="-2.13944">
        <ele>1016.0</ele>
        <time>2019-12-09T16:43:33.659Z</time>
      </trkpt>
      <trkpt lat="40.10868" lon="-2.13982">
        <ele>1016.0</ele>
        <time>2019-12-09T16:43:34.665Z</time>
      </trkpt>
      <trkpt lat="40.10869" lon="-2.14">
        <ele>1016.0</ele>
        <time>2019-12-09T16:43:35.674Z</time>
      </trkpt>
      <trkpt lat="40.10867" lon="-2.1402">
        <ele>1016.7782592773438</ele>
        <time>2019-12-09T16:43:36.686Z</time>
      </trkpt>
      <trkpt lat="40.10855" lon="-2.14066">
        <ele>1018.4100341796875</ele>
        <time>2019-12-09T16:43:37.706Z</time>
      </trkpt>
      <trkpt lat="40.1084" lon="-2.14094">
        <ele>1018.23193359375</ele>
        <time>2019-12-09T16:43:38.731Z</time>
      </trkpt>
      <trkpt lat="40.10839" lon="-2.14102">
        <ele>1018.1838989257812</ele>
        <time>2019-12-09T16:43:39.757Z</time>
      </trkpt>
      <trkpt lat="40.10844" lon="-2.14129">
        <ele>1019.7822875976562</ele>
        <time>2019-12-09T16:43:40.787Z</time>
      </trkpt>
      <trkpt lat="40.10844" lon="-2.14145">
        <ele>1020.93408203125</ele>
        <time>2019-12-09T16:43:41.820Z</time>
      </trkpt>
      <trkpt lat="40.10836" lon="-2.14174">
        <ele>1022.0618896484375</ele>
        <time>2019-12-09T16:43:42.858Z</time>
      </trkpt>
      <trkpt lat="40.10836" lon="-2.14188">
        <ele>1023.0697021484375</ele>
        <time>2019-12-09T16:43:43.898Z</time>
      </trkpt>
      <trkpt lat="40.10845" lon="-2.14215">
        <ele>1023.9314575195312</ele>
        <time>2019-12-09T16:43:44.942Z</time>
      </trkpt>
      <trkpt lat="40.10854" lon="-2.1423">
        <ele>1023.7874755859375</ele>
        <time>2019-12-09T16:43:45.989Z</time>
      </trkpt>
      <trkpt lat="40.10858" lon="-2.14276">
        <ele>1025.3563232421875</ele>
        <time>2019-12-09T16:43:47.043Z</time>
      </trkpt>
      <trkpt lat="40.10863" lon="-2.14289">
        <ele>1024.9964599609375</ele>
        <time>2019-12-09T16:43:48.100Z</time>
      </trkpt>
      <trkpt lat="40.10868" lon="-2.14296">
        <ele>1024.636474609375</ele>
        <time>2019-12-09T16:43:49.158Z</time>
      </trkpt>
      <trkpt lat="40.10889" lon="-2.14301">
        <ele>1025.0211181640625</ele>
        <time>2019-12-09T16:43:50.220Z</time>
      </trkpt>
      <trkpt lat="40.10894" lon="-2.14303">
        <ele>1025.4410400390625</ele>
        <time>2019-12-09T16:43:51.283Z</time>
      </trkpt>
      <trkpt lat="40.10897" lon="-2.14309">
        <ele>1025.671142578125</ele>
        <time>2019-12-09T16:43:52.347Z</time>
      </trkpt>
      <trkpt lat="40.10898" lon="-2.14321">
        <ele>1025.59912109375</ele>
        <time>2019-12-09T16:43:53.413Z</time>
      </trkpt>
      <trkpt lat="40.10895" lon="-2.14337">
        <ele>1025.4232177734375</ele>
        <time>2019-12-09T16:43:54.482Z</time>
      </trkpt>
      <trkpt lat="40.10891" lon="-2.14349">
        <ele>1025.279296875</ele>
        <time>2019-12-09T16:43:55.553Z</time>
      </trkpt>
      <trkpt lat="40.10878" lon="-2.14364">
        <ele>1024.5233154296875</ele>
        <time>2019-12-09T16:43:56.627Z</time>
      </trkpt>
      <trkpt lat="40.1087" lon="-2.14382">
        <ele>1025.1484375</ele>
        <time>2019-12-09T16:43:57.705Z</time>
      </trkpt>
      <trkpt lat="40.10868" lon="-2.1439">
        <ele>1025.388427734375</ele>
        <time>2019-12-09T16:43:58.784Z</time>
      </trkpt>
      <trkpt lat="40.10869" lon="-2.14411">
        <ele>1025.5606689453125</ele>
        <time>2019-12-09T16:43:59.866Z</time>
      </trkpt>
      <trkpt lat="40.10872" lon="-2.14426">
        <ele>1025.667724609375</ele>
        <time>2019-12-09T16:44:00.950Z</time>
      </trkpt>
      <trkpt lat="40.10872" lon="-2.14452">
        <ele>1026.603515625</ele>
        <time>2019-12-09T16:44:02.038Z</time>
      </trkpt>
      <trkpt lat="40.10865" lon="-2.14504">
        <ele>1028.40380859375</ele>
        <time>2019-12-09T16:44:03.135Z</time>
      </trkpt>
      <trkpt lat="40.10851" lon="-2.14533">
        <ele>1030.033203125</ele>
        <time>2019-12-09T16:44:04.237Z</time>
      </trkpt>
      <trkpt lat="40.10832" lon="-2.14554">
        <ele>1030.885009765625</ele>
        <time>2019-12-09T16:44:05.344Z</time>
      </trkpt>
      <trkpt lat="40.10818" lon="-2.14571">
        <ele>1031.640869140625</ele>
        <time>2019-12-09T16:44:06.455Z</time>
      </trkpt>
      <trkpt lat="40.10765" lon="-2.14582">
        <ele>1032.589599609375</ele>
        <time>2019-12-09T16:44:07.576Z</time>
      </trkpt>
      <trkpt lat="40.10726" lon="-2.14583">
        <ele>1034.50927734375</ele>
        <time>2019-12-09T16:44:08.705Z</time>
      </trkpt>
      <trkpt lat="40.107" lon="-2.14594">
        <ele>1036.8936767578125</ele>
        <time>2019-12-09T16:44:09.840Z</time>
      </trkpt>
      <trkpt lat="40.10682" lon="-2.14596">
        <ele>1038.933349609375</ele>
        <time>2019-12-09T16:44:10.978Z</time>
      </trkpt>
      <trkpt lat="40.10669" lon="-2.14602">
        <ele>1040.625</ele>
        <time>2019-12-09T16:44:12.119Z</time>
      </trkpt>
      <trkpt lat="40.1064" lon="-2.1461">
        <ele>1044.1405029296875</ele>
        <time>2019-12-09T16:44:13.266Z</time>
      </trkpt>
      <trkpt lat="40.10588" lon="-2.14614">
        <ele>1049.508056640625</ele>
        <time>2019-12-09T16:44:14.423Z</time>
      </trkpt>
      <trkpt lat="40.1055" lon="-2.14609">
        <ele>1053.431396484375</ele>
        <time>2019-12-09T16:44:15.588Z</time>
      </trkpt>
      <trkpt lat="40.1051" lon="-2.14622">
        <ele>1057.4158935546875</ele>
        <time>2019-12-09T16:44:16.761Z</time>
      </trkpt>
      <trkpt lat="40.10495" lon="-2.14626">
        <ele>1058.819580078125</ele>
        <time>2019-12-09T16:44:17.937Z</time>
      </trkpt>
      <trkpt lat="40.1048" lon="-2.14626">
        <ele>1060.7908935546875</ele>
        <time>2019-12-09T16:44:19.116Z</time>
      </trkpt>
      <trkpt lat="40.10459" lon="-2.14635">
        <ele>1063.48095703125</ele>
        <time>2019-12-09T16:44:20.300Z</time>
      </trkpt>
      <trkpt lat="40.10449" lon="-2.14635">
        <ele>1065.0406494140625</ele>
        <time>2019-12-09T16:44:21.486Z</time>
      </trkpt>
      <trkpt lat="40.1044" lon="-2.14633">
        <ele>1066.468505859375</ele>
        <time>2019-12-09T16:44:22.673Z</time>
      </trkpt>
      <trkpt lat="40.10432" lon="-2.14622">
        <ele>1067.8482666015625</ele>
        <time>2019-12-09T16:44:23.863Z</time>
      </trkpt>
      <trkpt lat="40.10421" lon="-2.14617">
        <ele>1069.6239013671875</ele>
        <time>2019-12-09T16:44:25.055Z</time>
      </trkpt>
      <trkpt lat="40.10408" lon="-2.14615">
        <ele>1070.6334228515625</ele>
        <time>2019-12-09T16:44:26.250Z</time>
      </trkpt>
      <trkpt lat="40.10337" lon="-2.14615">
        <ele>1074.6116943359375</ele>
        <time>2019-12-09T16:44:27.459Z</time>
      </trkpt>
      <trkpt lat="40.10283" lon="-2.14628">
        <ele>1075.7344970703125</ele>
        <time>2019-12-09T16:44:28.679Z</time>
      </trkpt>
      <trkpt lat="40.10251" lon="-2.14642">
        <ele>1076.6943359375</ele>
        <time>2019-12-09T16:44:29.906Z</time>
      </trkpt>
      <trkpt lat="40.10238" lon="-2.14642">
        <ele>1076.5384521484375</ele>
        <time>2019-12-09T16:44:31.135Z</time>
      </trkpt>
      <trkpt lat="40.10225" lon="-2.14641">
        <ele>1076.3438720703125</ele>
        <time>2019-12-09T16:44:32.367Z</time>
      </trkpt>
      <trkpt lat="40.10187" lon="-2.14622">
        <ele>1075.0247802734375</ele>
        <time>2019-12-09T16:44:33.607Z</time>
      </trkpt>
      <trkpt lat="40.10166" lon="-2.14602">
        <ele>1074.9962158203125</ele>
        <time>2019-12-09T16:44:34.852Z</time>
      </trkpt>
      <trkpt lat="40.10146" lon="-2.14599">
        <ele>1076.639892578125</ele>
        <time>2019-12-09T16:44:36.101Z</time>
      </trkpt>
      <trkpt lat="40.10142" lon="-2.14625">
        <ele>1077.287841796875</ele>
        <time>2019-12-09T16:44:37.354Z</time>
      </trkpt>
      <trkpt lat="40.1014" lon="-2.14655">
        <ele>1078.3602294921875</ele>
        <time>2019-12-09T16:44:38.612Z</time>
      </trkpt>
      <trkpt lat="40.10133" lon="-2.14683">
        <ele>1080.26123046875</ele>
        <time>2019-12-09T16:44:39.874Z</time>
      </trkpt>
      <trkpt lat="40.10133" lon="-2.14702">
        <ele>1081.4010009765625</ele>
        <time>2019-12-09T16:44:41.139Z</time>
      </trkpt>
      <trkpt lat="40.10129" lon="-2.14718">
        <ele>1082.4088134765625</ele>
        <time>2019-12-09T16:44:42.407Z</time>
      </trkpt>
      <trkpt lat="40.10145" lon="-2.14785">
        <ele>1085.6927490234375</ele>
        <time>2019-12-09T16:44:43.686Z</time>
      </trkpt>
      <trkpt lat="40.10164" lon="-2.14827">
        <ele>1086.5477294921875</ele>
        <time>2019-12-09T16:44:44.972Z</time>
      </trkpt>
      <trkpt lat="40.10176" lon="-2.14873">
        <ele>1082.8505859375</ele>
        <time>2019-12-09T16:44:46.266Z</time>
      </trkpt>
      <trkpt lat="40.10178" lon="-2.14899">
        <ele>1080.282958984375</ele>
        <time>2019-12-09T16:44:47.564Z</time>
      </trkpt>
      <trkpt lat="40.10172" lon="-2.14945">
        <ele>1076.083740234375</ele>
        <time>2019-12-09T16:44:48.869Z</time>
      </trkpt>
      <trkpt lat="40.1015" lon="-2.15028">
        <ele>1071.7552490234375</ele>
        <time>2019-12-09T16:44:50.187Z</time>
      </trkpt>
      <trkpt lat="40.10147" lon="-2.15055">
        <ele>1071.539306640625</ele>
        <time>2019-12-09T16:44:51.509Z</time>
      </trkpt>
      <trkpt lat="40.10147" lon="-2.15084">
        <ele>1071.340576171875</ele>
        <time>2019-12-09T16:44:52.836Z</time>
      </trkpt>
      <trkpt lat="40.10154" lon="-2.15101">
        <ele>1071.820556640625</ele>
        <time>2019-12-09T16:44:54.166Z</time>
      </trkpt>
      <trkpt lat="40.10166" lon="-2.15121">
        <ele>1072.2044677734375</ele>
        <time>2019-12-09T16:44:55.500Z</time>
      </trkpt>
      <trkpt lat="40.10175" lon="-2.15132">
        <ele>1071.365478515625</ele>
        <time>2019-12-09T16:44:56.836Z</time>
      </trkpt>
      <trkpt lat="40.1019" lon="-2.15149">
        <ele>1069.92578125</ele>
        <time>2019-12-09T16:44:58.176Z</time>
      </trkpt>
      <trkpt lat="40.10187" lon="-2.1517">
        <ele>1070.4344482421875</ele>
        <time>2019-12-09T16:44:59.519Z</time>
      </trkpt>
      <trkpt lat="40.10182" lon="-2.15182">
        <ele>1071.2022705078125</ele>
        <time>2019-12-09T16:45:00.865Z</time>
      </trkpt>
      <trkpt lat="40.10161" lon="-2.15218">
        <ele>1074.47216796875</ele>
        <time>2019-12-09T16:45:02.218Z</time>
      </trkpt>
      <trkpt lat="40.10131" lon="-2.1528">
        <ele>1079.945068359375</ele>
        <time>2019-12-09T16:45:03.582Z</time>
      </trkpt>
      <trkpt lat="40.10124" lon="-2.15289">
        <ele>1080.657958984375</ele>
        <time>2019-12-09T16:45:04.948Z</time>
      </trkpt>
      <trkpt lat="40.10134" lon="-2.15302">
        <ele>1081.120849609375</ele>
        <time>2019-12-09T16:45:06.317Z</time>
      </trkpt>
      <trkpt lat="40.1016" lon="-2.15344">
        <ele>1082.406005859375</ele>
        <time>2019-12-09T16:45:07.694Z</time>
      </trkpt>
      <trkpt lat="40.10184" lon="-2.15401">
        <ele>1083.7694091796875</ele>
        <time>2019-12-09T16:45:09.081Z</time>
      </trkpt>
      <trkpt lat="40.10188" lon="-2.1542">
        <ele>1084.3018798828125</ele>
        <time>2019-12-09T16:45:10.471Z</time>
      </trkpt>
      <trkpt lat="40.10196" lon="-2.15481">
        <ele>1082.126953125</ele>
        <time>2019-12-09T16:45:11.870Z</time>
      </trkpt>
      <trkpt lat="40.102" lon="-2.15531">
        <ele>1081.920654296875</ele>
        <time>2019-12-09T16:45:13.277Z</time>
      </trkpt>
      <trkpt lat="40.10202" lon="-2.15547">
        <ele>1081.6566162109375</ele>
        <time>2019-12-09T16:45:14.687Z</time>
      </trkpt>
      <trkpt lat="40.10214" lon="-2.15527">
        <ele>1081.0867919921875</ele>
        <time>2019-12-09T16:45:16.100Z</time>
      </trkpt>
      <trkpt lat="40.10246" lon="-2.15517">
        <ele>1076.9835205078125</ele>
        <time>2019-12-09T16:45:17.520Z</time>
      </trkpt>
      <trkpt lat="40.10298" lon="-2.15426">
        <ele>1074.59521484375</ele>
        <time>2019-12-09T16:45:18.957Z</time>
      </trkpt>
      <trkpt lat="40.10306" lon="-2.15412">
        <ele>1074.5712890625</ele>
        <time>2019-12-09T16:45:20.397Z</time>
      </trkpt>
      <trkpt lat="40.10343" lon="-2.15374">
        <ele>1074.1817626953125</ele>
        <time>2019-12-09T16:45:21.847Z</time>
      </trkpt>
      <trkpt lat="40.10382" lon="-2.15304">
        <ele>1074.280029296875</ele>
        <time>2019-12-09T16:45:23.310Z</time>
      </trkpt>
      <trkpt lat="40.10413" lon="-2.1528">
        <ele>1074.1600341796875</ele>
        <time>2019-12-09T16:45:24.780Z</time>
      </trkpt>
      <trkpt lat="40.1045400003" lon="-2.15252500168">
        <ele>1074.0194091796875</ele>
        <time>2019-12-09T16:45:26.259Z</time>
      </trkpt>
      <trkpt lat="40.10495" lon="-2.15225">
        <ele>1067.9906005859375</ele>
        <time>2019-12-09T16:45:27.747Z</time>
      </trkpt>
      <trkpt lat="40.10525" lon="-2.15205">
        <ele>1062.951416015625</ele>
        <time>2019-12-09T16:45:29.242Z</time>
      </trkpt>
      <trkpt lat="40.10535" lon="-2.15198">
        <ele>1061.28369140625</ele>
        <time>2019-12-09T16:45:30.739Z</time>
      </trkpt>
      <trkpt lat="40.10563" lon="-2.1515">
        <ele>1061.30859375</ele>
        <time>2019-12-09T16:45:32.246Z</time>
      </trkpt>
      <trkpt lat="40.10605" lon="-2.15118">
        <ele>1062.6043701171875</ele>
        <time>2019-12-09T16:45:33.762Z</time>
      </trkpt>
      <trkpt lat="40.10643" lon="-2.1511">
        <ele>1061.296630859375</ele>
        <time>2019-12-09T16:45:35.286Z</time>
      </trkpt>
      <trkpt lat="40.10656" lon="-2.15107">
        <ele>1060.4207763671875</ele>
        <time>2019-12-09T16:45:36.813Z</time>
      </trkpt>
      <trkpt lat="40.1069" lon="-2.15057">
        <ele>1059.6920166015625</ele>
        <time>2019-12-09T16:45:38.350Z</time>
      </trkpt>
      <trkpt lat="40.10716" lon="-2.15024">
        <ele>1057.438232421875</ele>
        <time>2019-12-09T16:45:39.894Z</time>
      </trkpt>
      <trkpt lat="40.10725" lon="-2.15012">
        <ele>1056.5743408203125</ele>
        <time>2019-12-09T16:45:41.441Z</time>
      </trkpt>
      <trkpt lat="40.10758" lon="-2.14968">
        <ele>1055.286376953125</ele>
        <time>2019-12-09T16:45:42.997Z</time>
      </trkpt>
      <trkpt lat="40.10785" lon="-2.14934">
        <ele>1055.142333984375</ele>
        <time>2019-12-09T16:45:44.561Z</time>
      </trkpt>
      <trkpt lat="40.10803" lon="-2.14872">
        <ele>1052.7623291015625</ele>
        <time>2019-12-09T16:45:46.135Z</time>
      </trkpt>
      <trkpt lat="40.10808" lon="-2.14856">
        <ele>1051.322509765625</ele>
        <time>2019-12-09T16:45:47.712Z</time>
      </trkpt>
      <trkpt lat="40.10831" lon="-2.14786">
        <ele>1046.574951171875</ele>
        <time>2019-12-09T16:45:49.300Z</time>
      </trkpt>
      <trkpt lat="40.10858" lon="-2.14736">
        <ele>1042.032470703125</ele>
        <time>2019-12-09T16:45:50.898Z</time>
      </trkpt>
      <trkpt lat="40.10877" lon="-2.14673">
        <ele>1040.275634765625</ele>
        <time>2019-12-09T16:45:52.506Z</time>
      </trkpt>
      <trkpt lat="40.10882" lon="-2.14656">
        <ele>1039.6075439453125</ele>
        <time>2019-12-09T16:45:54.117Z</time>
      </trkpt>
      <trkpt lat="40.10911" lon="-2.14621">
        <ele>1037.2073974609375</ele>
        <time>2019-12-09T16:45:55.736Z</time>
      </trkpt>
      <trkpt lat="40.10957" lon="-2.14545">
        <ele>1034.0382080078125</ele>
        <time>2019-12-09T16:45:57.370Z</time>
      </trkpt>
      <trkpt lat="40.10989" lon="-2.14545">
        <ele>1034.69140625</ele>
        <time>2019-12-09T16:45:59.010Z</time>
      </trkpt>
      <trkpt lat="40.11007" lon="-2.14547">
        <ele>1033.15087890625</ele>
        <time>2019-12-09T16:46:00.654Z</time>
      </trkpt>
      <trkpt lat="40.11019" lon="-2.14526">
        <ele>1034.5186767578125</ele>
        <time>2019-12-09T16:46:02.302Z</time>
      </trkpt>
      <trkpt lat="40.11025" lon="-2.14515">
        <ele>1035.2625732421875</ele>
        <time>2019-12-09T16:46:03.952Z</time>
      </trkpt>
      <trkpt lat="40.11045" lon="-2.1447">
        <ele>1036.977294921875</ele>
        <time>2019-12-09T16:46:05.610Z</time>
      </trkpt>
      <trkpt lat="40.11055" lon="-2.1444">
        <ele>1037.21728515625</ele>
        <time>2019-12-09T16:46:07.273Z</time>
      </trkpt>
      <trkpt lat="40.11061" lon="-2.14425">
        <ele>1037.21728515625</ele>
        <time>2019-12-09T16:46:08.938Z</time>
      </trkpt>
      <trkpt lat="40.11092" lon="-2.14409">
        <ele>1034.0443115234375</ele>
        <time>2019-12-09T16:46:10.610Z</time>
      </trkpt>
      <trkpt lat="40.11128" lon="-2.14379">
        <ele>1027.125</ele>
        <time>2019-12-09T16:46:12.290Z</time>
      </trkpt>
      <trkpt lat="40.11137" lon="-2.1437">
        <ele>1024.6414794921875</ele>
        <time>2019-12-09T16:46:13.973Z</time>
      </trkpt>
      <trkpt lat="40.11146" lon="-2.14361">
        <ele>1022.1578979492188</ele>
        <time>2019-12-09T16:46:15.658Z</time>
      </trkpt>
      <trkpt lat="40.112" lon="-2.14322">
        <ele>1008.7080078125</ele>
        <time>2019-12-09T16:46:17.355Z</time>
      </trkpt>
      <trkpt lat="40.11211" lon="-2.14314">
        <ele>1006.2678833007812</ele>
        <time>2019-12-09T16:46:19.055Z</time>
      </trkpt>
      <trkpt lat="40.11243" lon="-2.14271">
        <ele>1000.3648681640625</ele>
        <time>2019-12-09T16:46:20.764Z</time>
      </trkpt>
      <trkpt lat="40.11293" lon="-2.14228">
        <ele>994.0281372070312</ele>
        <time>2019-12-09T16:46:22.485Z</time>
      </trkpt>
      <trkpt lat="40.11304" lon="-2.14219">
        <ele>994.8739013671875</ele>
        <time>2019-12-09T16:46:24.209Z</time>
      </trkpt>
      <trkpt lat="40.11274" lon="-2.14176">
        <ele>999.0733032226562</ele>
        <time>2019-12-09T16:46:25.942Z</time>
      </trkpt>
      <trkpt lat="40.11253" lon="-2.14137">
        <ele>1002.2964477539062</ele>
        <time>2019-12-09T16:46:27.682Z</time>
      </trkpt>
      <trkpt lat="40.11246" lon="-2.14124">
        <ele>1004.0457763671875</ele>
        <time>2019-12-09T16:46:29.424Z</time>
      </trkpt>
      <trkpt lat="40.11216" lon="-2.14105">
        <ele>1003.8778076171875</ele>
        <time>2019-12-09T16:46:31.173Z</time>
      </trkpt>
      <trkpt lat="40.11186" lon="-2.14086">
        <ele>1007.4890747070312</ele>
        <time>2019-12-09T16:46:32.929Z</time>
      </trkpt>
      <trkpt lat="40.11177" lon="-2.14079">
        <ele>1008.9048461914062</ele>
        <time>2019-12-09T16:46:34.687Z</time>
      </trkpt>
      <trkpt lat="40.11195" lon="-2.14068">
        <ele>1007.9418334960938</ele>
        <time>2019-12-09T16:46:36.449Z</time>
      </trkpt>
      <trkpt lat="40.11214" lon="-2.14065">
        <ele>1006.1578369140625</ele>
        <time>2019-12-09T16:46:38.215Z</time>
      </trkpt>
      <trkpt lat="40.1125" lon="-2.14066">
        <ele>1006.4314575195312</ele>
        <time>2019-12-09T16:46:39.988Z</time>
      </trkpt>
      <trkpt lat="40.1126" lon="-2.14061">
        <ele>1006.7914428710938</ele>
        <time>2019-12-09T16:46:41.763Z</time>
      </trkpt>
      <trkpt lat="40.1128" lon="-2.14046">
        <ele>1007.5112915039062</ele>
        <time>2019-12-09T16:46:43.542Z</time>
      </trkpt>
      <trkpt lat="40.1129" lon="-2.14038">
        <ele>1007.8712158203125</ele>
        <time>2019-12-09T16:46:45.324Z</time>
      </trkpt>
      <trkpt lat="40.11294" lon="-2.14027">
        <ele>1007.9644775390625</ele>
        <time>2019-12-09T16:46:47.108Z</time>
      </trkpt>
      <trkpt lat="40.11295" lon="-2.14013">
        <ele>1007.8804931640625</ele>
        <time>2019-12-09T16:46:48.894Z</time>
      </trkpt>
      <trkpt lat="40.11291" lon="-2.13992">
        <ele>1007.91357421875</ele>
        <time>2019-12-09T16:46:50.683Z</time>
      </trkpt>
      <trkpt lat="40.11294" lon="-2.13986">
        <ele>1006.7105712890625</ele>
        <time>2019-12-09T16:46:52.473Z</time>
      </trkpt>
      <trkpt lat="40.11298" lon="-2.13985">
        <ele>1006.0746459960938</ele>
        <time>2019-12-09T16:46:54.264Z</time>
      </trkpt>
      <trkpt lat="40.11301" lon="-2.13984">
        <ele>1005.5587768554688</ele>
        <time>2019-12-09T16:46:56.056Z</time>
      </trkpt>
      <trkpt lat="40.11311" lon="-2.13944">
        <ele>998.1199951171875</ele>
        <time>2019-12-09T16:46:57.854Z</time>
      </trkpt>
      <trkpt lat="40.11296" lon="-2.13876">
        <ele>994.3233032226562</ele>
        <time>2019-12-09T16:46:59.663Z</time>
      </trkpt>
      <trkpt lat="40.11299" lon="-2.13869">
        <ele>993.9154052734375</ele>
        <time>2019-12-09T16:47:01.473Z</time>
      </trkpt>
      <trkpt lat="40.11307" lon="-2.1386">
        <ele>992.9435424804688</ele>
        <time>2019-12-09T16:47:03.285Z</time>
      </trkpt>
      <trkpt lat="40.11334" lon="-2.13842">
        <ele>989.8120727539062</ele>
        <time>2019-12-09T16:47:05.103Z</time>
      </trkpt>
      <trkpt lat="40.11341" lon="-2.13833">
        <ele>988.9482421875</ele>
        <time>2019-12-09T16:47:06.923Z</time>
      </trkpt>
      <trkpt lat="40.11345" lon="-2.13822">
        <ele>988.8880004882812</ele>
        <time>2019-12-09T16:47:08.745Z</time>
      </trkpt>
      <trkpt lat="40.11357" lon="-2.13769">
        <ele>992.04345703125</ele>
        <time>2019-12-09T16:47:10.576Z</time>
      </trkpt>
      <trkpt lat="40.11367" lon="-2.13748">
        <ele>992.5177001953125</ele>
        <time>2019-12-09T16:47:12.411Z</time>
      </trkpt>
      <trkpt lat="40.11361" lon="-2.13723">
        <ele>991.6417846679688</ele>
        <time>2019-12-09T16:47:14.250Z</time>
      </trkpt>
      <trkpt lat="40.11361" lon="-2.1372">
        <ele>991.4258422851562</ele>
        <time>2019-12-09T16:47:16.089Z</time>
      </trkpt>
      <trkpt lat="40.11364" lon="-2.13708">
        <ele>990.3460083007812</ele>
        <time>2019-12-09T16:47:17.930Z</time>
      </trkpt>
      <trkpt lat="40.11413000042" lon="-2.13672500265">
        <ele>978.203369140625</ele>
        <time>2019-12-09T16:47:19.782Z</time>
      </trkpt>
      <trkpt lat="40.11462" lon="-2.13637">
        <ele>964.620849609375</ele>
        <time>2019-12-09T16:47:21.645Z</time>
      </trkpt>
      <trkpt lat="40.11477" lon="-2.13613">
        <ele>961.3093872070312</ele>
        <time>2019-12-09T16:47:23.513Z</time>
      </trkpt>
      <trkpt lat="40.115" lon="-2.13596">
        <ele>957.1820678710938</ele>
        <time>2019-12-09T16:47:25.386Z</time>
      </trkpt>
      <trkpt lat="40.11525" lon="-2.13564">
        <ele>951.7300415039062</ele>
        <time>2019-12-09T16:47:27.266Z</time>
      </trkpt>
      <trkpt lat="40.1153" lon="-2.13549">
        <ele>949.9303588867188</ele>
        <time>2019-12-09T16:47:29.149Z</time>
      </trkpt>
      <trkpt lat="40.11537" lon="-2.13517">
        <ele>946.618896484375</ele>
        <time>2019-12-09T16:47:31.037Z</time>
      </trkpt>
      <trkpt lat="40.1154" lon="-2.13471">
        <ele>941.748779296875</ele>
        <time>2019-12-09T16:47:32.932Z</time>
      </trkpt>
      <trkpt lat="40.11542" lon="-2.13469">
        <ele>941.412841796875</ele>
        <time>2019-12-09T16:47:34.828Z</time>
      </trkpt>
      <trkpt lat="40.11547" lon="-2.13464">
        <ele>940.572998046875</ele>
        <time>2019-12-09T16:47:36.725Z</time>
      </trkpt>
      <trkpt lat="40.11554" lon="-2.13469">
        <ele>940.6929931640625</ele>
        <time>2019-12-09T16:47:38.623Z</time>
      </trkpt>
      <trkpt lat="40.11571" lon="-2.13496">
        <ele>941.8545532226562</ele>
        <time>2019-12-09T16:47:40.527Z</time>
      </trkpt>
      <trkpt lat="40.11591" lon="-2.1351">
        <ele>941.1826782226562</ele>
        <time>2019-12-09T16:47:42.435Z</time>
      </trkpt>
      <trkpt lat="40.11602" lon="-2.13511">
        <ele>940.330810546875</ele>
        <time>2019-12-09T16:47:44.346Z</time>
      </trkpt>
      <trkpt lat="40.11622" lon="-2.1351">
        <ele>939.383544921875</ele>
        <time>2019-12-09T16:47:46.261Z</time>
      </trkpt>
      <trkpt lat="40.11623" lon="-2.13498">
        <ele>937.6438598632812</ele>
        <time>2019-12-09T16:47:48.177Z</time>
      </trkpt>
      <trkpt lat="40.11607" lon="-2.13502">
        <ele>939.2630004882812</ele>
        <time>2019-12-09T16:47:50.097Z</time>
      </trkpt>
      <trkpt lat="40.11592" lon="-2.13496">
        <ele>940.0908203125</ele>
        <time>2019-12-09T16:47:52.020Z</time>
      </trkpt>
      <trkpt lat="40.11581" lon="-2.13489">
        <ele>940.4524536132812</ele>
        <time>2019-12-09T16:47:53.945Z</time>
      </trkpt>
      <trkpt lat="40.11564" lon="-2.13461">
        <ele>939.2291870117188</ele>
        <time>2019-12-09T16:47:55.876Z</time>
      </trkpt>
      <trkpt lat="40.11561" lon="-2.13436">
        <ele>936.7096557617188</ele>
        <time>2019-12-09T16:47:57.811Z</time>
      </trkpt>
      <trkpt lat="40.11558" lon="-2.13347">
        <ele>937.185302734375</ele>
        <time>2019-12-09T16:47:59.759Z</time>
      </trkpt>
      <trkpt lat="40.1156" lon="-2.13326">
        <ele>938.1011352539062</ele>
        <time>2019-12-09T16:48:01.711Z</time>
      </trkpt>
      <trkpt lat="40.1157" lon="-2.13313">
        <ele>938.4370727539062</ele>
        <time>2019-12-09T16:48:03.665Z</time>
      </trkpt>
      <trkpt lat="40.11585" lon="-2.13302">
        <ele>938.3290405273438</ele>
        <time>2019-12-09T16:48:05.623Z</time>
      </trkpt>
      <trkpt lat="40.1159" lon="-2.133">
        <ele>938.173095703125</ele>
        <time>2019-12-09T16:48:07.582Z</time>
      </trkpt>
      <trkpt lat="40.1159" lon="-2.13301">
        <ele>938.1011352539062</ele>
        <time>2019-12-09T16:48:09.541Z</time>
      </trkpt>
      <trkpt lat="40.11637500007" lon="-2.13283500125">
        <ele>936.0057983398438</ele>
        <time>2019-12-09T16:48:11.510Z</time>
      </trkpt>
      <trkpt lat="40.11685" lon="-2.13266">
        <ele>932.136474609375</ele>
        <time>2019-12-09T16:48:13.489Z</time>
      </trkpt>
      <trkpt lat="40.11715" lon="-2.13249">
        <ele>930.6506958007812</ele>
        <time>2019-12-09T16:48:15.474Z</time>
      </trkpt>
      <trkpt lat="40.11785200352" lon="-2.13203601876">
        <ele>931.2660522460938</ele>
        <time>2019-12-09T16:48:17.475Z</time>
      </trkpt>
      <trkpt lat="40.11855400527" lon="-2.13158202815">
        <ele>930.6370849609375</ele>
        <time>2019-12-09T16:48:19.492Z</time>
      </trkpt>
      <trkpt lat="40.11925600525" lon="-2.13112802817">
        <ele>929.5718994140625</ele>
        <time>2019-12-09T16:48:21.524Z</time>
      </trkpt>
      <trkpt lat="40.11995800346" lon="-2.13067401881">
        <ele>929.3073120117188</ele>
        <time>2019-12-09T16:48:23.572Z</time>
      </trkpt>
      <trkpt lat="40.12066" lon="-2.13022">
        <ele>930.3068237304688</ele>
        <time>2019-12-09T16:48:25.636Z</time>
      </trkpt>
      <trkpt lat="40.121" lon="-2.13008">
        <ele>931.1466674804688</ele>
        <time>2019-12-09T16:48:27.707Z</time>
      </trkpt>
      <trkpt lat="40.1212" lon="-2.13003">
        <ele>931.498779296875</ele>
        <time>2019-12-09T16:48:29.782Z</time>
      </trkpt>
      <trkpt lat="40.12139" lon="-2.13002">
        <ele>931.8473510742188</ele>
        <time>2019-12-09T16:48:31.861Z</time>
      </trkpt>
      <trkpt lat="40.12202666674" lon="-2.1300666658">
        <ele>932.3193969726562</ele>
        <time>2019-12-09T16:48:33.952Z</time>
      </trkpt>
      <trkpt lat="40.12266333345" lon="-2.13011333247">
        <ele>932.6177978515625</ele>
        <time>2019-12-09T16:48:36.056Z</time>
      </trkpt>
      <trkpt lat="40.1233" lon="-2.13016">
        <ele>931.263427734375</ele>
        <time>2019-12-09T16:48:38.173Z</time>
      </trkpt>
      <trkpt lat="40.12352" lon="-2.13016">
        <ele>930.7355346679688</ele>
        <time>2019-12-09T16:48:40.294Z</time>
      </trkpt>
      <trkpt lat="40.12368" lon="-2.13014">
        <ele>931.1874389648438</ele>
        <time>2019-12-09T16:48:42.418Z</time>
      </trkpt>
      <trkpt lat="40.12377" lon="-2.13008">
        <ele>931.6553955078125</ele>
        <time>2019-12-09T16:48:44.544Z</time>
      </trkpt>
      <trkpt lat="40.12453" lon="-2.1307">
        <ele>929.3456420898438</ele>
        <time>2019-12-09T16:48:46.688Z</time>
      </trkpt>
      <trkpt lat="40.12474" lon="-2.1309">
        <ele>928.8372802734375</ele>
        <time>2019-12-09T16:48:48.838Z</time>
      </trkpt>
      <trkpt lat="40.12492" lon="-2.13117">
        <ele>928.621337890625</ele>
        <time>2019-12-09T16:48:50.993Z</time>
      </trkpt>
      <trkpt lat="40.12509" lon="-2.13151">
        <ele>928.4173583984375</ele>
        <time>2019-12-09T16:48:53.154Z</time>
      </trkpt>
      <trkpt lat="40.12528" lon="-2.13198">
        <ele>928.9469604492188</ele>
        <time>2019-12-09T16:48:55.323Z</time>
      </trkpt>
      <trkpt lat="40.12539" lon="-2.13211">
        <ele>928.287109375</ele>
        <time>2019-12-09T16:48:57.495Z</time>
      </trkpt>
      <trkpt lat="40.12553" lon="-2.13217">
        <ele>928.1105346679688</ele>
        <time>2019-12-09T16:48:59.670Z</time>
      </trkpt>
      <trkpt lat="40.12596" lon="-2.13225">
        <ele>929.0271606445312</ele>
        <time>2019-12-09T16:49:01.854Z</time>
      </trkpt>
      <trkpt lat="40.12681" lon="-2.13232">
        <ele>931.1508178710938</ele>
        <time>2019-12-09T16:49:04.055Z</time>
      </trkpt>
      <trkpt lat="40.12765" lon="-2.13218">
        <ele>934.8569946289062</ele>
        <time>2019-12-09T16:49:06.273Z</time>
      </trkpt>
      <trkpt lat="40.12775" lon="-2.13219">
        <ele>935.0369873046875</ele>
        <time>2019-12-09T16:49:08.493Z</time>
      </trkpt>
      <trkpt lat="40.1279" lon="-2.13216">
        <ele>935.576904296875</ele>
        <time>2019-12-09T16:49:10.716Z</time>
      </trkpt>
      <trkpt lat="40.12787" lon="-2.13224">
        <ele>935.0249633789062</ele>
        <time>2019-12-09T16:49:12.940Z</time>
      </trkpt>
      <trkpt lat="40.12803" lon="-2.1323">
        <ele>935.2691040039062</ele>
        <time>2019-12-09T16:49:15.168Z</time>
      </trkpt>
      <trkpt lat="40.12849000041" lon="-2.13256999823">
        <ele>936.3314819335938</ele>
        <time>2019-12-09T16:49:17.406Z</time>
      </trkpt>
      <trkpt lat="40.12895" lon="-2.13284">
        <ele>935.4806518554688</ele>
        <time>2019-12-09T16:49:19.654Z</time>
      </trkpt>
      <trkpt lat="40.12926" lon="-2.13293">
        <ele>935.684814453125</ele>
        <time>2019-12-09T16:49:21.908Z</time>
      </trkpt>
      <trkpt lat="40.1294" lon="-2.13258">
        <ele>939.8239135742188</ele>
        <time>2019-12-09T16:49:24.168Z</time>
      </trkpt>
      <trkpt lat="40.12952" lon="-2.13213">
        <ele>943.0700073242188</ele>
        <time>2019-12-09T16:49:26.436Z</time>
      </trkpt>
      <trkpt lat="40.1295" lon="-2.13169">
        <ele>945.1095581054688</ele>
        <time>2019-12-09T16:49:28.710Z</time>
      </trkpt>
      <trkpt lat="40.12952" lon="-2.13148">
        <ele>945.8428955078125</ele>
        <time>2019-12-09T16:49:30.988Z</time>
      </trkpt>
      <trkpt lat="40.12952" lon="-2.13149">
        <ele>945.8308715820312</ele>
        <time>2019-12-09T16:49:33.266Z</time>
      </trkpt>
      <trkpt lat="40.12958" lon="-2.13094">
        <ele>946.7067260742188</ele>
        <time>2019-12-09T16:49:35.552Z</time>
      </trkpt>
      <trkpt lat="40.12948" lon="-2.13016">
        <ele>949.9334106445312</ele>
        <time>2019-12-09T16:49:37.850Z</time>
      </trkpt>
      <trkpt lat="40.12937" lon="-2.12972">
        <ele>952.8287963867188</ele>
        <time>2019-12-09T16:49:40.156Z</time>
      </trkpt>
      <trkpt lat="40.12927" lon="-2.12913">
        <ele>955.9273071289062</ele>
        <time>2019-12-09T16:49:42.471Z</time>
      </trkpt>
      <trkpt lat="40.1293" lon="-2.12913">
        <ele>956.1072998046875</ele>
        <time>2019-12-09T16:49:44.786Z</time>
      </trkpt>
      <trkpt lat="40.12944" lon="-2.12928">
        <ele>956.524169921875</ele>
        <time>2019-12-09T16:49:47.105Z</time>
      </trkpt>
      <trkpt lat="40.12956" lon="-2.12934">
        <ele>956.020263671875</ele>
        <time>2019-12-09T16:49:49.427Z</time>
      </trkpt>
      <trkpt lat="40.12993" lon="-2.12934">
        <ele>955.630615234375</ele>
        <time>2019-12-09T16:49:51.756Z</time>
      </trkpt>
      <trkpt lat="40.13052" lon="-2.1292">
        <ele>956.63818359375</ele>
        <time>2019-12-09T16:49:54.097Z</time>
      </trkpt>
      <trkpt lat="40.13064" lon="-2.12913">
        <ele>957.1181030273438</ele>
        <time>2019-12-09T16:49:56.441Z</time>
      </trkpt>
      <trkpt lat="40.13084" lon="-2.1287">
        <ele>958.4551391601562</ele>
        <time>2019-12-09T16:49:58.792Z</time>
      </trkpt>
      <trkpt lat="40.13084" lon="-2.12871">
        <ele>958.4276123046875</ele>
        <time>2019-12-09T16:50:01.143Z</time>
      </trkpt>
      <trkpt lat="40.13102" lon="-2.12847">
        <ele>959.2830200195312</ele>
        <time>2019-12-09T16:50:03.500Z</time>
      </trkpt>
      <trkpt lat="40.13124" lon="-2.12825">
        <ele>960.1497802734375</ele>
        <time>2019-12-09T16:50:05.862Z</time>
      </trkpt>
      <trkpt lat="40.13133" lon="-2.12811">
        <ele>961.5045776367188</ele>
        <time>2019-12-09T16:50:08.227Z</time>
      </trkpt>
      <trkpt lat="40.13143" lon="-2.12798">
        <ele>963.0403442382812</ele>
        <time>2019-12-09T16:50:10.595Z</time>
      </trkpt>
      <trkpt lat="40.1315" lon="-2.1278">
        <ele>964.7560424804688</ele>
        <time>2019-12-09T16:50:12.966Z</time>
      </trkpt>
      <trkpt lat="40.13159" lon="-2.12772">
        <ele>965.8718872070312</ele>
        <time>2019-12-09T16:50:15.339Z</time>
      </trkpt>
      <trkpt lat="40.13161" lon="-2.12752">
        <ele>967.4315795898438</ele>
        <time>2019-12-09T16:50:17.715Z</time>
      </trkpt>
      <trkpt lat="40.13157" lon="-2.12718">
        <ele>969.947998046875</ele>
        <time>2019-12-09T16:50:20.096Z</time>
      </trkpt>
      <trkpt lat="40.13153" lon="-2.12684">
        <ele>971.7489013671875</ele>
        <time>2019-12-09T16:50:22.483Z</time>
      </trkpt>
      <trkpt lat="40.13145" lon="-2.12661">
        <ele>972.456787109375</ele>
        <time>2019-12-09T16:50:24.874Z</time>
      </trkpt>
      <trkpt lat="40.13157" lon="-2.12651">
        <ele>973.951904296875</ele>
        <time>2019-12-09T16:50:27.267Z</time>
      </trkpt>
      <trkpt lat="40.13165" lon="-2.12641">
        <ele>975.1036987304688</ele>
        <time>2019-12-09T16:50:29.663Z</time>
      </trkpt>
      <trkpt lat="40.13208" lon="-2.12601">
        <ele>980.634765625</ele>
        <time>2019-12-09T16:50:32.069Z</time>
      </trkpt>
      <trkpt lat="40.13219" lon="-2.12582">
        <ele>982.6729125976562</ele>
        <time>2019-12-09T16:50:34.479Z</time>
      </trkpt>
      <trkpt lat="40.13231" lon="-2.12553">
        <ele>985.2739868164062</ele>
        <time>2019-12-09T16:50:36.894Z</time>
      </trkpt>
      <trkpt lat="40.1325" lon="-2.12522">
        <ele>988.5254516601562</ele>
        <time>2019-12-09T16:50:39.315Z</time>
      </trkpt>
      <trkpt lat="40.13268" lon="-2.12513">
        <ele>991.1170654296875</ele>
        <time>2019-12-09T16:50:41.740Z</time>
      </trkpt>
      <trkpt lat="40.13292" lon="-2.12505">
        <ele>994.2509765625</ele>
        <time>2019-12-09T16:50:44.170Z</time>
      </trkpt>
      <trkpt lat="40.1334" lon="-2.12472">
        <ele>1004.75830078125</ele>
        <time>2019-12-09T16:50:46.611Z</time>
      </trkpt>
      <trkpt lat="40.13367" lon="-2.12451">
        <ele>1009.9774169921875</ele>
        <time>2019-12-09T16:50:49.058Z</time>
      </trkpt>
      <trkpt lat="40.13391" lon="-2.12425">
        <ele>1013.5172119140625</ele>
        <time>2019-12-09T16:50:51.511Z</time>
      </trkpt>
      <trkpt lat="40.13407" lon="-2.12412">
        <ele>1015.808837890625</ele>
        <time>2019-12-09T16:50:53.968Z</time>
      </trkpt>
      <trkpt lat="40.13421" lon="-2.12393">
        <ele>1017.3565673828125</ele>
        <time>2019-12-09T16:50:56.429Z</time>
      </trkpt>
      <trkpt lat="40.13435" lon="-2.12378">
        <ele>1019.144287109375</ele>
        <time>2019-12-09T16:50:58.894Z</time>
      </trkpt>
      <trkpt lat="40.13445" lon="-2.12371">
        <ele>1020.64404296875</ele>
        <time>2019-12-09T16:51:01.361Z</time>
      </trkpt>
      <trkpt lat="40.13454" lon="-2.1237">
        <ele>1022.311767578125</ele>
        <time>2019-12-09T16:51:03.830Z</time>
      </trkpt>
      <trkpt lat="40.13471" lon="-2.12354">
        <ele>1024.116455078125</ele>
        <time>2019-12-09T16:51:06.303Z</time>
      </trkpt>
      <trkpt lat="40.13471" lon="-2.12349">
        <ele>1023.8165283203125</ele>
        <time>2019-12-09T16:51:08.777Z</time>
      </trkpt>
      <trkpt lat="40.13481" lon="-2.12283">
        <ele>1026.446533203125</ele>
        <time>2019-12-09T16:51:11.261Z</time>
      </trkpt>
      <trkpt lat="40.13494" lon="-2.12257">
        <ele>1029.7220458984375</ele>
        <time>2019-12-09T16:51:13.750Z</time>
      </trkpt>
      <trkpt lat="40.13497" lon="-2.12244">
        <ele>1031.1497802734375</ele>
        <time>2019-12-09T16:51:16.241Z</time>
      </trkpt>
      <trkpt lat="40.13504" lon="-2.12236">
        <ele>1032.1539306640625</ele>
        <time>2019-12-09T16:51:18.734Z</time>
      </trkpt>
      <trkpt lat="40.13515" lon="-2.12235">
        <ele>1032.8858642578125</ele>
        <time>2019-12-09T16:51:21.229Z</time>
      </trkpt>
      <trkpt lat="40.1354" lon="-2.12201">
        <ele>1036.833251953125</ele>
        <time>2019-12-09T16:51:23.731Z</time>
      </trkpt>
      <trkpt lat="40.1356" lon="-2.12183">
        <ele>1036.6331787109375</ele>
        <time>2019-12-09T16:51:26.238Z</time>
      </trkpt>
      <trkpt lat="40.13572" lon="-2.12179">
        <ele>1035.6253662109375</ele>
        <time>2019-12-09T16:51:28.747Z</time>
      </trkpt>
      <trkpt lat="40.13583" lon="-2.12164">
        <ele>1035.5174560546875</ele>
        <time>2019-12-09T16:51:31.260Z</time>
      </trkpt>
      <trkpt lat="40.13601" lon="-2.12129">
        <ele>1036.4688720703125</ele>
        <time>2019-12-09T16:51:33.779Z</time>
      </trkpt>
      <trkpt lat="40.13617" lon="-2.12091">
        <ele>1037.9326171875</ele>
        <time>2019-12-09T16:51:36.305Z</time>
      </trkpt>
      <trkpt lat="40.13634" lon="-2.12027">
        <ele>1041.9910888671875</ele>
        <time>2019-12-09T16:51:38.841Z</time>
      </trkpt>
      <trkpt lat="40.13638" lon="-2.12">
        <ele>1044.1026611328125</ele>
        <time>2019-12-09T16:51:41.381Z</time>
      </trkpt>
      <trkpt lat="40.13638" lon="-2.12001">
        <ele>1044.0067138671875</ele>
        <time>2019-12-09T16:51:43.921Z</time>
      </trkpt>
      <trkpt lat="40.1364" lon="-2.11989">
        <ele>1045.2503662109375</ele>
        <time>2019-12-09T16:51:46.463Z</time>
      </trkpt>
      <trkpt lat="40.13644" lon="-2.11998">
        <ele>1043.5748291015625</ele>
        <time>2019-12-09T16:51:49.007Z</time>
      </trkpt>
      <trkpt lat="40.13658" lon="-2.12011">
        <ele>1040.647216796875</ele>
        <time>2019-12-09T16:51:51.554Z</time>
      </trkpt>
      <trkpt lat="40.13675" lon="-2.12032">
        <ele>1036.460205078125</ele>
        <time>2019-12-09T16:51:54.106Z</time>
      </trkpt>
      <trkpt lat="40.137" lon="-2.12045">
        <ele>1030.3892822265625</ele>
        <time>2019-12-09T16:51:56.663Z</time>
      </trkpt>
      <trkpt lat="40.13717" lon="-2.12045">
        <ele>1028.90576171875</ele>
        <time>2019-12-09T16:51:59.224Z</time>
      </trkpt>
      <trkpt lat="40.13723" lon="-2.12047">
        <ele>1028.90576171875</ele>
        <time>2019-12-09T16:52:01.786Z</time>
      </trkpt>
      <trkpt lat="40.13728" lon="-2.12059">
        <ele>1027.41796875</ele>
        <time>2019-12-09T16:52:04.350Z</time>
      </trkpt>
      <trkpt lat="40.13725" lon="-2.12094">
        <ele>1024.0430908203125</ele>
        <time>2019-12-09T16:52:06.920Z</time>
      </trkpt>
      <trkpt lat="40.13732" lon="-2.12126">
        <ele>1022.92724609375</ele>
        <time>2019-12-09T16:52:09.495Z</time>
      </trkpt>
      <trkpt lat="40.13755" lon="-2.12152">
        <ele>1021.3291015625</ele>
        <time>2019-12-09T16:52:12.076Z</time>
      </trkpt>
      <trkpt lat="40.13765" lon="-2.12173">
        <ele>1020.1951293945312</ele>
        <time>2019-12-09T16:52:14.661Z</time>
      </trkpt>
      <trkpt lat="40.13775" lon="-2.12181">
        <ele>1019.9454345703125</ele>
        <time>2019-12-09T16:52:17.248Z</time>
      </trkpt>
      <trkpt lat="40.13793" lon="-2.12209">
        <ele>1016.9459228515625</ele>
        <time>2019-12-09T16:52:19.840Z</time>
      </trkpt>
      <trkpt lat="40.13805" lon="-2.12241">
        <ele>1014.55029296875</ele>
        <time>2019-12-09T16:52:22.438Z</time>
      </trkpt>
      <trkpt lat="40.13805" lon="-2.12249">
        <ele>1014.1357421875</ele>
        <time>2019-12-09T16:52:25.037Z</time>
      </trkpt>
      <trkpt lat="40.138" lon="-2.12261">
        <ele>1013.727783203125</ele>
        <time>2019-12-09T16:52:27.638Z</time>
      </trkpt>
      <trkpt lat="40.13802" lon="-2.12269">
        <ele>1013.5838012695312</ele>
        <time>2019-12-09T16:52:30.241Z</time>
      </trkpt>
      <trkpt lat="40.13807" lon="-2.12274">
        <ele>1013.5838012695312</ele>
        <time>2019-12-09T16:52:32.845Z</time>
      </trkpt>
      <trkpt lat="40.13827" lon="-2.12284">
        <ele>1013.8237915039062</ele>
        <time>2019-12-09T16:52:35.453Z</time>
      </trkpt>
      <trkpt lat="40.13833" lon="-2.12286">
        <ele>1013.9197387695312</ele>
        <time>2019-12-09T16:52:38.062Z</time>
      </trkpt>
      <trkpt lat="40.13846" lon="-2.12291">
        <ele>1012.7672119140625</ele>
        <time>2019-12-09T16:52:40.674Z</time>
      </trkpt>
      <trkpt lat="40.13855" lon="-2.12303">
        <ele>1010.9315185546875</ele>
        <time>2019-12-09T16:52:43.289Z</time>
      </trkpt>
      <trkpt lat="40.13865" lon="-2.12357">
        <ele>1006.1932373046875</ele>
        <time>2019-12-09T16:52:45.912Z</time>
      </trkpt>
      <trkpt lat="40.13881" lon="-2.12378">
        <ele>1001.928955078125</ele>
        <time>2019-12-09T16:52:48.540Z</time>
      </trkpt>
      <trkpt lat="40.13887" lon="-2.12392">
        <ele>1000.2972412109375</ele>
        <time>2019-12-09T16:52:51.170Z</time>
      </trkpt>
      <trkpt lat="40.13901" lon="-2.12446">
        <ele>998.0084838867188</ele>
        <time>2019-12-09T16:52:53.809Z</time>
      </trkpt>
      <trkpt lat="40.13921" lon="-2.12459">
        <ele>996.10400390625</ele>
        <time>2019-12-09T16:52:56.452Z</time>
      </trkpt>
      <trkpt lat="40.13967" lon="-2.12484">
        <ele>988.1168823242188</ele>
        <time>2019-12-09T16:52:59.105Z</time>
      </trkpt>
      <trkpt lat="40.13993" lon="-2.12504">
        <ele>984.16259765625</ele>
        <time>2019-12-09T16:53:01.764Z</time>
      </trkpt>
      <trkpt lat="40.13989" lon="-2.12494">
        <ele>984.6185302734375</ele>
        <time>2019-12-09T16:53:04.425Z</time>
      </trkpt>
      <trkpt lat="40.13986" lon="-2.12473">
        <ele>989.3428955078125</ele>
        <time>2019-12-09T16:53:07.089Z</time>
      </trkpt>
      <trkpt lat="40.13988" lon="-2.12425">
        <ele>994.0798950195312</ele>
        <time>2019-12-09T16:53:09.761Z</time>
      </trkpt>
      <trkpt lat="40.13981" lon="-2.124">
        <ele>996.71240234375</ele>
        <time>2019-12-09T16:53:12.437Z</time>
      </trkpt>
      <trkpt lat="40.13974" lon="-2.12391">
        <ele>997.5263061523438</ele>
        <time>2019-12-09T16:53:15.115Z</time>
      </trkpt>
      <trkpt lat="40.13972" lon="-2.12377">
        <ele>998.8220825195312</ele>
        <time>2019-12-09T16:53:17.795Z</time>
      </trkpt>
      <trkpt lat="40.13975" lon="-2.12363">
        <ele>1000.6577758789062</ele>
        <time>2019-12-09T16:53:20.477Z</time>
      </trkpt>
      <trkpt lat="40.13974" lon="-2.12324">
        <ele>1004.8689575195312</ele>
        <time>2019-12-09T16:53:23.165Z</time>
      </trkpt>
      <trkpt lat="40.13971" lon="-2.12296">
        <ele>1007.5836181640625</ele>
        <time>2019-12-09T16:53:25.858Z</time>
      </trkpt>
      <trkpt lat="40.13979" lon="-2.12264">
        <ele>1011.9028930664062</ele>
        <time>2019-12-09T16:53:28.556Z</time>
      </trkpt>
      <trkpt lat="40.13989" lon="-2.12244">
        <ele>1015.3822631835938</ele>
        <time>2019-12-09T16:53:31.257Z</time>
      </trkpt>
      <trkpt lat="40.13992" lon="-2.12231">
        <ele>1016.9462280273438</ele>
        <time>2019-12-09T16:53:33.960Z</time>
      </trkpt>
      <trkpt lat="40.13992" lon="-2.12216">
        <ele>1018.2059936523438</ele>
        <time>2019-12-09T16:53:36.666Z</time>
      </trkpt>
      <trkpt lat="40.13995" lon="-2.12203">
        <ele>1019.53759765625</ele>
        <time>2019-12-09T16:53:39.374Z</time>
      </trkpt>
      <trkpt lat="40.13997" lon="-2.12182">
        <ele>1020.9293823242188</ele>
        <time>2019-12-09T16:53:42.085Z</time>
      </trkpt>
      <trkpt lat="40.14006" lon="-2.12167">
        <ele>1023.376953125</ele>
        <time>2019-12-09T16:53:44.799Z</time>
      </trkpt>
      <trkpt lat="40.14018" lon="-2.12127">
        <ele>1026.8011474609375</ele>
        <time>2019-12-09T16:53:47.520Z</time>
      </trkpt>
      <trkpt lat="40.14024" lon="-2.12098">
        <ele>1028.6488037109375</ele>
        <time>2019-12-09T16:53:50.245Z</time>
      </trkpt>
      <trkpt lat="40.14026" lon="-2.12052">
        <ele>1032.0338134765625</ele>
        <time>2019-12-09T16:53:52.977Z</time>
      </trkpt>
      <trkpt lat="40.14025" lon="-2.12038">
        <ele>1032.585693359375</ele>
        <time>2019-12-09T16:53:55.711Z</time>
      </trkpt>
      <trkpt lat="40.14018" lon="-2.12018">
        <ele>1032.823974609375</ele>
        <time>2019-12-09T16:53:58.449Z</time>
      </trkpt>
      <trkpt lat="40.14022" lon="-2.1197">
        <ele>1034.8094482421875</ele>
        <time>2019-12-09T16:54:01.194Z</time>
      </trkpt>
      <trkpt lat="40.14029" lon="-2.1195">
        <ele>1034.185546875</ele>
        <time>2019-12-09T16:54:03.943Z</time>
      </trkpt>
      <trkpt lat="40.14056" lon="-2.11903">
        <ele>1035.8402099609375</ele>
        <time>2019-12-09T16:54:06.701Z</time>
      </trkpt>
      <trkpt lat="40.14059" lon="-2.11891">
        <ele>1036.6175537109375</ele>
        <time>2019-12-09T16:54:09.460Z</time>
      </trkpt>
      <trkpt lat="40.14059" lon="-2.11878">
        <ele>1037.241455078125</ele>
        <time>2019-12-09T16:54:12.221Z</time>
      </trkpt>
      <trkpt lat="40.14032" lon="-2.11821">
        <ele>1038.6519775390625</ele>
        <time>2019-12-09T16:54:14.993Z</time>
      </trkpt>
      <trkpt lat="40.14029" lon="-2.11801">
        <ele>1040.61962890625</ele>
        <time>2019-12-09T16:54:17.768Z</time>
      </trkpt>
      <trkpt lat="40.14037" lon="-2.11747">
        <ele>1043.9979248046875</ele>
        <time>2019-12-09T16:54:20.551Z</time>
      </trkpt>
      <trkpt lat="40.14051" lon="-2.11708">
        <ele>1043.462890625</ele>
        <time>2019-12-09T16:54:23.341Z</time>
      </trkpt>
      <trkpt lat="40.14065" lon="-2.11659">
        <ele>1043.5213623046875</ele>
        <time>2019-12-09T16:54:26.139Z</time>
      </trkpt>
      <trkpt lat="40.14078" lon="-2.11645">
        <ele>1045.705078125</ele>
        <time>2019-12-09T16:54:28.940Z</time>
      </trkpt>
      <trkpt lat="40.14081" lon="-2.11638">
        <ele>1046.208984375</ele>
        <time>2019-12-09T16:54:31.743Z</time>
      </trkpt>
      <trkpt lat="40.14082" lon="-2.11627">
        <ele>1046.376953125</ele>
        <time>2019-12-09T16:54:34.547Z</time>
      </trkpt>
      <trkpt lat="40.14081" lon="-2.11605">
        <ele>1046.8660888671875</ele>
        <time>2019-12-09T16:54:37.355Z</time>
      </trkpt>
      <trkpt lat="40.14105" lon="-2.11503">
        <ele>1048.7825927734375</ele>
        <time>2019-12-09T16:54:40.179Z</time>
      </trkpt>
      <trkpt lat="40.14114" lon="-2.1148">
        <ele>1049.6439208984375</ele>
        <time>2019-12-09T16:54:43.007Z</time>
      </trkpt>
      <trkpt lat="40.14129" lon="-2.11468">
        <ele>1049.5196533203125</ele>
        <time>2019-12-09T16:54:45.838Z</time>
      </trkpt>
      <trkpt lat="40.14159" lon="-2.11421">
        <ele>1054.04296875</ele>
        <time>2019-12-09T16:54:48.679Z</time>
      </trkpt>
      <trkpt lat="40.14164" lon="-2.11408">
        <ele>1054.7020263671875</ele>
        <time>2019-12-09T16:54:51.522Z</time>
      </trkpt>
      <trkpt lat="40.1417" lon="-2.11368">
        <ele>1053.09423828125</ele>
        <time>2019-12-09T16:54:54.371Z</time>
      </trkpt>
      <trkpt lat="40.1417" lon="-2.11352">
        <ele>1054.1881103515625</ele>
        <time>2019-12-09T16:54:57.223Z</time>
      </trkpt>
      <trkpt lat="40.14183" lon="-2.11345">
        <ele>1054.6920166015625</ele>
        <time>2019-12-09T16:55:00.078Z</time>
      </trkpt>
      <trkpt lat="40.14199" lon="-2.11348">
        <ele>1055.7218017578125</ele>
        <time>2019-12-09T16:55:02.936Z</time>
      </trkpt>
      <trkpt lat="40.14229" lon="-2.11362">
        <ele>1058.3289794921875</ele>
        <time>2019-12-09T16:55:05.800Z</time>
      </trkpt>
      <trkpt lat="40.14263" lon="-2.11388">
        <ele>1063.18505859375</ele>
        <time>2019-12-09T16:55:08.672Z</time>
      </trkpt>
      <trkpt lat="40.14289" lon="-2.11429">
        <ele>1070.1722412109375</ele>
        <time>2019-12-09T16:55:11.552Z</time>
      </trkpt>
      <trkpt lat="40.14297" lon="-2.11435">
        <ele>1071.226318359375</ele>
        <time>2019-12-09T16:55:14.434Z</time>
      </trkpt>
      <trkpt lat="40.14316" lon="-2.11435">
        <ele>1071.454345703125</ele>
        <time>2019-12-09T16:55:17.320Z</time>
      </trkpt>
      <trkpt lat="40.14339" lon="-2.11447">
        <ele>1072.30615234375</ele>
        <time>2019-12-09T16:55:20.211Z</time>
      </trkpt>
      <trkpt lat="40.14356" lon="-2.1145">
        <ele>1074.8614501953125</ele>
        <time>2019-12-09T16:55:23.105Z</time>
      </trkpt>
      <trkpt lat="40.14387" lon="-2.11463">
        <ele>1079.068359375</ele>
        <time>2019-12-09T16:55:26.006Z</time>
      </trkpt>
      <trkpt lat="40.14401" lon="-2.11464">
        <ele>1078.060546875</ele>
        <time>2019-12-09T16:55:28.910Z</time>
      </trkpt>
      <trkpt lat="40.14422" lon="-2.11475">
        <ele>1079.707275390625</ele>
        <time>2019-12-09T16:55:31.818Z</time>
      </trkpt>
      <trkpt lat="40.14432" lon="-2.1149">
        <ele>1082.8868408203125</ele>
        <time>2019-12-09T16:55:34.729Z</time>
      </trkpt>
      <trkpt lat="40.14445" lon="-2.11496">
        <ele>1083.4378662109375</ele>
        <time>2019-12-09T16:55:37.643Z</time>
      </trkpt>
      <trkpt lat="40.1446" lon="-2.11499">
        <ele>1083.3756103515625</ele>
        <time>2019-12-09T16:55:40.560Z</time>
      </trkpt>
      <trkpt lat="40.14456" lon="-2.11532">
        <ele>1085.6552734375</ele>
        <time>2019-12-09T16:55:43.482Z</time>
      </trkpt>
      <trkpt lat="40.14452" lon="-2.11539">
        <ele>1086.0631103515625</ele>
        <time>2019-12-09T16:55:46.405Z</time>
      </trkpt>
      <trkpt lat="40.14447" lon="-2.11544">
        <ele>1086.3031005859375</ele>
        <time>2019-12-09T16:55:49.330Z</time>
      </trkpt>
      <trkpt lat="40.14435" lon="-2.11545">
        <ele>1086.087158203125</ele>
        <time>2019-12-09T16:55:52.257Z</time>
      </trkpt>
      <trkpt lat="40.14422" lon="-2.11564">
        <ele>1087.1429443359375</ele>
        <time>2019-12-09T16:55:55.188Z</time>
      </trkpt>
      <trkpt lat="40.14409" lon="-2.11605">
        <ele>1086.4078369140625</ele>
        <time>2019-12-09T16:55:58.126Z</time>
      </trkpt>
      <trkpt lat="40.144" lon="-2.11613">
        <ele>1085.807861328125</ele>
        <time>2019-12-09T16:56:01.066Z</time>
      </trkpt>
      <trkpt lat="40.14398" lon="-2.1162">
        <ele>1085.4239501953125</ele>
        <time>2019-12-09T16:56:04.007Z</time>
      </trkpt>
      <trkpt lat="40.144" lon="-2.11632">
        <ele>1084.89599609375</ele>
        <time>2019-12-09T16:56:06.950Z</time>
      </trkpt>
      <trkpt lat="40.14398" lon="-2.11637">
        <ele>1084.6080322265625</ele>
        <time>2019-12-09T16:56:09.894Z</time>
      </trkpt>
      <trkpt lat="40.14415" lon="-2.11671">
        <ele>1081.9024658203125</ele>
        <time>2019-12-09T16:56:12.844Z</time>
      </trkpt>
      <trkpt lat="40.14449" lon="-2.11712">
        <ele>1077.1148681640625</ele>
        <time>2019-12-09T16:56:15.803Z</time>
      </trkpt>
      <trkpt lat="40.14452" lon="-2.11719">
        <ele>1076.178955078125</ele>
        <time>2019-12-09T16:56:18.764Z</time>
      </trkpt>
      <trkpt lat="40.14456" lon="-2.11801">
        <ele>1066.6243896484375</ele>
        <time>2019-12-09T16:56:21.737Z</time>
      </trkpt>
      <trkpt lat="40.14461" lon="-2.11862">
        <ele>1056.3001708984375</ele>
        <time>2019-12-09T16:56:24.720Z</time>
      </trkpt>
      <trkpt lat="40.14468" lon="-2.11885">
        <ele>1052.976806640625</ele>
        <time>2019-12-09T16:56:27.706Z</time>
      </trkpt>
      <trkpt lat="40.14474" lon="-2.11899">
        <ele>1051.272216796875</ele>
        <time>2019-12-09T16:56:30.695Z</time>
      </trkpt>
      <trkpt lat="40.14511" lon="-2.11973">
        <ele>1046.2958984375</ele>
        <time>2019-12-09T16:56:33.697Z</time>
      </trkpt>
      <trkpt lat="40.14519" lon="-2.12">
        <ele>1043.315185546875</ele>
        <time>2019-12-09T16:56:36.704Z</time>
      </trkpt>
      <trkpt lat="40.14517" lon="-2.12019">
        <ele>1040.7236328125</ele>
        <time>2019-12-09T16:56:39.714Z</time>
      </trkpt>
      <trkpt lat="40.1451" lon="-2.12039">
        <ele>1036.0150146484375</ele>
        <time>2019-12-09T16:56:42.727Z</time>
      </trkpt>
      <trkpt lat="40.14502" lon="-2.12057">
        <ele>1031.52783203125</ele>
        <time>2019-12-09T16:56:45.743Z</time>
      </trkpt>
      <trkpt lat="40.14499" lon="-2.12072">
        <ele>1027.96435546875</ele>
        <time>2019-12-09T16:56:48.762Z</time>
      </trkpt>
      <trkpt lat="40.14498" lon="-2.12093">
        <ele>1026.401611328125</ele>
        <time>2019-12-09T16:56:51.784Z</time>
      </trkpt>
      <trkpt lat="40.14508" lon="-2.1212">
        <ele>1024.904296875</ele>
        <time>2019-12-09T16:56:54.810Z</time>
      </trkpt>
      <trkpt lat="40.14522" lon="-2.1214">
        <ele>1018.5693359375</ele>
        <time>2019-12-09T16:56:57.841Z</time>
      </trkpt>
      <trkpt lat="40.14552" lon="-2.12161">
        <ele>1011.96484375</ele>
        <time>2019-12-09T16:57:00.878Z</time>
      </trkpt>
      <trkpt lat="40.14564" lon="-2.12174">
        <ele>1012.1448364257812</ele>
        <time>2019-12-09T16:57:03.919Z</time>
      </trkpt>
      <trkpt lat="40.14571" lon="-2.12187">
        <ele>1011.6649169921875</ele>
        <time>2019-12-09T16:57:06.962Z</time>
      </trkpt>
      <trkpt lat="40.14577" lon="-2.12209">
        <ele>1010.0811767578125</ele>
        <time>2019-12-09T16:57:10.009Z</time>
      </trkpt>
      <trkpt lat="40.14577" lon="-2.12222">
        <ele>1006.6561889648438</ele>
        <time>2019-12-09T16:57:13.058Z</time>
      </trkpt>
      <trkpt lat="40.14567" lon="-2.12248">
        <ele>1000.484375</ele>
        <time>2019-12-09T16:57:16.111Z</time>
      </trkpt>
      <trkpt lat="40.14548" lon="-2.1227">
        <ele>999.2846069335938</ele>
        <time>2019-12-09T16:57:19.169Z</time>
      </trkpt>
      <trkpt lat="40.14541" lon="-2.12296">
        <ele>996.900390625</ele>
        <time>2019-12-09T16:57:22.231Z</time>
      </trkpt>
      <trkpt lat="40.14531" lon="-2.12351">
        <ele>990.2562255859375</ele>
        <time>2019-12-09T16:57:25.302Z</time>
      </trkpt>
      <trkpt lat="40.14525" lon="-2.12371">
        <ele>987.13671875</ele>
        <time>2019-12-09T16:57:28.376Z</time>
      </trkpt>
      <trkpt lat="40.14503" lon="-2.12426">
        <ele>978.7460327148438</ele>
        <time>2019-12-09T16:57:31.460Z</time>
      </trkpt>
      <trkpt lat="40.14498" lon="-2.12445">
        <ele>976.0104370117188</ele>
        <time>2019-12-09T16:57:34.547Z</time>
      </trkpt>
      <trkpt lat="40.14496" lon="-2.12493">
        <ele>967.442138671875</ele>
        <time>2019-12-09T16:57:37.641Z</time>
      </trkpt>
      <trkpt lat="40.145" lon="-2.12593">
        <ele>945.0108642578125</ele>
        <time>2019-12-09T16:57:40.751Z</time>
      </trkpt>
      <trkpt lat="40.14497" lon="-2.1262">
        <ele>941.5914306640625</ele>
        <time>2019-12-09T16:57:43.865Z</time>
      </trkpt>
      <trkpt lat="40.14496" lon="-2.12623">
        <ele>941.2435302734375</ele>
        <time>2019-12-09T16:57:46.979Z</time>
      </trkpt>
      <trkpt lat="40.14418" lon="-2.12608">
        <ele>945.3389892578125</ele>
        <time>2019-12-09T16:57:50.109Z</time>
      </trkpt>
      <trkpt lat="40.14405" lon="-2.12608">
        <ele>945.806884765625</ele>
        <time>2019-12-09T16:57:53.242Z</time>
      </trkpt>
      <trkpt lat="40.14347" lon="-2.12622">
        <ele>944.0828247070312</ele>
        <time>2019-12-09T16:57:56.386Z</time>
      </trkpt>
      <trkpt lat="40.14313" lon="-2.12624">
        <ele>943.12939453125</ele>
        <time>2019-12-09T16:57:59.537Z</time>
      </trkpt>
      <trkpt lat="40.14301" lon="-2.12622">
        <ele>943.1533813476562</ele>
        <time>2019-12-09T16:58:02.691Z</time>
      </trkpt>
      <trkpt lat="40.14254" lon="-2.12595">
        <ele>947.9270629882812</ele>
        <time>2019-12-09T16:58:05.855Z</time>
      </trkpt>
      <trkpt lat="40.14189" lon="-2.12541">
        <ele>950.3507690429688</ele>
        <time>2019-12-09T16:58:09.034Z</time>
      </trkpt>
      <trkpt lat="40.14162" lon="-2.12539">
        <ele>950.6765747070312</ele>
        <time>2019-12-09T16:58:12.219Z</time>
      </trkpt>
      <trkpt lat="40.14144" lon="-2.1254">
        <ele>950.064697265625</ele>
        <time>2019-12-09T16:58:15.407Z</time>
      </trkpt>
      <trkpt lat="40.14117" lon="-2.12547">
        <ele>951.022216796875</ele>
        <time>2019-12-09T16:58:18.601Z</time>
      </trkpt>
      <trkpt lat="40.14105" lon="-2.12561">
        <ele>951.526123046875</ele>
        <time>2019-12-09T16:58:21.798Z</time>
      </trkpt>
      <trkpt lat="40.14096" lon="-2.12588">
        <ele>950.6441650390625</ele>
        <time>2019-12-09T16:58:25.000Z</time>
      </trkpt>
      <trkpt lat="40.14093" lon="-2.12617">
        <ele>951.0387573242188</ele>
        <time>2019-12-09T16:58:28.206Z</time>
      </trkpt>
      <trkpt lat="40.14097" lon="-2.12661">
        <ele>951.83251953125</ele>
        <time>2019-12-09T16:58:31.419Z</time>
      </trkpt>
      <trkpt lat="40.14108" lon="-2.12697">
        <ele>949.3074340820312</ele>
        <time>2019-12-09T16:58:34.638Z</time>
      </trkpt>
      <trkpt lat="40.14142" lon="-2.12785">
        <ele>945.9911499023438</ele>
        <time>2019-12-09T16:58:37.872Z</time>
      </trkpt>
      <trkpt lat="40.14148" lon="-2.12813">
        <ele>946.2293701171875</ele>
        <time>2019-12-09T16:58:41.110Z</time>
      </trkpt>
      <trkpt lat="40.14157" lon="-2.12908">
        <ele>944.6622314453125</ele>
        <time>2019-12-09T16:58:44.363Z</time>
      </trkpt>
      <trkpt lat="40.14172000617" lon="-2.12992666293">
        <ele>946.5619506835938</ele>
        <time>2019-12-09T16:58:47.629Z</time>
      </trkpt>
      <trkpt lat="40.14187000617" lon="-2.13077332961">
        <ele>947.4437255859375</ele>
        <time>2019-12-09T16:58:50.909Z</time>
      </trkpt>
      <trkpt lat="40.14202" lon="-2.13162">
        <ele>944.5841064453125</ele>
        <time>2019-12-09T16:58:54.202Z</time>
      </trkpt>
      <trkpt lat="40.14202" lon="-2.13226">
        <ele>943.470703125</ele>
        <time>2019-12-09T16:58:57.505Z</time>
      </trkpt>
      <trkpt lat="40.14199" lon="-2.13254">
        <ele>942.71142578125</ele>
        <time>2019-12-09T16:59:00.812Z</time>
      </trkpt>
      <trkpt lat="40.14184" lon="-2.13367">
        <ele>940.1634521484375</ele>
        <time>2019-12-09T16:59:04.137Z</time>
      </trkpt>
      <trkpt lat="40.14181" lon="-2.13374">
        <ele>940.1514892578125</ele>
        <time>2019-12-09T16:59:07.463Z</time>
      </trkpt>
      <trkpt lat="40.14173" lon="-2.13382">
        <ele>940.2474365234375</ele>
        <time>2019-12-09T16:59:10.791Z</time>
      </trkpt>
      <trkpt lat="40.14169" lon="-2.13384">
        <ele>940.3194580078125</ele>
        <time>2019-12-09T16:59:14.120Z</time>
      </trkpt>
      <trkpt lat="40.14168" lon="-2.13384">
        <ele>940.3434448242188</ele>
        <time>2019-12-09T16:59:17.449Z</time>
      </trkpt>
      <trkpt lat="40.14143" lon="-2.13391">
        <ele>941.0462646484375</ele>
        <time>2019-12-09T16:59:20.783Z</time>
      </trkpt>
      <trkpt lat="40.14147" lon="-2.13418">
        <ele>940.3495483398438</ele>
        <time>2019-12-09T16:59:24.121Z</time>
      </trkpt>
      <trkpt lat="40.14125" lon="-2.13496">
        <ele>939.30908203125</ele>
        <time>2019-12-09T16:59:27.472Z</time>
      </trkpt>
      <trkpt lat="40.14116" lon="-2.13557">
        <ele>940.36572265625</ele>
        <time>2019-12-09T16:59:30.833Z</time>
      </trkpt>
      <trkpt lat="40.14112" lon="-2.13571">
        <ele>940.8456420898438</ele>
        <time>2019-12-09T16:59:34.196Z</time>
      </trkpt>
      <trkpt lat="40.14109" lon="-2.13605">
        <ele>939.3229370117188</ele>
        <time>2019-12-09T16:59:37.564Z</time>
      </trkpt>
      <trkpt lat="40.14088" lon="-2.13677">
        <ele>937.8484497070312</ele>
        <time>2019-12-09T16:59:40.944Z</time>
      </trkpt>
      <trkpt lat="40.14078" lon="-2.13693">
        <ele>937.6084594726562</ele>
        <time>2019-12-09T16:59:44.327Z</time>
      </trkpt>
      <trkpt lat="40.14069" lon="-2.13733">
        <ele>936.1942749023438</ele>
        <time>2019-12-09T16:59:47.717Z</time>
      </trkpt>
      <trkpt lat="40.14061" lon="-2.13747">
        <ele>936.148681640625</ele>
        <time>2019-12-09T16:59:51.109Z</time>
      </trkpt>
      <trkpt lat="40.14055" lon="-2.13752">
        <ele>936.3766479492188</ele>
        <time>2019-12-09T16:59:54.503Z</time>
      </trkpt>
      <trkpt lat="40.14051" lon="-2.13759">
        <ele>936.484619140625</ele>
        <time>2019-12-09T16:59:57.898Z</time>
      </trkpt>
      <trkpt lat="40.14044" lon="-2.13781">
        <ele>936.5552978515625</ele>
        <time>2019-12-09T17:00:01.297Z</time>
      </trkpt>
      <trkpt lat="40.13986" lon="-2.13842">
        <ele>937.05029296875</ele>
        <time>2019-12-09T17:00:04.711Z</time>
      </trkpt>
      <trkpt lat="40.13968" lon="-2.13869">
        <ele>937.9141845703125</ele>
        <time>2019-12-09T17:00:08.130Z</time>
      </trkpt>
      <trkpt lat="40.13959" lon="-2.13876">
        <ele>938.1901245117188</ele>
        <time>2019-12-09T17:00:11.551Z</time>
      </trkpt>
      <trkpt lat="40.13923" lon="-2.13883">
        <ele>938.7900390625</ele>
        <time>2019-12-09T17:00:14.979Z</time>
      </trkpt>
      <trkpt lat="40.13914" lon="-2.13885">
        <ele>938.9459838867188</ele>
        <time>2019-12-09T17:00:18.409Z</time>
      </trkpt>
      <trkpt lat="40.13904" lon="-2.13896">
        <ele>939.3299560546875</ele>
        <time>2019-12-09T17:00:21.842Z</time>
      </trkpt>
      <trkpt lat="40.13876" lon="-2.13943">
        <ele>938.4287109375</ele>
        <time>2019-12-09T17:00:25.284Z</time>
      </trkpt>
      <trkpt lat="40.13865" lon="-2.1395">
        <ele>937.9608154296875</ele>
        <time>2019-12-09T17:00:28.729Z</time>
      </trkpt>
      <trkpt lat="40.13837" lon="-2.13952">
        <ele>937.5288696289062</ele>
        <time>2019-12-09T17:00:32.179Z</time>
      </trkpt>
      <trkpt lat="40.13807" lon="-2.13964">
        <ele>937.8121948242188</ele>
        <time>2019-12-09T17:00:35.635Z</time>
      </trkpt>
      <trkpt lat="40.13787" lon="-2.13976">
        <ele>937.4883422851562</ele>
        <time>2019-12-09T17:00:39.096Z</time>
      </trkpt>
      <trkpt lat="40.13743" lon="-2.14017">
        <ele>936.0640258789062</ele>
        <time>2019-12-09T17:00:42.568Z</time>
      </trkpt>
      <trkpt lat="40.13708" lon="-2.1404">
        <ele>936.3004760742188</ele>
        <time>2019-12-09T17:00:46.047Z</time>
      </trkpt>
      <trkpt lat="40.13692" lon="-2.14047">
        <ele>936.2644653320312</ele>
        <time>2019-12-09T17:00:49.530Z</time>
      </trkpt>
      <trkpt lat="40.13674" lon="-2.1405">
        <ele>936.5164794921875</ele>
        <time>2019-12-09T17:00:53.016Z</time>
      </trkpt>
      <trkpt lat="40.13663" lon="-2.14045">
        <ele>937.0803833007812</ele>
        <time>2019-12-09T17:00:56.505Z</time>
      </trkpt>
      <trkpt lat="40.1365" lon="-2.14029">
        <ele>938.6591796875</ele>
        <time>2019-12-09T17:00:59.997Z</time>
      </trkpt>
      <trkpt lat="40.1363" lon="-2.14004">
        <ele>941.1787109375</ele>
        <time>2019-12-09T17:01:03.495Z</time>
      </trkpt>
      <trkpt lat="40.1361" lon="-2.13989">
        <ele>941.8218994140625</ele>
        <time>2019-12-09T17:01:06.997Z</time>
      </trkpt>
      <trkpt lat="40.13587" lon="-2.13977">
        <ele>942.7577514648438</ele>
        <time>2019-12-09T17:01:10.504Z</time>
      </trkpt>
      <trkpt lat="40.13564" lon="-2.13945">
        <ele>945.239501953125</ele>
        <time>2019-12-09T17:01:14.018Z</time>
      </trkpt>
      <trkpt lat="40.13503" lon="-2.13881">
        <ele>945.7025146484375</ele>
        <time>2019-12-09T17:01:17.548Z</time>
      </trkpt>
      <trkpt lat="40.13494" lon="-2.13857">
        <ele>946.9119262695312</ele>
        <time>2019-12-09T17:01:21.082Z</time>
      </trkpt>
      <trkpt lat="40.13487" lon="-2.13796">
        <ele>948.3836669921875</ele>
        <time>2019-12-09T17:01:24.625Z</time>
      </trkpt>
      <trkpt lat="40.13484000162" lon="-2.13734499959">
        <ele>946.9822998046875</ele>
        <time>2019-12-09T17:01:28.178Z</time>
      </trkpt>
      <trkpt lat="40.13481" lon="-2.13673">
        <ele>944.2350463867188</ele>
        <time>2019-12-09T17:01:31.740Z</time>
      </trkpt>
      <trkpt lat="40.13477" lon="-2.13639">
        <ele>943.1527099609375</ele>
        <time>2019-12-09T17:01:35.308Z</time>
      </trkpt>
      <trkpt lat="40.13463" lon="-2.13583">
        <ele>943.9925537109375</ele>
        <time>2019-12-09T17:01:38.885Z</time>
      </trkpt>
      <trkpt lat="40.13448" lon="-2.13551">
        <ele>942.9652099609375</ele>
        <time>2019-12-09T17:01:42.467Z</time>
      </trkpt>
      <trkpt lat="40.13441" lon="-2.1353">
        <ele>942.5452880859375</ele>
        <time>2019-12-09T17:01:46.053Z</time>
      </trkpt>
      <trkpt lat="40.13436" lon="-2.13509">
        <ele>942.72998046875</ele>
        <time>2019-12-09T17:01:49.642Z</time>
      </trkpt>
      <trkpt lat="40.13437" lon="-2.13471">
        <ele>945.3798217773438</ele>
        <time>2019-12-09T17:01:53.237Z</time>
      </trkpt>
      <trkpt lat="40.13437" lon="-2.1347">
        <ele>945.4518432617188</ele>
        <time>2019-12-09T17:01:56.832Z</time>
      </trkpt>
      <trkpt lat="40.13365666724" lon="-2.13444666136">
        <ele>939.9775390625</ele>
        <time>2019-12-09T17:02:00.442Z</time>
      </trkpt>
      <trkpt lat="40.13294333393" lon="-2.13419332803">
        <ele>936.3953857421875</ele>
        <time>2019-12-09T17:02:04.067Z</time>
      </trkpt>
      <trkpt lat="40.13223" lon="-2.13394">
        <ele>936.1817016601562</ele>
        <time>2019-12-09T17:02:07.707Z</time>
      </trkpt>
      <trkpt lat="40.13225" lon="-2.13388">
        <ele>936.8535766601562</ele>
        <time>2019-12-09T17:02:11.348Z</time>
      </trkpt>
      <trkpt lat="40.13276" lon="-2.13325">
        <ele>945.2442626953125</ele>
        <time>2019-12-09T17:02:15.003Z</time>
      </trkpt>
      <trkpt lat="40.13289" lon="-2.13305">
        <ele>946.8280029296875</ele>
        <time>2019-12-09T17:02:18.662Z</time>
      </trkpt>
      <trkpt lat="40.13294" lon="-2.13293">
        <ele>947.6460571289062</ele>
        <time>2019-12-09T17:02:22.323Z</time>
      </trkpt>
      <trkpt lat="40.13299" lon="-2.13267">
        <ele>949.2537841796875</ele>
        <time>2019-12-09T17:02:25.988Z</time>
      </trkpt>
      <trkpt lat="40.13322" lon="-2.13212">
        <ele>952.359130859375</ele>
        <time>2019-12-09T17:02:29.662Z</time>
      </trkpt>
      <trkpt lat="40.13342" lon="-2.1318">
        <ele>954.038818359375</ele>
        <time>2019-12-09T17:02:33.343Z</time>
      </trkpt>
      <trkpt lat="40.13347" lon="-2.13164">
        <ele>954.458740234375</ele>
        <time>2019-12-09T17:02:37.026Z</time>
      </trkpt>
      <trkpt lat="40.13354" lon="-2.13156">
        <ele>955.0466918945312</ele>
        <time>2019-12-09T17:02:40.711Z</time>
      </trkpt>
      <trkpt lat="40.13362" lon="-2.13151">
        <ele>955.7185668945312</ele>
        <time>2019-12-09T17:02:44.398Z</time>
      </trkpt>
      <trkpt lat="40.13396" lon="-2.1314">
        <ele>960.1481323242188</ele>
        <time>2019-12-09T17:02:48.092Z</time>
      </trkpt>
      <trkpt lat="40.13405" lon="-2.13137">
        <ele>961.557373046875</ele>
        <time>2019-12-09T17:02:51.788Z</time>
      </trkpt>
      <trkpt lat="40.13428" lon="-2.13139">
        <ele>964.82080078125</ele>
        <time>2019-12-09T17:02:55.489Z</time>
      </trkpt>
      <trkpt lat="40.1344" lon="-2.13145">
        <ele>966.404541015625</ele>
        <time>2019-12-09T17:02:59.192Z</time>
      </trkpt>
      <trkpt lat="40.13474" lon="-2.13157">
        <ele>972.5830688476562</ele>
        <time>2019-12-09T17:03:02.902Z</time>
      </trkpt>
      <trkpt lat="40.13491" lon="-2.13162">
        <ele>976.5297241210938</ele>
        <time>2019-12-09T17:03:06.616Z</time>
      </trkpt>
      <trkpt lat="40.13523" lon="-2.13204">
        <ele>979.7105102539062</ele>
        <time>2019-12-09T17:03:10.339Z</time>
      </trkpt>
      <trkpt lat="40.13534" lon="-2.13222">
        <ele>979.2305908203125</ele>
        <time>2019-12-09T17:03:14.065Z</time>
      </trkpt>
      <trkpt lat="40.13546" lon="-2.1324">
        <ele>978.868896484375</ele>
        <time>2019-12-09T17:03:17.795Z</time>
      </trkpt>
      <trkpt lat="40.13573" lon="-2.13277">
        <ele>980.2423095703125</ele>
        <time>2019-12-09T17:03:21.533Z</time>
      </trkpt>
      <trkpt lat="40.13602" lon="-2.13307">
        <ele>982.4393310546875</ele>
        <time>2019-12-09T17:03:25.278Z</time>
      </trkpt>
      <trkpt lat="40.13649" lon="-2.13347">
        <ele>983.6615600585938</ele>
        <time>2019-12-09T17:03:29.034Z</time>
      </trkpt>
      <trkpt lat="40.13663" lon="-2.13354">
        <ele>983.4935913085938</ele>
        <time>2019-12-09T17:03:32.793Z</time>
      </trkpt>
      <trkpt lat="40.13675" lon="-2.13366">
        <ele>982.6296997070312</ele>
        <time>2019-12-09T17:03:36.555Z</time>
      </trkpt>
      <trkpt lat="40.13688" lon="-2.13395">
        <ele>979.774169921875</ele>
        <time>2019-12-09T17:03:40.322Z</time>
      </trkpt>
      <trkpt lat="40.13703" lon="-2.13411">
        <ele>978.5802612304688</ele>
        <time>2019-12-09T17:03:44.093Z</time>
      </trkpt>
      <trkpt lat="40.13703" lon="-2.13412">
        <ele>978.4722900390625</ele>
        <time>2019-12-09T17:03:47.865Z</time>
      </trkpt>
      <trkpt lat="40.1371" lon="-2.13417">
        <ele>978.4785766601562</ele>
        <time>2019-12-09T17:03:51.638Z</time>
      </trkpt>
      <trkpt lat="40.13723" lon="-2.13422">
        <ele>978.1729736328125</ele>
        <time>2019-12-09T17:03:55.414Z</time>
      </trkpt>
      <trkpt lat="40.13734" lon="-2.13424">
        <ele>978.0289916992188</ele>
        <time>2019-12-09T17:03:59.192Z</time>
      </trkpt>
      <trkpt lat="40.13745" lon="-2.13423">
        <ele>978.1009521484375</ele>
        <time>2019-12-09T17:04:02.972Z</time>
      </trkpt>
      <trkpt lat="40.13764" lon="-2.13417">
        <ele>978.5328979492188</ele>
        <time>2019-12-09T17:04:06.756Z</time>
      </trkpt>
      <trkpt lat="40.13795" lon="-2.13424">
        <ele>977.7584838867188</ele>
        <time>2019-12-09T17:04:10.546Z</time>
      </trkpt>
      <trkpt lat="40.1381" lon="-2.13422">
        <ele>976.3067626953125</ele>
        <time>2019-12-09T17:04:14.339Z</time>
      </trkpt>
      <trkpt lat="40.13844" lon="-2.13424">
        <ele>972.4674072265625</ele>
        <time>2019-12-09T17:04:18.139Z</time>
      </trkpt>
      <trkpt lat="40.13844251633" lon="-2.13423371315">
        <ele>972.4930419921875</ele>
        <time>2019-12-09T17:04:21.939Z</time>
      </trkpt>
      <trkpt lat="40.13857126236" lon="-2.13399767876">
        <ele>972.8273315429688</ele>
        <time>2019-12-09T17:04:25.744Z</time>
      </trkpt>
      <trkpt lat="40.13875918463" lon="-2.1338758897">
        <ele>971.5287475585938</ele>
        <time>2019-12-09T17:04:29.553Z</time>
      </trkpt>
      <trkpt lat="40.13876077719" lon="-2.13387966156">
        <ele>971.4889526367188</ele>
        <time>2019-12-09T17:04:33.362Z</time>
      </trkpt>
      <trkpt lat="40.13875918463" lon="-2.1338758897">
        <ele>971.5287475585938</ele>
        <time>2019-12-09T17:04:37.171Z</time>
      </trkpt>
      <trkpt lat="40.13896822929" lon="-2.13374018669">
        <ele>970.7867431640625</ele>
        <time>2019-12-09T17:04:40.985Z</time>
      </trkpt>
      <trkpt lat="40.13898122124" lon="-2.13374035433">
        <ele>970.6921997070312</ele>
        <time>2019-12-09T17:04:44.799Z</time>
      </trkpt>
      <trkpt lat="40.13898152415" lon="-2.13373194857">
        <ele>970.740478515625</ele>
        <time>2019-12-09T17:04:48.613Z</time>
      </trkpt>
      <trkpt lat="40.13878000214" lon="-2.13306499805">
        <ele>977.6876831054688</ele>
        <time>2019-12-09T17:04:52.438Z</time>
      </trkpt>
      <trkpt lat="40.13857" lon="-2.13237">
        <ele>987.14111328125</ele>
        <time>2019-12-09T17:04:56.275Z</time>
      </trkpt>
      <trkpt lat="40.13837" lon="-2.13159">
        <ele>991.6250610351562</ele>
        <time>2019-12-09T17:05:00.124Z</time>
      </trkpt>
      <trkpt lat="40.13832000181" lon="-2.13093999942">
        <ele>996.8995361328125</ele>
        <time>2019-12-09T17:05:03.983Z</time>
      </trkpt>
      <trkpt lat="40.13827" lon="-2.13029">
        <ele>1001.0416259765625</ele>
        <time>2019-12-09T17:05:07.852Z</time>
      </trkpt>
      <trkpt lat="40.13837" lon="-2.12948">
        <ele>1003.33349609375</ele>
        <time>2019-12-09T17:05:11.734Z</time>
      </trkpt>
      <trkpt lat="40.1381" lon="-2.12851">
        <ele>1015.6293334960938</ele>
        <time>2019-12-09T17:05:15.632Z</time>
      </trkpt>
      <trkpt lat="40.1376" lon="-2.1283">
        <ele>1024.2855224609375</ele>
        <time>2019-12-09T17:05:19.540Z</time>
      </trkpt>
      <trkpt lat="40.13709" lon="-2.12775">
        <ele>1033.7294921875</ele>
        <time>2019-12-09T17:05:23.461Z</time>
      </trkpt>
      <trkpt lat="40.13689" lon="-2.12735">
        <ele>1036.624267578125</ele>
        <time>2019-12-09T17:05:27.390Z</time>
      </trkpt>
      <trkpt lat="40.13683" lon="-2.12721">
        <ele>1036.9361572265625</ele>
        <time>2019-12-09T17:05:31.321Z</time>
      </trkpt>
      <trkpt lat="40.13665" lon="-2.12664">
        <ele>1040.0692138671875</ele>
        <time>2019-12-09T17:05:35.262Z</time>
      </trkpt>
      <trkpt lat="40.13636" lon="-2.12568">
        <ele>1041.4219970703125</ele>
        <time>2019-12-09T17:05:39.219Z</time>
      </trkpt>
      <trkpt lat="40.13618" lon="-2.12466">
        <ele>1037.8924560546875</ele>
        <time>2019-12-09T17:05:43.192Z</time>
      </trkpt>
      <trkpt lat="40.13615" lon="-2.12449">
        <ele>1036.7286376953125</ele>
        <time>2019-12-09T17:05:47.167Z</time>
      </trkpt>
      <trkpt lat="40.13609" lon="-2.12388">
        <ele>1033.6595458984375</ele>
        <time>2019-12-09T17:05:51.152Z</time>
      </trkpt>
      <trkpt lat="40.13604" lon="-2.12371">
        <ele>1032.6397705078125</ele>
        <time>2019-12-09T17:05:55.139Z</time>
      </trkpt>
      <trkpt lat="40.13603" lon="-2.12337">
        <ele>1031.1146240234375</ele>
        <time>2019-12-09T17:05:59.132Z</time>
      </trkpt>
      <trkpt lat="40.137783" lon="-2.117620000000025">
        <ele>1052.8533935546875</ele>
        <time>2019-12-09T16:36:56.000Z</time>
      </trkpt>
      <trkpt lat="40.137799" lon="-2.117615">
        <ele>1052.9842529296875</ele>
        <time>2019-12-09T16:36:56.000Z</time>
      </trkpt>
      <trkpt lat="40.137815" lon="-2.117624">
        <ele>1053.2325439453125</ele>
        <time>2019-12-09T16:36:56.001Z</time>
      </trkpt>
      <trkpt lat="40.137816" lon="-2.117624">
        <ele>1053.243408203125</ele>
        <time>2019-12-09T16:36:56.002Z</time>
      </trkpt>
      <trkpt lat="40.137816" lon="-2.117622">
        <ele>1053.2265625</ele>
        <time>2019-12-09T16:36:56.003Z</time>
      </trkpt>
      <trkpt lat="40.13783" lon="-2.11761">
        <ele>1053.2769775390625</ele>
        <time>2019-12-09T16:36:56.004Z</time>
      </trkpt>
      <trkpt lat="40.137886" lon="-2.117536">
        <ele>1053.2601318359375</ele>
        <time>2019-12-09T16:36:56.007Z</time>
      </trkpt>
      <trkpt lat="40.137905" lon="-2.117491">
        <ele>1053.08740234375</ele>
        <time>2019-12-09T16:36:56.010Z</time>
      </trkpt>
      <trkpt lat="40.137961" lon="-2.117336">
        <ele>1052.799560546875</ele>
        <time>2019-12-09T16:36:56.016Z</time>
      </trkpt>
      <trkpt lat="40.138018" lon="-2.117159">
        <ele>1052.702392578125</ele>
        <time>2019-12-09T16:36:56.025Z</time>
      </trkpt>
      <trkpt lat="40.138043" lon="-2.116997">
        <ele>1052.2548828125</ele>
        <time>2019-12-09T16:36:56.037Z</time>
      </trkpt>
      <trkpt lat="40.138052" lon="-2.116864">
        <ele>1051.7353515625</ele>
        <time>2019-12-09T16:36:56.051Z</time>
      </trkpt>
      <trkpt lat="40.138059" lon="-2.116752">
        <ele>1051.290283203125</ele>
        <time>2019-12-09T16:36:56.066Z</time>
      </trkpt>
      <trkpt lat="40.138058" lon="-2.116624">
        <ele>1050.6627197265625</ele>
        <time>2019-12-09T16:36:56.083Z</time>
      </trkpt>
      <trkpt lat="40.138031" lon="-2.116477">
        <ele>1050.570556640625</ele>
        <time>2019-12-09T16:36:56.103Z</time>
      </trkpt>
      <trkpt lat="40.138032" lon="-2.116411">
        <ele>1050.665283203125</ele>
        <time>2019-12-09T16:36:56.124Z</time>
      </trkpt>
      <trkpt lat="40.138041" lon="-2.116351">
        <ele>1050.877685546875</ele>
        <time>2019-12-09T16:36:56.146Z</time>
      </trkpt>
      <trkpt lat="40.138049" lon="-2.116287">
        <ele>1051.0792236328125</ele>
        <time>2019-12-09T16:36:56.169Z</time>
      </trkpt>
      <trkpt lat="40.13805" lon="-2.116224">
        <ele>1051.17041015625</ele>
        <time>2019-12-09T16:36:56.193Z</time>
      </trkpt>
      <trkpt lat="40.138049" lon="-2.116162">
        <ele>1051.229248046875</ele>
        <time>2019-12-09T16:36:56.217Z</time>
      </trkpt>
      <trkpt lat="40.138032" lon="-2.116032">
        <ele>1051.1199951171875</ele>
        <time>2019-12-09T16:36:56.243Z</time>
      </trkpt>
      <trkpt lat="40.138002" lon="-2.115992">
        <ele>1050.7000732421875</ele>
        <time>2019-12-09T16:36:56.270Z</time>
      </trkpt>
      <trkpt lat="40.137981" lon="-2.116003">
        <ele>1050.359375</ele>
        <time>2019-12-09T16:36:56.298Z</time>
      </trkpt>
      <trkpt lat="40.13797" lon="-2.116049">
        <ele>1050.132568359375</ele>
        <time>2019-12-09T16:36:56.327Z</time>
      </trkpt>
      <trkpt lat="40.137914" lon="-2.116291">
        <ele>1048.781982421875</ele>
        <time>2019-12-09T16:36:56.359Z</time>
      </trkpt>
      <trkpt lat="40.137823" lon="-2.116461">
        <ele>1046.503662109375</ele>
        <time>2019-12-09T16:36:56.395Z</time>
      </trkpt>
      <trkpt lat="40.137782" lon="-2.116544">
        <ele>1045.4693603515625</ele>
        <time>2019-12-09T16:36:56.432Z</time>
      </trkpt>
      <trkpt lat="40.137744" lon="-2.116609">
        <ele>1044.5986328125</ele>
        <time>2019-12-09T16:36:56.470Z</time>
      </trkpt>
      <trkpt lat="40.137686" lon="-2.116663">
        <ele>1043.7947998046875</ele>
        <time>2019-12-09T16:36:56.510Z</time>
      </trkpt>
      <trkpt lat="40.137665" lon="-2.116638">
        <ele>1043.0760498046875</ele>
        <time>2019-12-09T16:36:56.550Z</time>
      </trkpt>
      <trkpt lat="40.13765" lon="-2.116592">
        <ele>1042.4027099609375</ele>
        <time>2019-12-09T16:36:56.591Z</time>
      </trkpt>
      <trkpt lat="40.13765" lon="-2.116528">
        <ele>1042.4794921875</ele>
        <time>2019-12-09T16:36:56.633Z</time>
      </trkpt>
      <trkpt lat="40.137657" lon="-2.1164519999999998">
        <ele>1042.730224609375</ele>
        <time>2019-12-09T16:36:56.676Z</time>
      </trkpt>
      <trkpt lat="40.137646" lon="-2.116276">
        <ele>1042.690673828125</ele>
        <time>2019-12-09T16:36:56.722Z</time>
      </trkpt>
      <trkpt lat="40.137614" lon="-2.116225">
        <ele>1042.0223388671875</ele>
        <time>2019-12-09T16:36:56.769Z</time>
      </trkpt>
      <trkpt lat="40.137575" lon="-2.116188">
        <ele>1041.177734375</ele>
        <time>2019-12-09T16:36:56.817Z</time>
      </trkpt>
      <trkpt lat="40.137468" lon="-2.116153">
        <ele>1038.5701904296875</ele>
        <time>2019-12-09T16:36:56.867Z</time>
      </trkpt>
      <trkpt lat="40.137413" lon="-2.116164">
        <ele>1037.1976318359375</ele>
        <time>2019-12-09T16:36:56.918Z</time>
      </trkpt>
      <trkpt lat="40.137367" lon="-2.116154">
        <ele>1036.026611328125</ele>
        <time>2019-12-09T16:36:56.970Z</time>
      </trkpt>
      <trkpt lat="40.137343" lon="-2.116098">
        <ele>1035.354736328125</ele>
        <time>2019-12-09T16:36:57.023Z</time>
      </trkpt>
      <trkpt lat="40.137336" lon="-2.11602">
        <ele>1035.084716796875</ele>
        <time>2019-12-09T16:36:57.077Z</time>
      </trkpt>
      <trkpt lat="40.137313" lon="-2.115824">
        <ele>1034.27001953125</ele>
        <time>2019-12-09T16:36:57.134Z</time>
      </trkpt>
      <trkpt lat="40.13728" lon="-2.115672">
        <ele>1033.48828125</ele>
        <time>2019-12-09T16:36:57.194Z</time>
      </trkpt>
      <trkpt lat="40.137283" lon="-2.11561">
        <ele>1033.6383056640625</ele>
        <time>2019-12-09T16:36:57.255Z</time>
      </trkpt>
      <trkpt lat="40.137294" lon="-2.115544">
        <ele>1033.99462890625</ele>
        <time>2019-12-09T16:36:57.317Z</time>
      </trkpt>
      <trkpt lat="40.137273" lon="-2.115509">
        <ele>1033.507568359375</ele>
        <time>2019-12-09T16:36:57.380Z</time>
      </trkpt>
      <trkpt lat="40.137234" lon="-2.115507">
        <ele>1032.52734375</ele>
        <time>2019-12-09T16:36:57.443Z</time>
      </trkpt>
      <trkpt lat="40.137185" lon="-2.115534">
        <ele>1031.26025390625</ele>
        <time>2019-12-09T16:36:57.507Z</time>
      </trkpt>
      <trkpt lat="40.137084" lon="-2.115601">
        <ele>1028.7698974609375</ele>
        <time>2019-12-09T16:36:57.574Z</time>
      </trkpt>
      <trkpt lat="40.137036" lon="-2.115606">
        <ele>1027.842529296875</ele>
        <time>2019-12-09T16:36:57.642Z</time>
      </trkpt>
      <trkpt lat="40.136981" lon="-2.115615">
        <ele>1026.77587890625</ele>
        <time>2019-12-09T16:36:57.711Z</time>
      </trkpt>
      <trkpt lat="40.136918" lon="-2.115637">
        <ele>1025.5400390625</ele>
        <time>2019-12-09T16:36:57.781Z</time>
      </trkpt>
      <trkpt lat="40.136862" lon="-2.115662">
        <ele>1024.43505859375</ele>
        <time>2019-12-09T16:36:57.852Z</time>
      </trkpt>
      <trkpt lat="40.136797" lon="-2.115681">
        <ele>1023.1644287109375</ele>
        <time>2019-12-09T16:36:57.925Z</time>
      </trkpt>
      <trkpt lat="40.136754" lon="-2.115693">
        <ele>1022.3245849609375</ele>
        <time>2019-12-09T16:36:57.998Z</time>
      </trkpt>
      <trkpt lat="40.136724" lon="-2.115687">
        <ele>1021.7559204101562</ele>
        <time>2019-12-09T16:36:58.072Z</time>
      </trkpt>
      <trkpt lat="40.136692" lon="-2.115677">
        <ele>1021.153564453125</ele>
        <time>2019-12-09T16:36:58.147Z</time>
      </trkpt>
      <trkpt lat="40.136643" lon="-2.115659">
        <ele>1020.2345581054688</ele>
        <time>2019-12-09T16:36:58.223Z</time>
      </trkpt>
      <trkpt lat="40.136594" lon="-2.115658">
        <ele>1019.2951049804688</ele>
        <time>2019-12-09T16:36:58.300Z</time>
      </trkpt>
      <trkpt lat="40.136551" lon="-2.115652">
        <ele>1018.4768676757812</ele>
        <time>2019-12-09T16:36:58.378Z</time>
      </trkpt>
      <trkpt lat="40.136505" lon="-2.115638">
        <ele>1017.610595703125</ele>
        <time>2019-12-09T16:36:58.456Z</time>
      </trkpt>
      <trkpt lat="40.136453" lon="-2.115601">
        <ele>1016.65673828125</ele>
        <time>2019-12-09T16:36:58.536Z</time>
      </trkpt>
      <trkpt lat="40.136391" lon="-2.115564">
        <ele>1014.5745239257812</ele>
        <time>2019-12-09T16:36:58.617Z</time>
      </trkpt>
      <trkpt lat="40.1362482045236" lon="-2.11548111870918">
        <ele>1009.822998046875</ele>
        <time>2019-12-09T16:36:58.701Z</time>
      </trkpt>
      <trkpt lat="40.13624805431853" lon="-2.1154810315274792">
        <ele>1009.8196411132812</ele>
        <time>2019-12-09T16:36:58.785Z</time>
      </trkpt>
      <trkpt lat="40.136248" lon="-2.115481">
        <ele>1009.8184204101562</ele>
        <time>2019-12-09T16:36:58.869Z</time>
      </trkpt>
      <trkpt lat="40.136166" lon="-2.115451">
        <ele>1008.1531372070312</ele>
        <time>2019-12-09T16:36:58.955Z</time>
      </trkpt>
      <trkpt lat="40.136067" lon="-2.1154">
        <ele>1006.0006713867188</ele>
        <time>2019-12-09T16:36:59.043Z</time>
      </trkpt>
      <trkpt lat="40.135985" lon="-2.115382">
        <ele>1004.4505615234375</ele>
        <time>2019-12-09T16:36:59.133Z</time>
      </trkpt>
      <trkpt lat="40.135895" lon="-2.115368">
        <ele>1002.804443359375</ele>
        <time>2019-12-09T16:36:59.224Z</time>
      </trkpt>
      <trkpt lat="40.135816" lon="-2.115368">
        <ele>1001.53564453125</ele>
        <time>2019-12-09T16:36:59.317Z</time>
      </trkpt>
      <trkpt lat="40.135673" lon="-2.115407">
        <ele>999.7575073242188</ele>
        <time>2019-12-09T16:36:59.413Z</time>
      </trkpt>
      <trkpt lat="40.135613" lon="-2.11543">
        <ele>999.0592651367188</ele>
        <time>2019-12-09T16:36:59.510Z</time>
      </trkpt>
      <trkpt lat="40.13558" lon="-2.115459">
        <ele>998.7929077148438</ele>
        <time>2019-12-09T16:36:59.608Z</time>
      </trkpt>
      <trkpt lat="40.135544" lon="-2.115486">
        <ele>998.4689331054688</ele>
        <time>2019-12-09T16:36:59.707Z</time>
      </trkpt>
      <trkpt lat="40.135513" lon="-2.11552">
        <ele>998.2673950195312</ele>
        <time>2019-12-09T16:36:59.807Z</time>
      </trkpt>
      <trkpt lat="40.135423" lon="-2.115623">
        <ele>997.752685546875</ele>
        <time>2019-12-09T16:36:59.909Z</time>
      </trkpt>
      <trkpt lat="40.135357" lon="-2.115675">
        <ele>997.335205078125</ele>
        <time>2019-12-09T16:37:00.013Z</time>
      </trkpt>
      <trkpt lat="40.135325" lon="-2.11571">
        <ele>997.2031860351562</ele>
        <time>2019-12-09T16:37:00.117Z</time>
      </trkpt>
      <trkpt lat="40.135304" lon="-2.115798">
        <ele>997.584716796875</ele>
        <time>2019-12-09T16:37:00.223Z</time>
      </trkpt>
      <trkpt lat="40.135333" lon="-2.115924">
        <ele>998.8397216796875</ele>
        <time>2019-12-09T16:37:00.331Z</time>
      </trkpt>
      <trkpt lat="40.135377" lon="-2.116027">
        <ele>1000.109130859375</ele>
        <time>2019-12-09T16:37:00.441Z</time>
      </trkpt>
      <trkpt lat="40.135388" lon="-2.116081">
        <ele>1000.6298217773438</ele>
        <time>2019-12-09T16:37:00.552Z</time>
      </trkpt>
      <trkpt lat="40.1354" lon="-2.116141">
        <ele>1001.2057495117188</ele>
        <time>2019-12-09T16:37:00.663Z</time>
      </trkpt>
      <trkpt lat="40.135406" lon="-2.116195">
        <ele>1001.6664428710938</ele>
        <time>2019-12-09T16:37:00.775Z</time>
      </trkpt>
      <trkpt lat="40.135386" lon="-2.116254">
        <ele>1001.8512573242188</ele>
        <time>2019-12-09T16:37:00.888Z</time>
      </trkpt>
      <trkpt lat="40.135363" lon="-2.116315">
        <ele>1002.014404296875</ele>
        <time>2019-12-09T16:37:01.002Z</time>
      </trkpt>
      <trkpt lat="40.135333" lon="-2.116372">
        <ele>1002.0648193359375</ele>
        <time>2019-12-09T16:37:01.117Z</time>
      </trkpt>
      <trkpt lat="40.135297" lon="-2.116405">
        <ele>1001.8704223632812</ele>
        <time>2019-12-09T16:37:01.233Z</time>
      </trkpt>
      <trkpt lat="40.135265" lon="-2.116419">
        <ele>1001.5872802734375</ele>
        <time>2019-12-09T16:37:01.350Z</time>
      </trkpt>
      <trkpt lat="40.135234" lon="-2.11647">
        <ele>1001.5824584960938</ele>
        <time>2019-12-09T16:37:01.468Z</time>
      </trkpt>
      <trkpt lat="40.135231" lon="-2.116499">
        <ele>1001.7552490234375</ele>
        <time>2019-12-09T16:37:01.586Z</time>
      </trkpt>
      <trkpt lat="40.135217" lon="-2.116576">
        <ele>1002.1416015625</ele>
        <time>2019-12-09T16:37:01.706Z</time>
      </trkpt>
      <trkpt lat="40.135197" lon="-2.116625">
        <ele>1002.4185180664062</ele>
        <time>2019-12-09T16:37:01.826Z</time>
      </trkpt>
      <trkpt lat="40.135175" lon="-2.116669">
        <ele>1002.7880249023438</ele>
        <time>2019-12-09T16:37:01.947Z</time>
      </trkpt>
      <trkpt lat="40.13514" lon="-2.116729">
        <ele>1003.2319946289062</ele>
        <time>2019-12-09T16:37:02.069Z</time>
      </trkpt>
      <trkpt lat="40.135128" lon="-2.116746">
        <ele>1003.332763671875</ele>
        <time>2019-12-09T16:37:02.192Z</time>
      </trkpt>
      <trkpt lat="40.135107" lon="-2.116763">
        <ele>1003.3255615234375</ele>
        <time>2019-12-09T16:37:02.315Z</time>
      </trkpt>
      <trkpt lat="40.135053" lon="-2.11678">
        <ele>1002.9224243164062</ele>
        <time>2019-12-09T16:37:02.439Z</time>
      </trkpt>
      <trkpt lat="40.135029" lon="-2.116781">
        <ele>1002.6488647460938</ele>
        <time>2019-12-09T16:37:02.564Z</time>
      </trkpt>
      <trkpt lat="40.134967" lon="-2.116808">
        <ele>1002.2937622070312</ele>
        <time>2019-12-09T16:37:02.690Z</time>
      </trkpt>
      <trkpt lat="40.134919" lon="-2.116838">
        <ele>1002.1497802734375</ele>
        <time>2019-12-09T16:37:02.817Z</time>
      </trkpt>
      <trkpt lat="40.134762" lon="-2.116925">
        <ele>1001.5186767578125</ele>
        <time>2019-12-09T16:37:02.948Z</time>
      </trkpt>
      <trkpt lat="40.134688" lon="-2.116944">
        <ele>1000.9043579101562</ele>
        <time>2019-12-09T16:37:03.080Z</time>
      </trkpt>
      <trkpt lat="40.13459" lon="-2.116966">
        <ele>1000.0260620117188</ele>
        <time>2019-12-09T16:37:03.214Z</time>
      </trkpt>
      <trkpt lat="40.134572" lon="-2.116984">
        <ele>1000.0476684570312</ele>
        <time>2019-12-09T16:37:03.349Z</time>
      </trkpt>
      <trkpt lat="40.134566" lon="-2.117004">
        <ele>1000.2564086914062</ele>
        <time>2019-12-09T16:37:03.484Z</time>
      </trkpt>
      <trkpt lat="40.134572" lon="-2.117044">
        <ele>1000.9114990234375</ele>
        <time>2019-12-09T16:37:03.620Z</time>
      </trkpt>
      <trkpt lat="40.134583" lon="-2.117066">
        <ele>1001.3734130859375</ele>
        <time>2019-12-09T16:37:03.756Z</time>
      </trkpt>
      <trkpt lat="40.13462" lon="-2.117126">
        <ele>1002.7088623046875</ele>
        <time>2019-12-09T16:37:03.893Z</time>
      </trkpt>
      <trkpt lat="40.13464" lon="-2.117154">
        <ele>1003.3519897460938</ele>
        <time>2019-12-09T16:37:04.031Z</time>
      </trkpt>
      <trkpt lat="40.134665" lon="-2.117183">
        <ele>1004.0694580078125</ele>
        <time>2019-12-09T16:37:04.169Z</time>
      </trkpt>
      <trkpt lat="40.134701" lon="-2.117218">
        <ele>1005.0053100585938</ele>
        <time>2019-12-09T16:37:04.308Z</time>
      </trkpt>
      <trkpt lat="40.13471" lon="-2.117237">
        <ele>1005.3868408203125</ele>
        <time>2019-12-09T16:37:04.448Z</time>
      </trkpt>
      <trkpt lat="40.134726" lon="-2.117254">
        <ele>1005.8235473632812</ele>
        <time>2019-12-09T16:37:04.588Z</time>
      </trkpt>
      <trkpt lat="40.134779" lon="-2.117263">
        <ele>1006.5903930664062</ele>
        <time>2019-12-09T16:37:04.729Z</time>
      </trkpt>
      <trkpt lat="40.134853" lon="-2.117311">
        <ele>1008.7548217773438</ele>
        <time>2019-12-09T16:37:04.872Z</time>
      </trkpt>
      <trkpt lat="40.134867" lon="-2.117325">
        <ele>1009.2587280273438</ele>
        <time>2019-12-09T16:37:05.015Z</time>
      </trkpt>
      <trkpt lat="40.134902" lon="-2.117372">
        <ele>1010.7489013671875</ele>
        <time>2019-12-09T16:37:05.159Z</time>
      </trkpt>
      <trkpt lat="40.134945" lon="-2.11744">
        <ele>1012.745361328125</ele>
        <time>2019-12-09T16:37:05.304Z</time>
      </trkpt>
      <trkpt lat="40.13495" lon="-2.117472">
        <ele>1013.2132568359375</ele>
        <time>2019-12-09T16:37:05.450Z</time>
      </trkpt>
      <trkpt lat="40.134893" lon="-2.117511">
        <ele>1012.7237548828125</ele>
        <time>2019-12-09T16:37:05.597Z</time>
      </trkpt>
      <trkpt lat="40.1348" lon="-2.117544">
        <ele>1011.5575561523438</ele>
        <time>2019-12-09T16:37:05.746Z</time>
      </trkpt>
      <trkpt lat="40.134744" lon="-2.117553">
        <ele>1010.7249145507812</ele>
        <time>2019-12-09T16:37:05.896Z</time>
      </trkpt>
      <trkpt lat="40.134683" lon="-2.117577">
        <ele>1009.9882202148438</ele>
        <time>2019-12-09T16:37:06.048Z</time>
      </trkpt>
      <trkpt lat="40.134617" lon="-2.11763">
        <ele>1009.5155029296875</ele>
        <time>2019-12-09T16:37:06.201Z</time>
      </trkpt>
      <trkpt lat="40.134558" lon="-2.117674">
        <ele>1008.9370727539062</ele>
        <time>2019-12-09T16:37:06.355Z</time>
      </trkpt>
      <trkpt lat="40.134492" lon="-2.117702">
        <ele>1008.0060424804688</ele>
        <time>2019-12-09T16:37:06.511Z</time>
      </trkpt>
      <trkpt lat="40.134428" lon="-2.117742">
        <ele>1007.25732421875</ele>
        <time>2019-12-09T16:37:06.668Z</time>
      </trkpt>
      <trkpt lat="40.134373" lon="-2.117777">
        <ele>1006.6214599609375</ele>
        <time>2019-12-09T16:37:06.827Z</time>
      </trkpt>
      <trkpt lat="40.134336" lon="-2.117815">
        <ele>1006.3670654296875</ele>
        <time>2019-12-09T16:37:06.986Z</time>
      </trkpt>
      <trkpt lat="40.134291" lon="-2.11784">
        <ele>1005.8031616210938</ele>
        <time>2019-12-09T16:37:07.146Z</time>
      </trkpt>
      <trkpt lat="40.134238" lon="-2.11786">
        <ele>1005.0256958007812</ele>
        <time>2019-12-09T16:37:07.308Z</time>
      </trkpt>
      <trkpt lat="40.134173" lon="-2.117857">
        <ele>1003.812255859375</ele>
        <time>2019-12-09T16:37:07.471Z</time>
      </trkpt>
      <trkpt lat="40.134107" lon="-2.117856">
        <ele>1002.9351806640625</ele>
        <time>2019-12-09T16:37:07.635Z</time>
      </trkpt>
      <trkpt lat="40.134035" lon="-2.117866">
        <ele>1002.044921875</ele>
        <time>2019-12-09T16:37:07.801Z</time>
      </trkpt>
      <trkpt lat="40.133966" lon="-2.11787">
        <ele>1001.1582641601562</ele>
        <time>2019-12-09T16:37:07.968Z</time>
      </trkpt>
      <trkpt lat="40.133819" lon="-2.117866">
        <ele>999.1942138671875</ele>
        <time>2019-12-09T16:37:08.138Z</time>
      </trkpt>
      <trkpt lat="40.13377" lon="-2.117853">
        <ele>998.4695434570312</ele>
        <time>2019-12-09T16:37:08.309Z</time>
      </trkpt>
      <trkpt lat="40.133723" lon="-2.11783">
        <ele>997.7112426757812</ele>
        <time>2019-12-09T16:37:08.481Z</time>
      </trkpt>
      <trkpt lat="40.133673" lon="-2.117808">
        <ele>996.9193725585938</ele>
        <time>2019-12-09T16:37:08.654Z</time>
      </trkpt>
      <trkpt lat="40.13362" lon="-2.117783">
        <ele>996.0699462890625</ele>
        <time>2019-12-09T16:37:08.828Z</time>
      </trkpt>
      <trkpt lat="40.133547" lon="-2.117762">
        <ele>994.9805297851562</ele>
        <time>2019-12-09T16:37:09.004Z</time>
      </trkpt>
      <trkpt lat="40.133478" lon="-2.117758">
        <ele>994.0458984375</ele>
        <time>2019-12-09T16:37:09.181Z</time>
      </trkpt>
      <trkpt lat="40.13342" lon="-2.117737">
        <ele>993.3388671875</ele>
        <time>2019-12-09T16:37:09.359Z</time>
      </trkpt>
      <trkpt lat="40.133362" lon="-2.117703">
        <ele>992.7005615234375</ele>
        <time>2019-12-09T16:37:09.538Z</time>
      </trkpt>
      <trkpt lat="40.1333" lon="-2.117686">
        <ele>992.064697265625</ele>
        <time>2019-12-09T16:37:09.719Z</time>
      </trkpt>
      <trkpt lat="40.133229" lon="-2.117684">
        <ele>991.37841796875</ele>
        <time>2019-12-09T16:37:09.901Z</time>
      </trkpt>
      <trkpt lat="40.133163" lon="-2.117679">
        <ele>990.73291015625</ele>
        <time>2019-12-09T16:37:10.084Z</time>
      </trkpt>
      <trkpt lat="40.133029" lon="-2.117631">
        <ele>989.33154296875</ele>
        <time>2019-12-09T16:37:10.270Z</time>
      </trkpt>
      <trkpt lat="40.132877" lon="-2.117561">
        <ele>987.4810791015625</ele>
        <time>2019-12-09T16:37:10.459Z</time>
      </trkpt>
      <trkpt lat="40.132751" lon="-2.117535">
        <ele>985.4362182617188</ele>
        <time>2019-12-09T16:37:10.651Z</time>
      </trkpt>
      <trkpt lat="40.132734" lon="-2.117543">
        <ele>985.1986694335938</ele>
        <time>2019-12-09T16:37:10.843Z</time>
      </trkpt>
      <trkpt lat="40.132726" lon="-2.117558">
        <ele>985.154296875</ele>
        <time>2019-12-09T16:37:11.036Z</time>
      </trkpt>
      <trkpt lat="40.132717" lon="-2.117707">
        <ele>985.7197875976562</ele>
        <time>2019-12-09T16:37:11.231Z</time>
      </trkpt>
      <trkpt lat="40.132698" lon="-2.117729">
        <ele>985.5217895507812</ele>
        <time>2019-12-09T16:37:11.426Z</time>
      </trkpt>
      <trkpt lat="40.132663" lon="-2.117714">
        <ele>985.0238647460938</ele>
        <time>2019-12-09T16:37:11.622Z</time>
      </trkpt>
      <trkpt lat="40.132611" lon="-2.117586">
        <ele>983.3905639648438</ele>
        <time>2019-12-09T16:37:11.820Z</time>
      </trkpt>
      <trkpt lat="40.132585" lon="-2.117534">
        <ele>982.6419067382812</ele>
        <time>2019-12-09T16:37:12.019Z</time>
      </trkpt>
      <trkpt lat="40.132539" lon="-2.117506">
        <ele>981.7012329101562</ele>
        <time>2019-12-09T16:37:12.219Z</time>
      </trkpt>
      <trkpt lat="40.132464" lon="-2.117503">
        <ele>980.4234619140625</ele>
        <time>2019-12-09T16:37:12.421Z</time>
      </trkpt>
      <trkpt lat="40.132364" lon="-2.117509">
        <ele>978.7797241210938</ele>
        <time>2019-12-09T16:37:12.625Z</time>
      </trkpt>
      <trkpt lat="40.132268" lon="-2.117563">
        <ele>977.4911499023438</ele>
        <time>2019-12-09T16:37:12.831Z</time>
      </trkpt>
      <trkpt lat="40.132234" lon="-2.117578">
        <ele>977.010009765625</ele>
        <time>2019-12-09T16:37:13.038Z</time>
      </trkpt>
      <trkpt lat="40.132213" lon="-2.117553">
        <ele>976.50732421875</ele>
        <time>2019-12-09T16:37:13.245Z</time>
      </trkpt>
      <trkpt lat="40.1322" lon="-2.117521">
        <ele>976.0969848632812</ele>
        <time>2019-12-09T16:37:13.453Z</time>
      </trkpt>
      <trkpt lat="40.132178" lon="-2.117321">
        <ele>975.3317260742188</ele>
        <time>2019-12-09T16:37:13.664Z</time>
      </trkpt>
      <trkpt lat="40.132182" lon="-2.117255">
        <ele>975.691650390625</ele>
        <time>2019-12-09T16:37:13.876Z</time>
      </trkpt>
      <trkpt lat="40.132168" lon="-2.117245">
        <ele>975.5885009765625</ele>
        <time>2019-12-09T16:37:14.088Z</time>
      </trkpt>
      <trkpt lat="40.132131" lon="-2.117237">
        <ele>975.2273559570312</ele>
        <time>2019-12-09T16:37:14.301Z</time>
      </trkpt>
      <trkpt lat="40.132085" lon="-2.117249">
        <ele>974.747314453125</ele>
        <time>2019-12-09T16:37:14.515Z</time>
      </trkpt>
      <trkpt lat="40.132049" lon="-2.117265">
        <ele>974.411376953125</ele>
        <time>2019-12-09T16:37:14.730Z</time>
      </trkpt>
      <trkpt lat="40.13201" lon="-2.117245">
        <ele>974.2266235351562</ele>
        <time>2019-12-09T16:37:14.946Z</time>
      </trkpt>
      <trkpt lat="40.132009" lon="-2.117213">
        <ele>974.3729858398438</ele>
        <time>2019-12-09T16:37:15.162Z</time>
      </trkpt>
      <trkpt lat="40.132061" lon="-2.11712">
        <ele>975.1936645507812</ele>
        <time>2019-12-09T16:37:15.380Z</time>
      </trkpt>
      <trkpt lat="40.132086" lon="-2.117089">
        <ele>975.5223999023438</ele>
        <time>2019-12-09T16:37:15.598Z</time>
      </trkpt>
      <trkpt lat="40.132102" lon="-2.117077">
        <ele>975.6951293945312</ele>
        <time>2019-12-09T16:37:15.817Z</time>
      </trkpt>
      <trkpt lat="40.13214" lon="-2.117061">
        <ele>976.169189453125</ele>
        <time>2019-12-09T16:37:16.037Z</time>
      </trkpt>
      <trkpt lat="40.132213" lon="-2.117078">
        <ele>976.8758544921875</ele>
        <time>2019-12-09T16:37:16.258Z</time>
      </trkpt>
      <trkpt lat="40.132255" lon="-2.117117">
        <ele>977.1422119140625</ele>
        <time>2019-12-09T16:37:16.480Z</time>
      </trkpt>
      <trkpt lat="40.132289" lon="-2.117157">
        <ele>977.3173828125</ele>
        <time>2019-12-09T16:37:16.703Z</time>
      </trkpt>
      <trkpt lat="40.132302" lon="-2.117174">
        <ele>977.376220703125</ele>
        <time>2019-12-09T16:37:16.926Z</time>
      </trkpt>
      <trkpt lat="40.132341" lon="-2.117223">
        <ele>977.6983032226562</ele>
        <time>2019-12-09T16:37:17.151Z</time>
      </trkpt>
      <trkpt lat="40.132365" lon="-2.117228">
        <ele>978.107421875</ele>
        <time>2019-12-09T16:37:17.376Z</time>
      </trkpt>
      <trkpt lat="40.132384" lon="-2.117221">
        <ele>978.418212890625</ele>
        <time>2019-12-09T16:37:17.601Z</time>
      </trkpt>
      <trkpt lat="40.132402" lon="-2.117205">
        <ele>978.7013549804688</ele>
        <time>2019-12-09T16:37:17.827Z</time>
      </trkpt>
      <trkpt lat="40.132486" lon="-2.117122">
        <ele>980.0127563476562</ele>
        <time>2019-12-09T16:37:18.055Z</time>
      </trkpt>
      <trkpt lat="40.132529" lon="-2.117059">
        <ele>980.659423828125</ele>
        <time>2019-12-09T16:37:18.284Z</time>
      </trkpt>
      <trkpt lat="40.132578" lon="-2.117029">
        <ele>981.4464721679688</ele>
        <time>2019-12-09T16:37:18.514Z</time>
      </trkpt>
      <trkpt lat="40.132596" lon="-2.117026">
        <ele>981.7452392578125</ele>
        <time>2019-12-09T16:37:18.745Z</time>
      </trkpt>
      <trkpt lat="40.132617" lon="-2.11703">
        <ele>982.102783203125</ele>
        <time>2019-12-09T16:37:18.976Z</time>
      </trkpt>
      <trkpt lat="40.132665" lon="-2.117065">
        <ele>982.9510498046875</ele>
        <time>2019-12-09T16:37:19.208Z</time>
      </trkpt>
      <trkpt lat="40.132674" lon="-2.117087">
        <ele>983.1286010742188</ele>
        <time>2019-12-09T16:37:19.441Z</time>
      </trkpt>
      <trkpt lat="40.132676" lon="-2.117127">
        <ele>983.210205078125</ele>
        <time>2019-12-09T16:37:19.674Z</time>
      </trkpt>
      <trkpt lat="40.132667" lon="-2.117184">
        <ele>983.12744140625</ele>
        <time>2019-12-09T16:37:19.908Z</time>
      </trkpt>
      <trkpt lat="40.132645" lon="-2.117313">
        <ele>982.9126586914062</ele>
        <time>2019-12-09T16:37:20.144Z</time>
      </trkpt>
      <trkpt lat="40.132656" lon="-2.117342">
        <ele>983.1322021484375</ele>
        <time>2019-12-09T16:37:20.381Z</time>
      </trkpt>
      <trkpt lat="40.132707" lon="-2.117367">
        <ele>984.0188598632812</ele>
        <time>2019-12-09T16:37:20.619Z</time>
      </trkpt>
      <trkpt lat="40.13273" lon="-2.117366">
        <ele>984.4039916992188</ele>
        <time>2019-12-09T16:37:20.857Z</time>
      </trkpt>
      <trkpt lat="40.132813" lon="-2.117306">
        <ele>985.7261962890625</ele>
        <time>2019-12-09T16:37:21.097Z</time>
      </trkpt>
      <trkpt lat="40.132817" lon="-2.117286">
        <ele>985.7693481445312</ele>
        <time>2019-12-09T16:37:21.337Z</time>
      </trkpt>
      <trkpt lat="40.132826" lon="-2.117256">
        <ele>985.8845825195312</ele>
        <time>2019-12-09T16:37:21.578Z</time>
      </trkpt>
      <trkpt lat="40.132833" lon="-2.117246">
        <ele>985.9901123046875</ele>
        <time>2019-12-09T16:37:21.819Z</time>
      </trkpt>
      <trkpt lat="40.132843" lon="-2.117241">
        <ele>986.152099609375</ele>
        <time>2019-12-09T16:37:22.060Z</time>
      </trkpt>
      <trkpt lat="40.132869" lon="-2.11722">
        <ele>986.5636596679688</ele>
        <time>2019-12-09T16:37:22.302Z</time>
      </trkpt>
      <trkpt lat="40.132887" lon="-2.117193">
        <ele>986.8336181640625</ele>
        <time>2019-12-09T16:37:22.544Z</time>
      </trkpt>
      <trkpt lat="40.132898" lon="-2.117183">
        <ele>987.00634765625</ele>
        <time>2019-12-09T16:37:22.787Z</time>
      </trkpt>
      <trkpt lat="40.132912" lon="-2.117182">
        <ele>987.2403564453125</ele>
        <time>2019-12-09T16:37:23.030Z</time>
      </trkpt>
      <trkpt lat="40.132949" lon="-2.117225">
        <ele>987.8065795898438</ele>
        <time>2019-12-09T16:37:23.274Z</time>
      </trkpt>
      <trkpt lat="40.132963" lon="-2.117238">
        <ele>987.9061889648438</ele>
        <time>2019-12-09T16:37:23.518Z</time>
      </trkpt>
      <trkpt lat="40.132985" lon="-2.117241">
        <ele>988.041748046875</ele>
        <time>2019-12-09T16:37:23.763Z</time>
      </trkpt>
      <trkpt lat="40.132989" lon="-2.11723">
        <ele>988.0525512695312</ele>
        <time>2019-12-09T16:37:24.008Z</time>
      </trkpt>
      <trkpt lat="40.132986" lon="-2.117213">
        <ele>988.01416015625</ele>
        <time>2019-12-09T16:37:24.253Z</time>
      </trkpt>
      <trkpt lat="40.132976" lon="-2.117192">
        <ele>987.928955078125</ele>
        <time>2019-12-09T16:37:24.499Z</time>
      </trkpt>
      <trkpt lat="40.132972" lon="-2.117168">
        <ele>987.8761596679688</ele>
        <time>2019-12-09T16:37:24.745Z</time>
      </trkpt>
      <trkpt lat="40.132971" lon="-2.117141">
        <ele>987.8377685546875</ele>
        <time>2019-12-09T16:37:24.991Z</time>
      </trkpt>
      <trkpt lat="40.13298" lon="-2.117119">
        <ele>987.8653564453125</ele>
        <time>2019-12-09T16:37:25.238Z</time>
      </trkpt>
      <trkpt lat="40.133036" lon="-2.117117">
        <ele>988.1989135742188</ele>
        <time>2019-12-09T16:37:25.486Z</time>
      </trkpt>
      <trkpt lat="40.133071" lon="-2.117113">
        <ele>988.4041137695312</ele>
        <time>2019-12-09T16:37:25.735Z</time>
      </trkpt>
      <trkpt lat="40.133084" lon="-2.117094">
        <ele>988.4592895507812</ele>
        <time>2019-12-09T16:37:25.984Z</time>
      </trkpt>
      <trkpt lat="40.133114" lon="-2.117052">
        <ele>988.5888671875</ele>
        <time>2019-12-09T16:37:26.234Z</time>
      </trkpt>
      <trkpt lat="40.133163" lon="-2.117015">
        <ele>988.8384399414062</ele>
        <time>2019-12-09T16:37:26.485Z</time>
      </trkpt>
      <trkpt lat="40.133195" lon="-2.116964">
        <ele>988.9691772460938</ele>
        <time>2019-12-09T16:37:26.737Z</time>
      </trkpt>
      <trkpt lat="40.133194" lon="-2.116902">
        <ele>988.8887939453125</ele>
        <time>2019-12-09T16:37:26.990Z</time>
      </trkpt>
      <trkpt lat="40.133147" lon="-2.116833">
        <ele>988.5240478515625</ele>
        <time>2019-12-09T16:37:27.244Z</time>
      </trkpt>
      <trkpt lat="40.13308" lon="-2.116757">
        <ele>988.0309448242188</ele>
        <time>2019-12-09T16:37:27.500Z</time>
      </trkpt>
      <trkpt lat="40.133045" lon="-2.116724">
        <ele>987.7813720703125</ele>
        <time>2019-12-09T16:37:27.757Z</time>
      </trkpt>
      <trkpt lat="40.133004" lon="-2.116708">
        <ele>987.5162353515625</ele>
        <time>2019-12-09T16:37:28.015Z</time>
      </trkpt>
      <trkpt lat="40.132966" lon="-2.116703">
        <ele>987.2822875976562</ele>
        <time>2019-12-09T16:37:28.274Z</time>
      </trkpt>
      <trkpt lat="40.132897" lon="-2.116659">
        <ele>986.3609008789062</ele>
        <time>2019-12-09T16:37:28.534Z</time>
      </trkpt>
      <trkpt lat="40.132857" lon="-2.116667">
        <ele>985.8023681640625</ele>
        <time>2019-12-09T16:37:28.795Z</time>
      </trkpt>
      <trkpt lat="40.132789" lon="-2.116702">
        <ele>984.900146484375</ele>
        <time>2019-12-09T16:37:29.057Z</time>
      </trkpt>
      <trkpt lat="40.132735" lon="-2.116722">
        <ele>984.2210693359375</ele>
        <time>2019-12-09T16:37:29.321Z</time>
      </trkpt>
      <trkpt lat="40.132624" lon="-2.116828">
        <ele>982.5137329101562</ele>
        <time>2019-12-09T16:37:29.587Z</time>
      </trkpt>
      <trkpt lat="40.132511" lon="-2.116849">
        <ele>981.1927490234375</ele>
        <time>2019-12-09T16:37:29.856Z</time>
      </trkpt>
      <trkpt lat="40.132458" lon="-2.116849">
        <ele>980.6204833984375</ele>
        <time>2019-12-09T16:37:30.126Z</time>
      </trkpt>
      <trkpt lat="40.132408" lon="-2.116845">
        <ele>980.0997314453125</ele>
        <time>2019-12-09T16:37:30.397Z</time>
      </trkpt>
      <trkpt lat="40.132362" lon="-2.116827">
        <ele>979.6893920898438</ele>
        <time>2019-12-09T16:37:30.669Z</time>
      </trkpt>
      <trkpt lat="40.1323" lon="-2.116734">
        <ele>979.4662475585938</ele>
        <time>2019-12-09T16:37:30.943Z</time>
      </trkpt>
      <trkpt lat="40.132264" lon="-2.116708">
        <ele>979.2022705078125</ele>
        <time>2019-12-09T16:37:31.217Z</time>
      </trkpt>
      <trkpt lat="40.132234" lon="-2.116718">
        <ele>978.830322265625</ele>
        <time>2019-12-09T16:37:31.492Z</time>
      </trkpt>
      <trkpt lat="40.132163" lon="-2.116778">
        <ele>977.7757568359375</ele>
        <time>2019-12-09T16:37:31.769Z</time>
      </trkpt>
      <trkpt lat="40.132071" lon="-2.116851">
        <ele>976.556640625</ele>
        <time>2019-12-09T16:37:32.048Z</time>
      </trkpt>
      <trkpt lat="40.132023" lon="-2.116887">
        <ele>976.038330078125</ele>
        <time>2019-12-09T16:37:32.328Z</time>
      </trkpt>
      <trkpt lat="40.131986" lon="-2.116956">
        <ele>975.4407958984375</ele>
        <time>2019-12-09T16:37:32.609Z</time>
      </trkpt>
      <trkpt lat="40.131959" lon="-2.117026">
        <ele>974.9104614257812</ele>
        <time>2019-12-09T16:37:32.891Z</time>
      </trkpt>
      <trkpt lat="40.131938" lon="-2.117104">
        <ele>974.3849487304688</ele>
        <time>2019-12-09T16:37:33.175Z</time>
      </trkpt>
      <trkpt lat="40.131927" lon="-2.117241">
        <ele>973.6483154296875</ele>
        <time>2019-12-09T16:37:33.461Z</time>
      </trkpt>
      <trkpt lat="40.131923" lon="-2.117302">
        <ele>973.3267822265625</ele>
        <time>2019-12-09T16:37:33.748Z</time>
      </trkpt>
      <trkpt lat="40.131909" lon="-2.11737">
        <ele>972.8995971679688</ele>
        <time>2019-12-09T16:37:34.036Z</time>
      </trkpt>
      <trkpt lat="40.131898" lon="-2.117509">
        <ele>972.5053100585938</ele>
        <time>2019-12-09T16:37:34.326Z</time>
      </trkpt>
      <trkpt lat="40.131903" lon="-2.117576">
        <ele>972.541259765625</ele>
        <time>2019-12-09T16:37:34.617Z</time>
      </trkpt>
      <trkpt lat="40.131947" lon="-2.117742">
        <ele>973.7440795898438</ele>
        <time>2019-12-09T16:37:34.911Z</time>
      </trkpt>
      <trkpt lat="40.132053" lon="-2.117834">
        <ele>975.6949462890625</ele>
        <time>2019-12-09T16:37:35.207Z</time>
      </trkpt>
      <trkpt lat="40.132113" lon="-2.117882">
        <ele>976.80126953125</ele>
        <time>2019-12-09T16:37:35.505Z</time>
      </trkpt>
      <trkpt lat="40.132157" lon="-2.117903">
        <ele>977.6663208007812</ele>
        <time>2019-12-09T16:37:35.804Z</time>
      </trkpt>
      <trkpt lat="40.132181" lon="-2.11791">
        <ele>978.1114501953125</ele>
        <time>2019-12-09T16:37:36.103Z</time>
      </trkpt>
      <trkpt lat="40.132218" lon="-2.117931">
        <ele>978.85888671875</ele>
        <time>2019-12-09T16:37:36.403Z</time>
      </trkpt>
      <trkpt lat="40.132259" lon="-2.117954">
        <ele>979.6856079101562</ele>
        <time>2019-12-09T16:37:36.704Z</time>
      </trkpt>
      <trkpt lat="40.132321" lon="-2.117991">
        <ele>980.948974609375</ele>
        <time>2019-12-09T16:37:37.006Z</time>
      </trkpt>
      <trkpt lat="40.132377" lon="-2.118026">
        <ele>981.9979858398438</ele>
        <time>2019-12-09T16:37:37.309Z</time>
      </trkpt>
      <trkpt lat="40.132427" lon="-2.118057">
        <ele>982.7322387695312</ele>
        <time>2019-12-09T16:37:37.613Z</time>
      </trkpt>
      <trkpt lat="40.132462" lon="-2.118085">
        <ele>983.2613525390625</ele>
        <time>2019-12-09T16:37:37.918Z</time>
      </trkpt>
      <trkpt lat="40.132488" lon="-2.118107">
        <ele>983.6572875976562</ele>
        <time>2019-12-09T16:37:38.224Z</time>
      </trkpt>
      <trkpt lat="40.132539" lon="-2.118172">
        <ele>984.4863891601562</ele>
        <time>2019-12-09T16:37:38.531Z</time>
      </trkpt>
      <trkpt lat="40.132559" lon="-2.118199">
        <ele>984.8151245117188</ele>
        <time>2019-12-09T16:37:38.839Z</time>
      </trkpt>
      <trkpt lat="40.132591" lon="-2.118227">
        <ele>985.3046264648438</ele>
        <time>2019-12-09T16:37:39.148Z</time>
      </trkpt>
      <trkpt lat="40.1326" lon="-2.118239">
        <ele>985.4522094726562</ele>
        <time>2019-12-09T16:37:39.457Z</time>
      </trkpt>
      <trkpt lat="40.132609" lon="-2.118256">
        <ele>985.6117553710938</ele>
        <time>2019-12-09T16:37:39.766Z</time>
      </trkpt>
      <trkpt lat="40.132616" lon="-2.118271">
        <ele>985.7357177734375</ele>
        <time>2019-12-09T16:37:40.076Z</time>
      </trkpt>
      <trkpt lat="40.132626" lon="-2.118297">
        <ele>985.86767578125</ele>
        <time>2019-12-09T16:37:40.386Z</time>
      </trkpt>
      <trkpt lat="40.132637" lon="-2.11831">
        <ele>986.0128784179688</ele>
        <time>2019-12-09T16:37:40.696Z</time>
      </trkpt>
      <trkpt lat="40.132661" lon="-2.118333">
        <ele>986.32958984375</ele>
        <time>2019-12-09T16:37:41.007Z</time>
      </trkpt>
      <trkpt lat="40.132688" lon="-2.118359">
        <ele>986.6859130859375</ele>
        <time>2019-12-09T16:37:41.319Z</time>
      </trkpt>
      <trkpt lat="40.132728" lon="-2.118399">
        <ele>987.2138671875</ele>
        <time>2019-12-09T16:37:41.632Z</time>
      </trkpt>
      <trkpt lat="40.132737" lon="-2.118407">
        <ele>987.3326416015625</ele>
        <time>2019-12-09T16:37:41.945Z</time>
      </trkpt>
      <trkpt lat="40.132754" lon="-2.118433">
        <ele>987.5570068359375</ele>
        <time>2019-12-09T16:37:42.258Z</time>
      </trkpt>
      <trkpt lat="40.132758" lon="-2.118466">
        <ele>987.5531005859375</ele>
        <time>2019-12-09T16:37:42.572Z</time>
      </trkpt>
      <trkpt lat="40.132752" lon="-2.118492">
        <ele>987.4019165039062</ele>
        <time>2019-12-09T16:37:42.886Z</time>
      </trkpt>
      <trkpt lat="40.132765" lon="-2.118569">
        <ele>987.24951171875</ele>
        <time>2019-12-09T16:37:43.201Z</time>
      </trkpt>
      <trkpt lat="40.132817" lon="-2.118653">
        <ele>987.4462890625</ele>
        <time>2019-12-09T16:37:43.518Z</time>
      </trkpt>
      <trkpt lat="40.13284" lon="-2.118674">
        <ele>987.5914916992188</ele>
        <time>2019-12-09T16:37:43.836Z</time>
      </trkpt>
      <trkpt lat="40.1329" lon="-2.118713">
        <ele>988.0270385742188</ele>
        <time>2019-12-09T16:37:44.155Z</time>
      </trkpt>
      <trkpt lat="40.132915" lon="-2.118702">
        <ele>988.2105712890625</ele>
        <time>2019-12-09T16:37:44.474Z</time>
      </trkpt>
      <trkpt lat="40.132922" lon="-2.118684">
        <ele>988.342529296875</ele>
        <time>2019-12-09T16:37:44.794Z</time>
      </trkpt>
      <trkpt lat="40.132924" lon="-2.118664">
        <ele>988.4337158203125</ele>
        <time>2019-12-09T16:37:45.114Z</time>
      </trkpt>
      <trkpt lat="40.132922" lon="-2.11862">
        <ele>988.5729370117188</ele>
        <time>2019-12-09T16:37:45.435Z</time>
      </trkpt>
      <trkpt lat="40.132899" lon="-2.118551">
        <ele>988.6005249023438</ele>
        <time>2019-12-09T16:37:45.757Z</time>
      </trkpt>
      <trkpt lat="40.13287" lon="-2.118469">
        <ele>988.6173095703125</ele>
        <time>2019-12-09T16:37:46.080Z</time>
      </trkpt>
      <trkpt lat="40.132853" lon="-2.118357">
        <ele>988.8572998046875</ele>
        <time>2019-12-09T16:37:46.405Z</time>
      </trkpt>
      <trkpt lat="40.132875" lon="-2.118337">
        <ele>989.1404418945312</ele>
        <time>2019-12-09T16:37:46.730Z</time>
      </trkpt>
      <trkpt lat="40.13289" lon="-2.118322">
        <ele>989.33837890625</ele>
        <time>2019-12-09T16:37:47.056Z</time>
      </trkpt>
      <trkpt lat="40.132911" lon="-2.118321">
        <ele>989.5435791015625</ele>
        <time>2019-12-09T16:37:47.382Z</time>
      </trkpt>
      <trkpt lat="40.13295" lon="-2.118347">
        <ele>989.863525390625</ele>
        <time>2019-12-09T16:37:47.709Z</time>
      </trkpt>
      <trkpt lat="40.132962" lon="-2.11837">
        <ele>989.9390869140625</ele>
        <time>2019-12-09T16:37:48.037Z</time>
      </trkpt>
      <trkpt lat="40.132975" lon="-2.11846">
        <ele>989.7867431640625</ele>
        <time>2019-12-09T16:37:48.366Z</time>
      </trkpt>
      <trkpt lat="40.132985" lon="-2.118486">
        <ele>989.8251342773438</ele>
        <time>2019-12-09T16:37:48.695Z</time>
      </trkpt>
      <trkpt lat="40.133009" lon="-2.118525">
        <ele>990.0015258789062</ele>
        <time>2019-12-09T16:37:49.025Z</time>
      </trkpt>
      <trkpt lat="40.133026" lon="-2.118534">
        <ele>990.1934814453125</ele>
        <time>2019-12-09T16:37:49.356Z</time>
      </trkpt>
      <trkpt lat="40.133068" lon="-2.118567">
        <ele>990.6289672851562</ele>
        <time>2019-12-09T16:37:49.688Z</time>
      </trkpt>
      <trkpt lat="40.133074" lon="-2.118604">
        <ele>990.5750122070312</ele>
        <time>2019-12-09T16:37:50.020Z</time>
      </trkpt>
      <trkpt lat="40.133074" lon="-2.118615">
        <ele>990.535400390625</ele>
        <time>2019-12-09T16:37:50.352Z</time>
      </trkpt>
      <trkpt lat="40.133062" lon="-2.118639">
        <ele>990.2906494140625</ele>
        <time>2019-12-09T16:37:50.685Z</time>
      </trkpt>
      <trkpt lat="40.133043" lon="-2.118693">
        <ele>989.8455200195312</ele>
        <time>2019-12-09T16:37:51.019Z</time>
      </trkpt>
      <trkpt lat="40.13302" lon="-2.118825">
        <ele>989.0668334960938</ele>
        <time>2019-12-09T16:37:51.355Z</time>
      </trkpt>
      <trkpt lat="40.133028" lon="-2.118898">
        <ele>988.90966796875</ele>
        <time>2019-12-09T16:37:51.692Z</time>
      </trkpt>
      <trkpt lat="40.133049" lon="-2.119011">
        <ele>988.7581787109375</ele>
        <time>2019-12-09T16:37:52.031Z</time>
      </trkpt>
      <trkpt lat="40.133059" lon="-2.119046">
        <ele>988.710205078125</ele>
        <time>2019-12-09T16:37:52.370Z</time>
      </trkpt>
      <trkpt lat="40.133052" lon="-2.119058">
        <ele>988.568603515625</ele>
        <time>2019-12-09T16:37:52.709Z</time>
      </trkpt>
      <trkpt lat="40.133022" lon="-2.119095">
        <ele>988.0310668945312</ele>
        <time>2019-12-09T16:37:53.049Z</time>
      </trkpt>
      <trkpt lat="40.132984" lon="-2.119165">
        <ele>987.2391967773438</ele>
        <time>2019-12-09T16:37:53.391Z</time>
      </trkpt>
      <trkpt lat="40.132978" lon="-2.119187">
        <ele>987.0616455078125</ele>
        <time>2019-12-09T16:37:53.733Z</time>
      </trkpt>
      <trkpt lat="40.132975" lon="-2.119231">
        <ele>986.8145141601562</ele>
        <time>2019-12-09T16:37:54.076Z</time>
      </trkpt>
      <trkpt lat="40.132996" lon="-2.119415">
        <ele>986.1834106445312</ele>
        <time>2019-12-09T16:37:54.421Z</time>
      </trkpt>
      <trkpt lat="40.133051" lon="-2.119542">
        <ele>986.2337646484375</ele>
        <time>2019-12-09T16:37:54.769Z</time>
      </trkpt>
      <trkpt lat="40.133094" lon="-2.119565">
        <ele>986.6393432617188</ele>
        <time>2019-12-09T16:37:55.118Z</time>
      </trkpt>
      <trkpt lat="40.133143" lon="-2.119587">
        <ele>987.1216430664062</ele>
        <time>2019-12-09T16:37:55.468Z</time>
      </trkpt>
      <trkpt lat="40.133195" lon="-2.119614">
        <ele>987.615966796875</ele>
        <time>2019-12-09T16:37:55.819Z</time>
      </trkpt>
      <trkpt lat="40.13329" lon="-2.119675">
        <ele>989.1094970703125</ele>
        <time>2019-12-09T16:37:56.172Z</time>
      </trkpt>
      <trkpt lat="40.133326" lon="-2.119702">
        <ele>989.8654174804688</ele>
        <time>2019-12-09T16:37:56.526Z</time>
      </trkpt>
      <trkpt lat="40.133351" lon="-2.119784">
        <ele>990.5421142578125</ele>
        <time>2019-12-09T16:37:56.881Z</time>
      </trkpt>
      <trkpt lat="40.133376" lon="-2.119911">
        <ele>991.3267822265625</ele>
        <time>2019-12-09T16:37:57.238Z</time>
      </trkpt>
      <trkpt lat="40.133385" lon="-2.119976">
        <ele>991.5118408203125</ele>
        <time>2019-12-09T16:37:57.596Z</time>
      </trkpt>
      <trkpt lat="40.133387" lon="-2.120037">
        <ele>991.47705078125</ele>
        <time>2019-12-09T16:37:57.955Z</time>
      </trkpt>
      <trkpt lat="40.13337" lon="-2.1201">
        <ele>991.0751342773438</ele>
        <time>2019-12-09T16:37:58.315Z</time>
      </trkpt>
      <trkpt lat="40.133348" lon="-2.120226">
        <ele>990.5015869140625</ele>
        <time>2019-12-09T16:37:58.677Z</time>
      </trkpt>
      <trkpt lat="40.133332" lon="-2.1204">
        <ele>990.2936401367188</ele>
        <time>2019-12-09T16:37:59.042Z</time>
      </trkpt>
      <trkpt lat="40.133308" lon="-2.120584">
        <ele>991.7238159179688</ele>
        <time>2019-12-09T16:37:59.410Z</time>
      </trkpt>
      <trkpt lat="40.133258" lon="-2.120787">
        <ele>992.4769287109375</ele>
        <time>2019-12-09T16:37:59.781Z</time>
      </trkpt>
      <trkpt lat="40.133281" lon="-2.120883">
        <ele>994.0282592773438</ele>
        <time>2019-12-09T16:38:00.153Z</time>
      </trkpt>
      <trkpt lat="40.133292" lon="-2.120909">
        <ele>994.6029663085938</ele>
        <time>2019-12-09T16:38:00.526Z</time>
      </trkpt>
      <trkpt lat="40.133301" lon="-2.12097">
        <ele>995.4067993164062</ele>
        <time>2019-12-09T16:38:00.900Z</time>
      </trkpt>
      <trkpt lat="40.133311" lon="-2.121055">
        <ele>996.4446411132812</ele>
        <time>2019-12-09T16:38:01.275Z</time>
      </trkpt>
      <trkpt lat="40.133298" lon="-2.121201">
        <ele>997.2496948242188</ele>
        <time>2019-12-09T16:38:01.652Z</time>
      </trkpt>
      <trkpt lat="40.133254" lon="-2.121292">
        <ele>996.6025390625</ele>
        <time>2019-12-09T16:38:02.031Z</time>
      </trkpt>
      <trkpt lat="40.133198" lon="-2.121342">
        <ele>995.1944580078125</ele>
        <time>2019-12-09T16:38:02.411Z</time>
      </trkpt>
      <trkpt lat="40.133098" lon="-2.121382">
        <ele>992.2909545898438</ele>
        <time>2019-12-09T16:38:02.793Z</time>
      </trkpt>
      <trkpt lat="40.133009" lon="-2.12144">
        <ele>989.8949584960938</ele>
        <time>2019-12-09T16:38:03.177Z</time>
      </trkpt>
      <trkpt lat="40.1329" lon="-2.121487">
        <ele>987.1809692382812</ele>
        <time>2019-12-09T16:38:03.564Z</time>
      </trkpt>
      <trkpt lat="40.132783" lon="-2.121534">
        <ele>985.0488891601562</ele>
        <time>2019-12-09T16:38:03.953Z</time>
      </trkpt>
      <trkpt lat="40.132715" lon="-2.121576">
        <ele>983.93310546875</ele>
        <time>2019-12-09T16:38:04.344Z</time>
      </trkpt>
      <trkpt lat="40.132639" lon="-2.121635">
        <ele>982.595458984375</ele>
        <time>2019-12-09T16:38:04.736Z</time>
      </trkpt>
      <trkpt lat="40.132562" lon="-2.121681">
        <ele>981.04296875</ele>
        <time>2019-12-09T16:38:05.130Z</time>
      </trkpt>
      <trkpt lat="40.132487" lon="-2.121737">
        <ele>979.5576171875</ele>
        <time>2019-12-09T16:38:05.526Z</time>
      </trkpt>
      <trkpt lat="40.132439" lon="-2.121808">
        <ele>978.6913452148438</ele>
        <time>2019-12-09T16:38:05.923Z</time>
      </trkpt>
      <trkpt lat="40.132415" lon="-2.121884">
        <ele>978.3554077148438</ele>
        <time>2019-12-09T16:38:06.322Z</time>
      </trkpt>
      <trkpt lat="40.132409" lon="-2.12196">
        <ele>978.408203125</ele>
        <time>2019-12-09T16:38:06.722Z</time>
      </trkpt>
      <trkpt lat="40.132414" lon="-2.122087">
        <ele>978.8209228515625</ele>
        <time>2019-12-09T16:38:07.124Z</time>
      </trkpt>
      <trkpt lat="40.132414" lon="-2.122147">
        <ele>978.987548828125</ele>
        <time>2019-12-09T16:38:07.527Z</time>
      </trkpt>
      <trkpt lat="40.132409" lon="-2.122206">
        <ele>979.0859375</ele>
        <time>2019-12-09T16:38:07.931Z</time>
      </trkpt>
      <trkpt lat="40.132394" lon="-2.12227">
        <ele>978.9743041992188</ele>
        <time>2019-12-09T16:38:08.336Z</time>
      </trkpt>
      <trkpt lat="40.132378" lon="-2.122336">
        <ele>978.84716796875</ele>
        <time>2019-12-09T16:38:08.742Z</time>
      </trkpt>
      <trkpt lat="40.132362" lon="-2.122404">
        <ele>978.7271728515625</ele>
        <time>2019-12-09T16:38:09.149Z</time>
      </trkpt>
      <trkpt lat="40.132335" lon="-2.122537">
        <ele>978.1080932617188</ele>
        <time>2019-12-09T16:38:09.558Z</time>
      </trkpt>
      <trkpt lat="40.132327" lon="-2.122594">
        <ele>977.8572998046875</ele>
        <time>2019-12-09T16:38:09.968Z</time>
      </trkpt>
      <trkpt lat="40.132311" lon="-2.1227">
        <ele>977.3654174804688</ele>
        <time>2019-12-09T16:38:10.379Z</time>
      </trkpt>
      <trkpt lat="40.13227" lon="-2.122886">
        <ele>976.2075805664062</ele>
        <time>2019-12-09T16:38:10.793Z</time>
      </trkpt>
      <trkpt lat="40.132233" lon="-2.122971">
        <ele>975.2621459960938</ele>
        <time>2019-12-09T16:38:11.209Z</time>
      </trkpt>
      <trkpt lat="40.132185" lon="-2.12305">
        <ele>974.0731811523438</ele>
        <time>2019-12-09T16:38:11.626Z</time>
      </trkpt>
      <trkpt lat="40.132049" lon="-2.123191">
        <ele>971.21142578125</ele>
        <time>2019-12-09T16:38:12.047Z</time>
      </trkpt>
      <trkpt lat="40.131973" lon="-2.123275">
        <ele>969.9674072265625</ele>
        <time>2019-12-09T16:38:12.470Z</time>
      </trkpt>
      <trkpt lat="40.131903" lon="-2.123364">
        <ele>969.5162963867188</ele>
        <time>2019-12-09T16:38:12.895Z</time>
      </trkpt>
      <trkpt lat="40.131856" lon="-2.123475">
        <ele>969.582275390625</ele>
        <time>2019-12-09T16:38:13.322Z</time>
      </trkpt>
      <trkpt lat="40.131828" lon="-2.12359">
        <ele>969.9225463867188</ele>
        <time>2019-12-09T16:38:13.751Z</time>
      </trkpt>
      <trkpt lat="40.131812" lon="-2.123703">
        <ele>970.3701171875</ele>
        <time>2019-12-09T16:38:14.181Z</time>
      </trkpt>
      <trkpt lat="40.131796" lon="-2.12381">
        <ele>970.7816162109375</ele>
        <time>2019-12-09T16:38:14.613Z</time>
      </trkpt>
      <trkpt lat="40.131768" lon="-2.123909">
        <ele>970.972412109375</ele>
        <time>2019-12-09T16:38:15.047Z</time>
      </trkpt>
      <trkpt lat="40.131683" lon="-2.124083">
        <ele>970.7924194335938</ele>
        <time>2019-12-09T16:38:15.484Z</time>
      </trkpt>
      <trkpt lat="40.131544" lon="-2.124295">
        <ele>970.2927856445312</ele>
        <time>2019-12-09T16:38:15.925Z</time>
      </trkpt>
      <trkpt lat="40.131502" lon="-2.124366">
        <ele>970.1991577148438</ele>
        <time>2019-12-09T16:38:16.368Z</time>
      </trkpt>
      <trkpt lat="40.131451" lon="-2.124419">
        <ele>969.846435546875</ele>
        <time>2019-12-09T16:38:16.812Z</time>
      </trkpt>
      <trkpt lat="40.131326" lon="-2.124467">
        <ele>968.3922729492188</ele>
        <time>2019-12-09T16:38:17.258Z</time>
      </trkpt>
      <trkpt lat="40.131048" lon="-2.124532">
        <ele>964.5887451171875</ele>
        <time>2019-12-09T16:38:17.710Z</time>
      </trkpt>
      <trkpt lat="40.130999" lon="-2.124593">
        <ele>964.2635498046875</ele>
        <time>2019-12-09T16:38:18.163Z</time>
      </trkpt>
      <trkpt lat="40.130961" lon="-2.124669">
        <ele>964.2179565429688</ele>
        <time>2019-12-09T16:38:18.618Z</time>
      </trkpt>
      <trkpt lat="40.130929" lon="-2.124751">
        <ele>964.3091430664062</ele>
        <time>2019-12-09T16:38:19.074Z</time>
      </trkpt>
      <trkpt lat="40.130872" lon="-2.124925">
        <ele>964.6727294921875</ele>
        <time>2019-12-09T16:38:19.533Z</time>
      </trkpt>
      <trkpt lat="40.130805" lon="-2.125076">
        <ele>964.0472412109375</ele>
        <time>2019-12-09T16:38:19.995Z</time>
      </trkpt>
      <trkpt lat="40.130751" lon="-2.125132">
        <ele>963.33935546875</ele>
        <time>2019-12-09T16:38:20.458Z</time>
      </trkpt>
      <trkpt lat="40.130627" lon="-2.125223">
        <ele>961.6235961914062</ele>
        <time>2019-12-09T16:38:20.924Z</time>
      </trkpt>
      <trkpt lat="40.130486" lon="-2.1253">
        <ele>959.609130859375</ele>
        <time>2019-12-09T16:38:21.393Z</time>
      </trkpt>
      <trkpt lat="40.130335" lon="-2.125399">
        <ele>957.7403564453125</ele>
        <time>2019-12-09T16:38:21.865Z</time>
      </trkpt>
      <trkpt lat="40.130225" lon="-2.125549">
        <ele>956.6484985351562</ele>
        <time>2019-12-09T16:38:22.341Z</time>
      </trkpt>
      <trkpt lat="40.130172" lon="-2.125632">
        <ele>956.148193359375</ele>
        <time>2019-12-09T16:38:22.818Z</time>
      </trkpt>
      <trkpt lat="40.130108" lon="-2.125711">
        <ele>955.4931030273438</ele>
        <time>2019-12-09T16:38:23.297Z</time>
      </trkpt>
      <trkpt lat="40.13005412763345" lon="-2.1257905410327567">
        <ele>954.9971313476562</ele>
        <time>2019-12-09T16:38:23.778Z</time>
      </trkpt>
      <trkpt lat="40.13001342304051" lon="-2.125758519396186">
        <ele>954.3589477539062</ele>
        <time>2019-12-09T16:38:24.260Z</time>
      </trkpt>
      <trkpt lat="40.13062119483948" lon="-2.1244382858276367">
        <ele>958.015625</ele>
        <time>2019-12-09T16:38:24.765Z</time>
      </trkpt>
      <trkpt lat="40.13081431388855" lon="-2.123579978942871">
        <ele>955.366455078125</ele>
        <time>2019-12-09T16:38:25.284Z</time>
      </trkpt>
      <trkpt lat="40.13082504272461" lon="-2.122979164123535">
        <ele>953.2865600585938</ele>
        <time>2019-12-09T16:38:25.812Z</time>
      </trkpt>
      <trkpt lat="40.13092956505716" lon="-2.122295033186674">
        <ele>953.3803100585938</ele>
        <time>2019-12-09T16:38:26.351Z</time>
      </trkpt>
      <trkpt lat="40.13092956505716" lon="-2.122295117005706">
        <ele>953.380615234375</ele>
        <time>2019-12-09T16:38:26.890Z</time>
      </trkpt>
      <trkpt lat="40.130943059921265" lon="-2.122206687927246">
        <ele>953.2242431640625</ele>
        <time>2019-12-09T16:38:27.430Z</time>
      </trkpt>
      <trkpt lat="40.13086795806885" lon="-2.121584415435791">
        <ele>951.1203002929688</ele>
        <time>2019-12-09T16:38:27.980Z</time>
      </trkpt>
      <trkpt lat="40.13063192367554" lon="-2.121015787124634">
        <ele>949.8001708984375</ele>
        <time>2019-12-09T16:38:28.540Z</time>
      </trkpt>
      <trkpt lat="40.129655599594116" lon="-2.119191884994507">
        <ele>946.6649169921875</ele>
        <time>2019-12-09T16:38:29.134Z</time>
      </trkpt>
      <trkpt lat="40.12906559742987" lon="-2.118515968322754">
        <ele>941.4114990234375</ele>
        <time>2019-12-09T16:38:29.744Z</time>
      </trkpt>
      <trkpt lat="40.12803562916815" lon="-2.1216917037963867">
        <ele>936.1168212890625</ele>
        <time>2019-12-09T16:38:30.407Z</time>
      </trkpt>
      <trkpt lat="40.12803554534912" lon="-2.1216917037963867">
        <ele>936.11669921875</ele>
        <time>2019-12-09T16:38:31.070Z</time>
      </trkpt>
      <trkpt lat="40.12754210270941" lon="-2.123204469680786">
        <ele>936.0292358398438</ele>
        <time>2019-12-09T16:38:31.758Z</time>
      </trkpt>
      <trkpt lat="40.12750865891576" lon="-2.1233053877949715">
        <ele>935.9459228515625</ele>
        <time>2019-12-09T16:38:32.447Z</time>
      </trkpt>
      <trkpt lat="40.12749799893164" lon="-2.123299510417951">
        <ele>935.985595703125</ele>
        <time>2019-12-09T16:38:33.137Z</time>
      </trkpt>
      <trkpt lat="40.1275" lon="-2.12328">
        <ele>936.0276489257812</ele>
        <time>2019-12-09T16:38:33.827Z</time>
      </trkpt>
      <trkpt lat="40.127485" lon="-2.123226">
        <ele>936.1404418945312</ele>
        <time>2019-12-09T16:38:34.518Z</time>
      </trkpt>
      <trkpt lat="40.12746" lon="-2.123174">
        <ele>936.2628173828125</ele>
        <time>2019-12-09T16:38:35.210Z</time>
      </trkpt>
      <trkpt lat="40.127375" lon="-2.123013">
        <ele>936.6599731445312</ele>
        <time>2019-12-09T16:38:35.905Z</time>
      </trkpt>
      <trkpt lat="40.127321" lon="-2.122903">
        <ele>936.7406005859375</ele>
        <time>2019-12-09T16:38:36.602Z</time>
      </trkpt>
      <trkpt lat="40.127296" lon="-2.122852">
        <ele>936.7706298828125</ele>
        <time>2019-12-09T16:38:37.300Z</time>
      </trkpt>
      <trkpt lat="40.12726" lon="-2.122771">
        <ele>936.8137817382812</ele>
        <time>2019-12-09T16:38:37.999Z</time>
      </trkpt>
      <trkpt lat="40.127245" lon="-2.12273">
        <ele>936.831787109375</ele>
        <time>2019-12-09T16:38:38.699Z</time>
      </trkpt>
      <trkpt lat="40.127195" lon="-2.122668">
        <ele>936.8917846679688</ele>
        <time>2019-12-09T16:38:39.400Z</time>
      </trkpt>
      <trkpt lat="40.12713" lon="-2.122624">
        <ele>936.9697875976562</ele>
        <time>2019-12-09T16:38:40.103Z</time>
      </trkpt>
      <trkpt lat="40.127099" lon="-2.122587">
        <ele>937.0347900390625</ele>
        <time>2019-12-09T16:38:40.807Z</time>
      </trkpt>
      <trkpt lat="40.127061" lon="-2.122456">
        <ele>937.2335815429688</ele>
        <time>2019-12-09T16:38:41.513Z</time>
      </trkpt>
      <trkpt lat="40.127029" lon="-2.122331">
        <ele>937.7435302734375</ele>
        <time>2019-12-09T16:38:42.221Z</time>
      </trkpt>
      <trkpt lat="40.127001" lon="-2.122307">
        <ele>937.9642944335938</ele>
        <time>2019-12-09T16:38:42.929Z</time>
      </trkpt>
      <trkpt lat="40.126855" lon="-2.122251">
        <ele>938.8665161132812</ele>
        <time>2019-12-09T16:38:43.640Z</time>
      </trkpt>
      <trkpt lat="40.126768" lon="-2.122218">
        <ele>939.40283203125</ele>
        <time>2019-12-09T16:38:44.353Z</time>
      </trkpt>
      <trkpt lat="40.126663" lon="-2.122178">
        <ele>940.0507202148438</ele>
        <time>2019-12-09T16:38:45.068Z</time>
      </trkpt>
      <trkpt lat="40.126483" lon="-2.122106">
        <ele>941.8865966796875</ele>
        <time>2019-12-09T16:38:45.787Z</time>
      </trkpt>
      <trkpt lat="40.126194" lon="-2.122009">
        <ele>945.5672607421875</ele>
        <time>2019-12-09T16:38:46.512Z</time>
      </trkpt>
      <trkpt lat="40.126101" lon="-2.121979">
        <ele>946.4130859375</ele>
        <time>2019-12-09T16:38:47.239Z</time>
      </trkpt>
      <trkpt lat="40.126007" lon="-2.121945">
        <ele>947.3033447265625</ele>
        <time>2019-12-09T16:38:47.968Z</time>
      </trkpt>
      <trkpt lat="40.125678" lon="-2.121877">
        <ele>948.3970336914062</ele>
        <time>2019-12-09T16:38:48.704Z</time>
      </trkpt>
      <trkpt lat="40.125347" lon="-2.1218">
        <ele>949.8177490234375</ele>
        <time>2019-12-09T16:38:49.446Z</time>
      </trkpt>
      <trkpt lat="40.125297" lon="-2.121786">
        <ele>950.3048706054688</ele>
        <time>2019-12-09T16:38:50.189Z</time>
      </trkpt>
      <trkpt lat="40.125188" lon="-2.121778">
        <ele>950.7196655273438</ele>
        <time>2019-12-09T16:38:50.935Z</time>
      </trkpt>
      <trkpt lat="40.125029" lon="-2.121779">
        <ele>950.9127807617188</ele>
        <time>2019-12-09T16:38:51.684Z</time>
      </trkpt>
      <trkpt lat="40.124755" lon="-2.12172">
        <ele>951.0999755859375</ele>
        <time>2019-12-09T16:38:52.438Z</time>
      </trkpt>
      <trkpt lat="40.124612" lon="-2.121656">
        <ele>951.1179809570312</ele>
        <time>2019-12-09T16:38:53.195Z</time>
      </trkpt>
      <trkpt lat="40.124529" lon="-2.121615">
        <ele>951.5383911132812</ele>
        <time>2019-12-09T16:38:53.954Z</time>
      </trkpt>
      <trkpt lat="40.124488" lon="-2.121593">
        <ele>951.8065185546875</ele>
        <time>2019-12-09T16:38:54.714Z</time>
      </trkpt>
      <trkpt lat="40.12431" lon="-2.121499">
        <ele>953.8893432617188</ele>
        <time>2019-12-09T16:38:55.478Z</time>
      </trkpt>
      <trkpt lat="40.12422" lon="-2.12142">
        <ele>955.2822875976562</ele>
        <time>2019-12-09T16:38:56.244Z</time>
      </trkpt>
      <trkpt lat="40.1241" lon="-2.121229">
        <ele>957.579345703125</ele>
        <time>2019-12-09T16:38:57.014Z</time>
      </trkpt>
      <trkpt lat="40.124059" lon="-2.121144">
        <ele>957.382568359375</ele>
        <time>2019-12-09T16:38:57.785Z</time>
      </trkpt>
      <trkpt lat="40.123956" lon="-2.120933">
        <ele>956.8882446289062</ele>
        <time>2019-12-09T16:38:58.560Z</time>
      </trkpt>
      <trkpt lat="40.12387" lon="-2.120811">
        <ele>956.4755249023438</ele>
        <time>2019-12-09T16:38:59.338Z</time>
      </trkpt>
      <trkpt lat="40.123829" lon="-2.12076">
        <ele>956.4163818359375</ele>
        <time>2019-12-09T16:39:00.117Z</time>
      </trkpt>
      <trkpt lat="40.123791" lon="-2.120713">
        <ele>956.6481323242188</ele>
        <time>2019-12-09T16:39:00.897Z</time>
      </trkpt>
      <trkpt lat="40.123753" lon="-2.120659">
        <ele>956.8173828125</ele>
        <time>2019-12-09T16:39:01.678Z</time>
      </trkpt>
      <trkpt lat="40.123696" lon="-2.12054">
        <ele>957.742431640625</ele>
        <time>2019-12-09T16:39:02.461Z</time>
      </trkpt>
      <trkpt lat="40.123673" lon="-2.120471">
        <ele>958.2667236328125</ele>
        <time>2019-12-09T16:39:03.245Z</time>
      </trkpt>
      <trkpt lat="40.123575" lon="-2.1202">
        <ele>960.335205078125</ele>
        <time>2019-12-09T16:39:04.034Z</time>
      </trkpt>
      <trkpt lat="40.123505" lon="-2.120091">
        <ele>960.40478515625</ele>
        <time>2019-12-09T16:39:04.825Z</time>
      </trkpt>
      <trkpt lat="40.12342" lon="-2.120008">
        <ele>959.8948974609375</ele>
        <time>2019-12-09T16:39:05.618Z</time>
      </trkpt>
      <trkpt lat="40.123296" lon="-2.119927">
        <ele>959.2164306640625</ele>
        <time>2019-12-09T16:39:06.414Z</time>
      </trkpt>
      <trkpt lat="40.123183" lon="-2.119872">
        <ele>958.9344482421875</ele>
        <time>2019-12-09T16:39:07.212Z</time>
      </trkpt>
      <trkpt lat="40.123058" lon="-2.119787">
        <ele>958.7622680664062</ele>
        <time>2019-12-09T16:39:08.013Z</time>
      </trkpt>
      <trkpt lat="40.122968" lon="-2.119733">
        <ele>958.4382934570312</ele>
        <time>2019-12-09T16:39:08.816Z</time>
      </trkpt>
      <trkpt lat="40.122834" lon="-2.119672">
        <ele>958.584228515625</ele>
        <time>2019-12-09T16:39:09.622Z</time>
      </trkpt>
      <trkpt lat="40.122754" lon="-2.119648">
        <ele>958.7282104492188</ele>
        <time>2019-12-09T16:39:10.430Z</time>
      </trkpt>
      <trkpt lat="40.122642" lon="-2.119615">
        <ele>958.9262084960938</ele>
        <time>2019-12-09T16:39:11.240Z</time>
      </trkpt>
      <trkpt lat="40.122491" lon="-2.11957">
        <ele>959.1961669921875</ele>
        <time>2019-12-09T16:39:12.053Z</time>
      </trkpt>
      <trkpt lat="40.122456" lon="-2.119566">
        <ele>959.198486328125</ele>
        <time>2019-12-09T16:39:12.867Z</time>
      </trkpt>
      <trkpt lat="40.122357" lon="-2.119549">
        <ele>959.1613159179688</ele>
        <time>2019-12-09T16:39:13.683Z</time>
      </trkpt>
      <trkpt lat="40.122326" lon="-2.119542">
        <ele>959.15771484375</ele>
        <time>2019-12-09T16:39:14.499Z</time>
      </trkpt>
      <trkpt lat="40.122252" lon="-2.119524">
        <ele>959.1552734375</ele>
        <time>2019-12-09T16:39:15.317Z</time>
      </trkpt>
      <trkpt lat="40.122095" lon="-2.119544">
        <ele>958.9462280273438</ele>
        <time>2019-12-09T16:39:16.138Z</time>
      </trkpt>
      <trkpt lat="40.122023" lon="-2.119661">
        <ele>958.903076171875</ele>
        <time>2019-12-09T16:39:16.961Z</time>
      </trkpt>
      <trkpt lat="40.122005" lon="-2.1197">
        <ele>958.845458984375</ele>
        <time>2019-12-09T16:39:17.785Z</time>
      </trkpt>
      <trkpt lat="40.121963" lon="-2.119775">
        <ele>958.7879028320312</ele>
        <time>2019-12-09T16:39:18.611Z</time>
      </trkpt>
      <trkpt lat="40.121935" lon="-2.11981">
        <ele>958.8214721679688</ele>
        <time>2019-12-09T16:39:19.437Z</time>
      </trkpt>
      <trkpt lat="40.121877" lon="-2.119858">
        <ele>959.0086669921875</ele>
        <time>2019-12-09T16:39:20.265Z</time>
      </trkpt>
      <trkpt lat="40.121848" lon="-2.119877">
        <ele>959.126220703125</ele>
        <time>2019-12-09T16:39:21.093Z</time>
      </trkpt>
      <trkpt lat="40.121746" lon="-2.119895">
        <ele>959.7741088867188</ele>
        <time>2019-12-09T16:39:21.923Z</time>
      </trkpt>
      <trkpt lat="40.121725" lon="-2.119887">
        <ele>959.9636840820312</ele>
        <time>2019-12-09T16:39:22.754Z</time>
      </trkpt>
      <trkpt lat="40.121705" lon="-2.119881">
        <ele>960.136474609375</ele>
        <time>2019-12-09T16:39:23.585Z</time>
      </trkpt>
      <trkpt lat="40.121637" lon="-2.119847">
        <ele>960.7891235351562</ele>
        <time>2019-12-09T16:39:24.418Z</time>
      </trkpt>
      <trkpt lat="40.121593" lon="-2.119823">
        <ele>961.2210693359375</ele>
        <time>2019-12-09T16:39:25.252Z</time>
      </trkpt>
      <trkpt lat="40.121569" lon="-2.119807">
        <ele>961.4706420898438</ele>
        <time>2019-12-09T16:39:26.086Z</time>
      </trkpt>
      <trkpt lat="40.121548" lon="-2.119796">
        <ele>961.6746215820312</ele>
        <time>2019-12-09T16:39:26.921Z</time>
      </trkpt>
      <trkpt lat="40.121512" lon="-2.119773">
        <ele>962.0441284179688</ele>
        <time>2019-12-09T16:39:27.756Z</time>
      </trkpt>
      <trkpt lat="40.121459" lon="-2.119742">
        <ele>962.527587890625</ele>
        <time>2019-12-09T16:39:28.593Z</time>
      </trkpt>
      <trkpt lat="40.121441" lon="-2.119733">
        <ele>962.4735717773438</ele>
        <time>2019-12-09T16:39:29.430Z</time>
      </trkpt>
      <trkpt lat="40.121402" lon="-2.119719">
        <ele>962.3764038085938</ele>
        <time>2019-12-09T16:39:30.268Z</time>
      </trkpt>
      <trkpt lat="40.121338" lon="-2.119694">
        <ele>962.2096557617188</ele>
        <time>2019-12-09T16:39:31.107Z</time>
      </trkpt>
      <trkpt lat="40.121295" lon="-2.119685">
        <ele>962.1256713867188</ele>
        <time>2019-12-09T16:39:31.947Z</time>
      </trkpt>
      <trkpt lat="40.121274" lon="-2.119685">
        <ele>962.1004638671875</ele>
        <time>2019-12-09T16:39:32.787Z</time>
      </trkpt>
      <trkpt lat="40.121239" lon="-2.119684">
        <ele>962.4327392578125</ele>
        <time>2019-12-09T16:39:33.628Z</time>
      </trkpt>
      <trkpt lat="40.121139" lon="-2.119671">
        <ele>963.4657592773438</ele>
        <time>2019-12-09T16:39:34.471Z</time>
      </trkpt>
      <trkpt lat="40.121017" lon="-2.119664">
        <ele>964.7579345703125</ele>
        <time>2019-12-09T16:39:35.317Z</time>
      </trkpt>
      <trkpt lat="40.120954" lon="-2.119667">
        <ele>965.4490356445312</ele>
        <time>2019-12-09T16:39:36.164Z</time>
      </trkpt>
      <trkpt lat="40.120924" lon="-2.119666">
        <ele>965.7694091796875</ele>
        <time>2019-12-09T16:39:37.011Z</time>
      </trkpt>
      <trkpt lat="40.120809" lon="-2.11968">
        <ele>967.0615844726562</ele>
        <time>2019-12-09T16:39:37.861Z</time>
      </trkpt>
      <trkpt lat="40.120692" lon="-2.119694">
        <ele>968.3753662109375</ele>
        <time>2019-12-09T16:39:38.713Z</time>
      </trkpt>
      <trkpt lat="40.120663" lon="-2.119697">
        <ele>968.7779541015625</ele>
        <time>2019-12-09T16:39:39.566Z</time>
      </trkpt>
      <trkpt lat="40.120582" lon="-2.119712">
        <ele>970.1025390625</ele>
        <time>2019-12-09T16:39:40.420Z</time>
      </trkpt>
      <trkpt lat="40.12053" lon="-2.11973">
        <ele>970.9328002929688</ele>
        <time>2019-12-09T16:39:41.275Z</time>
      </trkpt>
      <trkpt lat="40.120505" lon="-2.119738">
        <ele>971.33349609375</ele>
        <time>2019-12-09T16:39:42.131Z</time>
      </trkpt>
      <trkpt lat="40.120453" lon="-2.119757">
        <ele>972.161376953125</ele>
        <time>2019-12-09T16:39:42.988Z</time>
      </trkpt>
      <trkpt lat="40.120379" lon="-2.119779">
        <ele>972.446533203125</ele>
        <time>2019-12-09T16:39:43.846Z</time>
      </trkpt>
      <trkpt lat="40.120325" lon="-2.119764">
        <ele>972.54736328125</ele>
        <time>2019-12-09T16:39:44.706Z</time>
      </trkpt>
      <trkpt lat="40.120207" lon="-2.119723">
        <ele>972.7872924804688</ele>
        <time>2019-12-09T16:39:45.568Z</time>
      </trkpt>
      <trkpt lat="40.120147" lon="-2.119717">
        <ele>972.8737182617188</ele>
        <time>2019-12-09T16:39:46.431Z</time>
      </trkpt>
      <trkpt lat="40.120116" lon="-2.119719">
        <ele>972.9060668945312</ele>
        <time>2019-12-09T16:39:47.295Z</time>
      </trkpt>
      <trkpt lat="40.120062" lon="-2.119732">
        <ele>972.939697265625</ele>
        <time>2019-12-09T16:39:48.160Z</time>
      </trkpt>
      <trkpt lat="40.120002" lon="-2.119746">
        <ele>972.9780883789062</ele>
        <time>2019-12-09T16:39:49.026Z</time>
      </trkpt>
      <trkpt lat="40.119949" lon="-2.119747">
        <ele>973.0392456054688</ele>
        <time>2019-12-09T16:39:49.893Z</time>
      </trkpt>
      <trkpt lat="40.119849" lon="-2.119678">
        <ele>973.3854370117188</ele>
        <time>2019-12-09T16:39:50.762Z</time>
      </trkpt>
      <trkpt lat="40.11983" lon="-2.119653">
        <ele>973.6793823242188</ele>
        <time>2019-12-09T16:39:51.632Z</time>
      </trkpt>
      <trkpt lat="40.119759" lon="-2.119593">
        <ele>974.5372924804688</ele>
        <time>2019-12-09T16:39:52.504Z</time>
      </trkpt>
      <trkpt lat="40.119702" lon="-2.119591">
        <ele>974.8936157226562</ele>
        <time>2019-12-09T16:39:53.377Z</time>
      </trkpt>
      <trkpt lat="40.11956" lon="-2.119627">
        <ele>975.486328125</ele>
        <time>2019-12-09T16:39:54.253Z</time>
      </trkpt>
      <trkpt lat="40.119528" lon="-2.11964">
        <ele>975.584716796875</ele>
        <time>2019-12-09T16:39:55.129Z</time>
      </trkpt>
      <trkpt lat="40.119464" lon="-2.119688">
        <ele>975.6231079101562</ele>
        <time>2019-12-09T16:39:56.007Z</time>
      </trkpt>
      <trkpt lat="40.119407" lon="-2.119765">
        <ele>975.4107055664062</ele>
        <time>2019-12-09T16:39:56.887Z</time>
      </trkpt>
      <trkpt lat="40.11936" lon="-2.119839">
        <ele>975.1599731445312</ele>
        <time>2019-12-09T16:39:57.768Z</time>
      </trkpt>
      <trkpt lat="40.119342" lon="-2.119873">
        <ele>975.023193359375</ele>
        <time>2019-12-09T16:39:58.650Z</time>
      </trkpt>
      <trkpt lat="40.119324" lon="-2.119905">
        <ele>974.9008178710938</ele>
        <time>2019-12-09T16:39:59.532Z</time>
      </trkpt>
      <trkpt lat="40.119303" lon="-2.119936">
        <ele>974.8036499023438</ele>
        <time>2019-12-09T16:40:00.415Z</time>
      </trkpt>
      <trkpt lat="40.119279" lon="-2.119961">
        <ele>974.9171142578125</ele>
        <time>2019-12-09T16:40:01.299Z</time>
      </trkpt>
      <trkpt lat="40.119152" lon="-2.120008">
        <ele>975.62255859375</ele>
        <time>2019-12-09T16:40:02.185Z</time>
      </trkpt>
      <trkpt lat="40.119114" lon="-2.120021">
        <ele>975.8349609375</ele>
        <time>2019-12-09T16:40:03.072Z</time>
      </trkpt>
      <trkpt lat="40.118927" lon="-2.120077">
        <ele>976.8895874023438</ele>
        <time>2019-12-09T16:40:03.963Z</time>
      </trkpt>
      <trkpt lat="40.118855" lon="-2.120068">
        <ele>977.332275390625</ele>
        <time>2019-12-09T16:40:04.855Z</time>
      </trkpt>
      <trkpt lat="40.118813" lon="-2.120034">
        <ele>977.6250610351562</ele>
        <time>2019-12-09T16:40:05.748Z</time>
      </trkpt>
      <trkpt lat="40.118776" lon="-2.119986">
        <ele>977.9046020507812</ele>
        <time>2019-12-09T16:40:06.642Z</time>
      </trkpt>
      <trkpt lat="40.118706" lon="-2.119859">
        <ele>979.278076171875</ele>
        <time>2019-12-09T16:40:07.539Z</time>
      </trkpt>
      <trkpt lat="40.118635" lon="-2.119722">
        <ele>981.1893310546875</ele>
        <time>2019-12-09T16:40:08.438Z</time>
      </trkpt>
      <trkpt lat="40.118623" lon="-2.119697">
        <ele>981.5300903320312</ele>
        <time>2019-12-09T16:40:09.338Z</time>
      </trkpt>
      <trkpt lat="40.118576" lon="-2.119639">
        <ele>982.4815673828125</ele>
        <time>2019-12-09T16:40:10.239Z</time>
      </trkpt>
      <trkpt lat="40.118555" lon="-2.119638">
        <ele>982.66748046875</ele>
        <time>2019-12-09T16:40:11.140Z</time>
      </trkpt>
      <trkpt lat="40.118533" lon="-2.119649">
        <ele>982.7467041015625</ele>
        <time>2019-12-09T16:40:12.042Z</time>
      </trkpt>
      <trkpt lat="40.118429" lon="-2.119746">
        <ele>982.6890869140625</ele>
        <time>2019-12-09T16:40:12.946Z</time>
      </trkpt>
      <trkpt lat="40.118395" lon="-2.119778">
        <ele>982.66748046875</ele>
        <time>2019-12-09T16:40:13.851Z</time>
      </trkpt>
      <trkpt lat="40.118356" lon="-2.119812">
        <ele>982.668701171875</ele>
        <time>2019-12-09T16:40:14.757Z</time>
      </trkpt>
      <trkpt lat="40.118213" lon="-2.119932">
        <ele>982.7178955078125</ele>
        <time>2019-12-09T16:40:15.667Z</time>
      </trkpt>
      <trkpt lat="40.118105" lon="-2.120149">
        <ele>984.0966186523438</ele>
        <time>2019-12-09T16:40:16.581Z</time>
      </trkpt>
      <trkpt lat="40.118084" lon="-2.120203">
        <ele>984.402587890625</ele>
        <time>2019-12-09T16:40:17.495Z</time>
      </trkpt>
      <trkpt lat="40.118067" lon="-2.120262">
        <ele>984.6869506835938</ele>
        <time>2019-12-09T16:40:18.410Z</time>
      </trkpt>
      <trkpt lat="40.118056" lon="-2.120323">
        <ele>984.9257202148438</ele>
        <time>2019-12-09T16:40:19.326Z</time>
      </trkpt>
      <trkpt lat="40.118045" lon="-2.120436">
        <ele>985.2892456054688</ele>
        <time>2019-12-09T16:40:20.244Z</time>
      </trkpt>
      <trkpt lat="40.118061" lon="-2.120552">
        <ele>985.4332275390625</ele>
        <time>2019-12-09T16:40:21.164Z</time>
      </trkpt>
      <trkpt lat="40.118071" lon="-2.120607">
        <ele>985.481201171875</ele>
        <time>2019-12-09T16:40:22.085Z</time>
      </trkpt>
      <trkpt lat="40.118075" lon="-2.120663">
        <ele>985.4674072265625</ele>
        <time>2019-12-09T16:40:23.007Z</time>
      </trkpt>
      <trkpt lat="40.118055" lon="-2.120823">
        <ele>985.5795288085938</ele>
        <time>2019-12-09T16:40:23.931Z</time>
      </trkpt>
      <trkpt lat="40.118028" lon="-2.120942">
        <ele>985.9034423828125</ele>
        <time>2019-12-09T16:40:24.857Z</time>
      </trkpt>
      <trkpt lat="40.117998" lon="-2.121233">
        <ele>986.263427734375</ele>
        <time>2019-12-09T16:40:25.788Z</time>
      </trkpt>
      <trkpt lat="40.117992" lon="-2.121289">
        <ele>986.3353881835938</ele>
        <time>2019-12-09T16:40:26.719Z</time>
      </trkpt>
      <trkpt lat="40.117967" lon="-2.121467">
        <ele>986.6353149414062</ele>
        <time>2019-12-09T16:40:27.653Z</time>
      </trkpt>
      <trkpt lat="40.117948" lon="-2.121586">
        <ele>986.86328125</ele>
        <time>2019-12-09T16:40:28.589Z</time>
      </trkpt>
      <trkpt lat="40.117939" lon="-2.121646">
        <ele>986.9913940429688</ele>
        <time>2019-12-09T16:40:29.526Z</time>
      </trkpt>
      <trkpt lat="40.117914" lon="-2.121817">
        <ele>987.2169799804688</ele>
        <time>2019-12-09T16:40:30.466Z</time>
      </trkpt>
      <trkpt lat="40.117852" lon="-2.121987">
        <ele>987.8120727539062</ele>
        <time>2019-12-09T16:40:31.409Z</time>
      </trkpt>
      <trkpt lat="40.1178" lon="-2.122097">
        <ele>988.3112182617188</ele>
        <time>2019-12-09T16:40:32.354Z</time>
      </trkpt>
      <trkpt lat="40.117769" lon="-2.12215">
        <ele>988.6087646484375</ele>
        <time>2019-12-09T16:40:33.300Z</time>
      </trkpt>
      <trkpt lat="40.117662" lon="-2.122297">
        <ele>989.6358032226562</ele>
        <time>2019-12-09T16:40:34.249Z</time>
      </trkpt>
      <trkpt lat="40.117628" lon="-2.122347">
        <ele>989.962158203125</ele>
        <time>2019-12-09T16:40:35.199Z</time>
      </trkpt>
      <trkpt lat="40.117571" lon="-2.122451">
        <ele>990.45703125</ele>
        <time>2019-12-09T16:40:36.151Z</time>
      </trkpt>
      <trkpt lat="40.117508" lon="-2.122616">
        <ele>990.4678344726562</ele>
        <time>2019-12-09T16:40:37.105Z</time>
      </trkpt>
      <trkpt lat="40.117451" lon="-2.122787">
        <ele>990.3994750976562</ele>
        <time>2019-12-09T16:40:38.062Z</time>
      </trkpt>
      <trkpt lat="40.117431" lon="-2.122844">
        <ele>990.3862915039062</ele>
        <time>2019-12-09T16:40:39.020Z</time>
      </trkpt>
      <trkpt lat="40.117374" lon="-2.123141">
        <ele>991.0560302734375</ele>
        <time>2019-12-09T16:40:39.983Z</time>
      </trkpt>
      <trkpt lat="40.11736" lon="-2.123199">
        <ele>991.3511962890625</ele>
        <time>2019-12-09T16:40:40.947Z</time>
      </trkpt>
      <trkpt lat="40.117309" lon="-2.123368">
        <ele>991.7529907226562</ele>
        <time>2019-12-09T16:40:41.914Z</time>
      </trkpt>
      <trkpt lat="40.117298" lon="-2.12343">
        <ele>991.7661743164062</ele>
        <time>2019-12-09T16:40:42.882Z</time>
      </trkpt>
      <trkpt lat="40.117291" lon="-2.123552">
        <ele>991.7745971679688</ele>
        <time>2019-12-09T16:40:43.852Z</time>
      </trkpt>
      <trkpt lat="40.117301" lon="-2.123674">
        <ele>991.7625732421875</ele>
        <time>2019-12-09T16:40:44.823Z</time>
      </trkpt>
      <trkpt lat="40.117306" lon="-2.123738">
        <ele>991.756591796875</ele>
        <time>2019-12-09T16:40:45.795Z</time>
      </trkpt>
      <trkpt lat="40.117307" lon="-2.123798">
        <ele>991.7554321289062</ele>
        <time>2019-12-09T16:40:46.768Z</time>
      </trkpt>
      <trkpt lat="40.117305" lon="-2.123866">
        <ele>991.7578125</ele>
        <time>2019-12-09T16:40:47.742Z</time>
      </trkpt>
      <trkpt lat="40.117284" lon="-2.124073">
        <ele>992.3244018554688</ele>
        <time>2019-12-09T16:40:48.720Z</time>
      </trkpt>
      <trkpt lat="40.11721" lon="-2.12415">
        <ele>991.9771728515625</ele>
        <time>2019-12-09T16:40:49.700Z</time>
      </trkpt>
      <trkpt lat="40.117029" lon="-2.124199">
        <ele>991.2489013671875</ele>
        <time>2019-12-09T16:40:50.683Z</time>
      </trkpt>
      <trkpt lat="40.116807" lon="-2.1243">
        <ele>990.4686889648438</ele>
        <time>2019-12-09T16:40:51.671Z</time>
      </trkpt>
      <trkpt lat="40.116749" lon="-2.124363">
        <ele>989.93359375</ele>
        <time>2019-12-09T16:40:52.660Z</time>
      </trkpt>
      <trkpt lat="40.116617" lon="-2.124481">
        <ele>988.9593505859375</ele>
        <time>2019-12-09T16:40:53.653Z</time>
      </trkpt>
      <trkpt lat="40.11653" lon="-2.124588">
        <ele>988.0366821289062</ele>
        <time>2019-12-09T16:40:54.648Z</time>
      </trkpt>
      <trkpt lat="40.116523" lon="-2.124807">
        <ele>986.3872680664062</ele>
        <time>2019-12-09T16:40:55.646Z</time>
      </trkpt>
      <trkpt lat="40.116501" lon="-2.124978">
        <ele>985.3086547851562</ele>
        <time>2019-12-09T16:40:56.647Z</time>
      </trkpt>
      <trkpt lat="40.116449" lon="-2.125161">
        <ele>984.0860595703125</ele>
        <time>2019-12-09T16:40:57.651Z</time>
      </trkpt>
      <trkpt lat="40.116412" lon="-2.125252">
        <ele>983.4513549804688</ele>
        <time>2019-12-09T16:40:58.657Z</time>
      </trkpt>
      <trkpt lat="40.116316" lon="-2.125422">
        <ele>982.201171875</ele>
        <time>2019-12-09T16:40:59.666Z</time>
      </trkpt>
      <trkpt lat="40.116256" lon="-2.125502">
        <ele>981.7412109375</ele>
        <time>2019-12-09T16:41:00.677Z</time>
      </trkpt>
      <trkpt lat="40.116011" lon="-2.125825">
        <ele>982.2206420898438</ele>
        <time>2019-12-09T16:41:01.695Z</time>
      </trkpt>
      <trkpt lat="40.115988" lon="-2.125895">
        <ele>982.10546875</ele>
        <time>2019-12-09T16:41:02.714Z</time>
      </trkpt>
      <trkpt lat="40.115923" lon="-2.126017">
        <ele>982.1438598632812</ele>
        <time>2019-12-09T16:41:03.735Z</time>
      </trkpt>
      <trkpt lat="40.115794" lon="-2.126204">
        <ele>982.484619140625</ele>
        <time>2019-12-09T16:41:04.760Z</time>
      </trkpt>
      <trkpt lat="40.11576" lon="-2.126279">
        <ele>982.4510498046875</ele>
        <time>2019-12-09T16:41:05.786Z</time>
      </trkpt>
      <trkpt lat="40.115698" lon="-2.126524">
        <ele>981.8703002929688</ele>
        <time>2019-12-09T16:41:06.816Z</time>
      </trkpt>
      <trkpt lat="40.115672" lon="-2.126662">
        <ele>982.015625</ele>
        <time>2019-12-09T16:41:07.848Z</time>
      </trkpt>
      <trkpt lat="40.115609" lon="-2.126764">
        <ele>983.1098022460938</ele>
        <time>2019-12-09T16:41:08.882Z</time>
      </trkpt>
      <trkpt lat="40.115543" lon="-2.126874">
        <ele>984.271240234375</ele>
        <time>2019-12-09T16:41:09.918Z</time>
      </trkpt>
      <trkpt lat="40.115497" lon="-2.12701">
        <ele>985.365478515625</ele>
        <time>2019-12-09T16:41:10.957Z</time>
      </trkpt>
      <trkpt lat="40.115487" lon="-2.127081">
        <ele>985.8021850585938</ele>
        <time>2019-12-09T16:41:11.997Z</time>
      </trkpt>
      <trkpt lat="40.115471" lon="-2.127153">
        <ele>986.30126953125</ele>
        <time>2019-12-09T16:41:13.038Z</time>
      </trkpt>
      <trkpt lat="40.115453" lon="-2.127329">
        <ele>987.3187255859375</ele>
        <time>2019-12-09T16:41:14.082Z</time>
      </trkpt>
      <trkpt lat="40.115435" lon="-2.127421">
        <ele>987.9273071289062</ele>
        <time>2019-12-09T16:41:15.127Z</time>
      </trkpt>
      <trkpt lat="40.115397" lon="-2.12751">
        <ele>987.5572509765625</ele>
        <time>2019-12-09T16:41:16.174Z</time>
      </trkpt>
      <trkpt lat="40.115334" lon="-2.127708">
        <ele>986.455810546875</ele>
        <time>2019-12-09T16:41:17.224Z</time>
      </trkpt>
      <trkpt lat="40.115302" lon="-2.127818">
        <ele>985.8511352539062</ele>
        <time>2019-12-09T16:41:18.276Z</time>
      </trkpt>
      <trkpt lat="40.115251" lon="-2.128051">
        <ele>984.6105346679688</ele>
        <time>2019-12-09T16:41:19.332Z</time>
      </trkpt>
      <trkpt lat="40.115221" lon="-2.128282">
        <ele>983.429931640625</ele>
        <time>2019-12-09T16:41:20.391Z</time>
      </trkpt>
      <trkpt lat="40.115222" lon="-2.128388">
        <ele>982.923583984375</ele>
        <time>2019-12-09T16:41:21.452Z</time>
      </trkpt>
      <trkpt lat="40.115225" lon="-2.128479">
        <ele>982.4940795898438</ele>
        <time>2019-12-09T16:41:22.514Z</time>
      </trkpt>
      <trkpt lat="40.115212" lon="-2.128549">
        <ele>981.6085815429688</ele>
        <time>2019-12-09T16:41:23.577Z</time>
      </trkpt>
      <trkpt lat="40.115191" lon="-2.128624">
        <ele>980.679931640625</ele>
        <time>2019-12-09T16:41:24.641Z</time>
      </trkpt>
      <trkpt lat="40.115172" lon="-2.128705">
        <ele>979.6505126953125</ele>
        <time>2019-12-09T16:41:25.707Z</time>
      </trkpt>
      <trkpt lat="40.115156" lon="-2.128793">
        <ele>978.4987182617188</ele>
        <time>2019-12-09T16:41:26.774Z</time>
      </trkpt>
      <trkpt lat="40.115139" lon="-2.128881">
        <ele>977.3541259765625</ele>
        <time>2019-12-09T16:41:27.843Z</time>
      </trkpt>
      <trkpt lat="40.115115" lon="-2.128972">
        <ele>976.2166748046875</ele>
        <time>2019-12-09T16:41:28.913Z</time>
      </trkpt>
      <trkpt lat="40.115099" lon="-2.129071">
        <ele>974.906494140625</ele>
        <time>2019-12-09T16:41:29.985Z</time>
      </trkpt>
      <trkpt lat="40.115112" lon="-2.129267">
        <ele>974.7242431640625</ele>
        <time>2019-12-09T16:41:31.060Z</time>
      </trkpt>
      <trkpt lat="40.115181" lon="-2.129445">
        <ele>973.8336791992188</ele>
        <time>2019-12-09T16:41:32.138Z</time>
      </trkpt>
      <trkpt lat="40.115225" lon="-2.129536">
        <ele>972.4395141601562</ele>
        <time>2019-12-09T16:41:33.217Z</time>
      </trkpt>
      <trkpt lat="40.115301" lon="-2.129709">
        <ele>969.9175415039062</ele>
        <time>2019-12-09T16:41:34.299Z</time>
      </trkpt>
      <trkpt lat="40.115318" lon="-2.129796">
        <ele>969.0057373046875</ele>
        <time>2019-12-09T16:41:35.383Z</time>
      </trkpt>
      <trkpt lat="40.115332" lon="-2.129884">
        <ele>968.1370239257812</ele>
        <time>2019-12-09T16:41:36.468Z</time>
      </trkpt>
      <trkpt lat="40.115361" lon="-2.130058">
        <ele>967.4613037109375</ele>
        <time>2019-12-09T16:41:37.556Z</time>
      </trkpt>
      <trkpt lat="40.115382" lon="-2.130321">
        <ele>967.764892578125</ele>
        <time>2019-12-09T16:41:38.648Z</time>
      </trkpt>
      <trkpt lat="40.115369" lon="-2.130397">
        <ele>968.1500244140625</ele>
        <time>2019-12-09T16:41:39.741Z</time>
      </trkpt>
      <trkpt lat="40.115335" lon="-2.130456">
        <ele>968.8218994140625</ele>
        <time>2019-12-09T16:41:40.835Z</time>
      </trkpt>
      <trkpt lat="40.115301" lon="-2.130518">
        <ele>969.5009765625</ele>
        <time>2019-12-09T16:41:41.930Z</time>
      </trkpt>
      <trkpt lat="40.115276" lon="-2.130591">
        <ele>970.0661010742188</ele>
        <time>2019-12-09T16:41:43.027Z</time>
      </trkpt>
      <trkpt lat="40.115255" lon="-2.130667">
        <ele>970.5759887695312</ele>
        <time>2019-12-09T16:41:44.125Z</time>
      </trkpt>
      <trkpt lat="40.115233" lon="-2.130739">
        <ele>971.0919189453125</ele>
        <time>2019-12-09T16:41:45.224Z</time>
      </trkpt>
      <trkpt lat="40.115197" lon="-2.130802">
        <ele>971.5092163085938</ele>
        <time>2019-12-09T16:41:46.324Z</time>
      </trkpt>
      <trkpt lat="40.115157" lon="-2.130871">
        <ele>971.6363525390625</ele>
        <time>2019-12-09T16:41:47.426Z</time>
      </trkpt>
      <trkpt lat="40.115126" lon="-2.130953">
        <ele>971.5296020507812</ele>
        <time>2019-12-09T16:41:48.529Z</time>
      </trkpt>
      <trkpt lat="40.115092" lon="-2.131145">
        <ele>970.7487182617188</ele>
        <time>2019-12-09T16:41:49.635Z</time>
      </trkpt>
      <trkpt lat="40.115104" lon="-2.131349">
        <ele>969.611328125</ele>
        <time>2019-12-09T16:41:50.744Z</time>
      </trkpt>
      <trkpt lat="40.115121" lon="-2.131456">
        <ele>968.8734130859375</ele>
        <time>2019-12-09T16:41:51.855Z</time>
      </trkpt>
      <trkpt lat="40.115129" lon="-2.131562">
        <ele>968.2591552734375</ele>
        <time>2019-12-09T16:41:52.968Z</time>
      </trkpt>
      <trkpt lat="40.115122" lon="-2.131666">
        <ele>967.0433349609375</ele>
        <time>2019-12-09T16:41:54.082Z</time>
      </trkpt>
      <trkpt lat="40.115106" lon="-2.131763">
        <ele>965.5087890625</ele>
        <time>2019-12-09T16:41:55.198Z</time>
      </trkpt>
      <trkpt lat="40.115083" lon="-2.131845">
        <ele>964.3366088867188</ele>
        <time>2019-12-09T16:41:56.315Z</time>
      </trkpt>
      <trkpt lat="40.115045" lon="-2.131907">
        <ele>963.7222900390625</ele>
        <time>2019-12-09T16:41:57.433Z</time>
      </trkpt>
      <trkpt lat="40.115007" lon="-2.131961">
        <ele>963.251953125</ele>
        <time>2019-12-09T16:41:58.552Z</time>
      </trkpt>
      <trkpt lat="40.114951" lon="-2.132065">
        <ele>962.119384765625</ele>
        <time>2019-12-09T16:41:59.673Z</time>
      </trkpt>
      <trkpt lat="40.114948" lon="-2.132131">
        <ele>961.1997680664062</ele>
        <time>2019-12-09T16:42:00.795Z</time>
      </trkpt>
      <trkpt lat="40.114946" lon="-2.132199">
        <ele>960.3983154296875</ele>
        <time>2019-12-09T16:42:01.918Z</time>
      </trkpt>
      <trkpt lat="40.114935" lon="-2.132265">
        <ele>959.6856689453125</ele>
        <time>2019-12-09T16:42:03.042Z</time>
      </trkpt>
      <trkpt lat="40.114907" lon="-2.132336">
        <ele>959.0353393554688</ele>
        <time>2019-12-09T16:42:04.168Z</time>
      </trkpt>
      <trkpt lat="40.114893" lon="-2.132418">
        <ele>958.1522827148438</ele>
        <time>2019-12-09T16:42:05.295Z</time>
      </trkpt>
      <trkpt lat="40.114891" lon="-2.132505">
        <ele>956.4012451171875</ele>
        <time>2019-12-09T16:42:06.423Z</time>
      </trkpt>
      <trkpt lat="40.114875" lon="-2.132588">
        <ele>954.6243286132812</ele>
        <time>2019-12-09T16:42:07.553Z</time>
      </trkpt>
      <trkpt lat="40.114857" lon="-2.132675">
        <ele>952.7706298828125</ele>
        <time>2019-12-09T16:42:08.684Z</time>
      </trkpt>
      <trkpt lat="40.11485" lon="-2.132759">
        <ele>950.9061279296875</ele>
        <time>2019-12-09T16:42:09.816Z</time>
      </trkpt>
      <trkpt lat="40.114907" lon="-2.132858">
        <ele>948.2389526367188</ele>
        <time>2019-12-09T16:42:10.950Z</time>
      </trkpt>
      <trkpt lat="40.114933" lon="-2.13288">
        <ele>947.55029296875</ele>
        <time>2019-12-09T16:42:12.085Z</time>
      </trkpt>
      <trkpt lat="40.114945" lon="-2.132901">
        <ele>946.9851684570312</ele>
        <time>2019-12-09T16:42:13.220Z</time>
      </trkpt>
      <trkpt lat="40.114935" lon="-2.132934">
        <ele>946.304931640625</ele>
        <time>2019-12-09T16:42:14.356Z</time>
      </trkpt>
      <trkpt lat="40.1149" lon="-2.132966">
        <ele>945.827392578125</ele>
        <time>2019-12-09T16:42:15.493Z</time>
      </trkpt>
      <trkpt lat="40.11482" lon="-2.133027">
        <ele>945.0126953125</ele>
        <time>2019-12-09T16:42:16.631Z</time>
      </trkpt>
      <trkpt lat="40.114772" lon="-2.133056">
        <ele>944.6971435546875</ele>
        <time>2019-12-09T16:42:17.770Z</time>
      </trkpt>
      <trkpt lat="40.114691" lon="-2.133079">
        <ele>944.7559814453125</ele>
        <time>2019-12-09T16:42:18.911Z</time>
      </trkpt>
      <trkpt lat="40.114643" lon="-2.133052">
        <ele>945.7169799804688</ele>
        <time>2019-12-09T16:42:20.053Z</time>
      </trkpt>
      <trkpt lat="40.114593" lon="-2.133008">
        <ele>946.9517211914062</ele>
        <time>2019-12-09T16:42:21.196Z</time>
      </trkpt>
      <trkpt lat="40.114527" lon="-2.132968">
        <ele>947.4676513671875</ele>
        <time>2019-12-09T16:42:22.341Z</time>
      </trkpt>
      <trkpt lat="40.114461" lon="-2.132961">
        <ele>947.2312622070312</ele>
        <time>2019-12-09T16:42:23.487Z</time>
      </trkpt>
      <trkpt lat="40.11439" lon="-2.132967">
        <ele>946.6685791015625</ele>
        <time>2019-12-09T16:42:24.635Z</time>
      </trkpt>
      <trkpt lat="40.11432" lon="-2.132977">
        <ele>946.0206909179688</ele>
        <time>2019-12-09T16:42:25.784Z</time>
      </trkpt>
      <trkpt lat="40.114262" lon="-2.132993">
        <ele>945.3079833984375</ele>
        <time>2019-12-09T16:42:26.934Z</time>
      </trkpt>
      <trkpt lat="40.114206" lon="-2.133061">
        <ele>943.4219360351562</ele>
        <time>2019-12-09T16:42:28.086Z</time>
      </trkpt>
      <trkpt lat="40.114228" lon="-2.13309">
        <ele>942.892822265625</ele>
        <time>2019-12-09T16:42:29.238Z</time>
      </trkpt>
      <trkpt lat="40.114256" lon="-2.133097">
        <ele>942.9011840820312</ele>
        <time>2019-12-09T16:42:30.391Z</time>
      </trkpt>
      <trkpt lat="40.114302" lon="-2.133127">
        <ele>942.4932861328125</ele>
        <time>2019-12-09T16:42:31.545Z</time>
      </trkpt>
      <trkpt lat="40.114296" lon="-2.133164">
        <ele>941.6138305664062</ele>
        <time>2019-12-09T16:42:32.699Z</time>
      </trkpt>
      <trkpt lat="40.114267" lon="-2.133205">
        <ele>940.5051879882812</ele>
        <time>2019-12-09T16:42:33.854Z</time>
      </trkpt>
      <trkpt lat="40.114226" lon="-2.133228">
        <ele>939.7349243164062</ele>
        <time>2019-12-09T16:42:35.010Z</time>
      </trkpt>
      <trkpt lat="40.114175" lon="-2.133229">
        <ele>939.4061889648438</ele>
        <time>2019-12-09T16:42:36.167Z</time>
      </trkpt>
      <trkpt lat="40.114117" lon="-2.13322">
        <ele>939.263427734375</ele>
        <time>2019-12-09T16:42:37.325Z</time>
      </trkpt>
      <trkpt lat="40.114065" lon="-2.133225">
        <ele>938.8374633789062</ele>
        <time>2019-12-09T16:42:38.484Z</time>
      </trkpt>
      <trkpt lat="40.114034" lon="-2.133241">
        <ele>938.2867431640625</ele>
        <time>2019-12-09T16:42:39.644Z</time>
      </trkpt>
      <trkpt lat="40.11402640512749" lon="-2.133250873336954">
        <ele>938.01611328125</ele>
        <time>2019-12-09T16:42:40.804Z</time>
      </trkpt>
      <trkpt lat="40.114014" lon="-2.133267">
        <ele>937.5740966796875</ele>
        <time>2019-12-09T16:42:41.965Z</time>
      </trkpt>
      <trkpt lat="40.113965" lon="-2.133328">
        <ele>937.3095703125</ele>
        <time>2019-12-09T16:42:43.127Z</time>
      </trkpt>
      <trkpt lat="40.113905" lon="-2.133341">
        <ele>936.9808349609375</ele>
        <time>2019-12-09T16:42:44.290Z</time>
      </trkpt>
      <trkpt lat="40.11389323157725" lon="-2.133335442685988">
        <ele>936.8969116210938</ele>
        <time>2019-12-09T16:42:45.453Z</time>
      </trkpt>
    </trkseg>
  </trk>
</gpx>
